[[{"header":{"parameterUnit":"m.s-1","parameterCategory":1,"la1":31.0,"la2":29.5877,"lo1":-88.7671,"lo2":-86.6584,"dy":0.0162,"dx":0.0185,"nx":115,"ny":88,"refTime":"2023-06-06T18:00:00:Z","depth":0,"parameterNumber":2,"parameterNumberName":"U-component_of_WINDS"},"data":[0.0,0.0,0.0,0.0,0.0,0.0,0.0,0.0,0.0,0.0,0.0,0.0,0.0,0.0,0.0,0.0,0.0,0.0,0.0,0.0,0.0,0.0,0.0,0.0,0.0,0.0,0.0,0.0,0.0,0.0,0.0,0.0,0.0,0.0,0.0,0.0,0.0,0.0,0.0,0.0,0.0,0.0,0.0,0.0,0.0,0.0,0.0,0.0,0.0,0.0,0.0,0.0,0.0,0.0,0.0,0.0,0.0,0.0,0.0,0.0,0.0,0.0,0.0,0.0,0.0,0.0,0.0,0.0,0.0,0.0,0.0,0.0,0.0,0.0,0.0,0.0,0.0,0.0,0.0,0.0,0.0,0.0,0.0,0.0,0.0,0.0,0.0,0.0,0.0,0.0,0.0,0.0,0.0,0.0,0.0,0.0,0.0,0.0,0.0,0.0,0.0,0.0,0.0,0.0,0.0,0.0,0.0,0.0,0.0,0.0,0.0,0.0,0.0,0.0,0.0,0.0,0.0,0.0,0.0,0.0,0.0,0.0,0.0,0.0,0.0,0.0,0.0,0.0,0.0,0.0,0.0,0.0,0.0,0.0,0.0,0.0,0.0,0.0,0.0,0.0,0.0,0.0,0.0,0.0,0.0,0.0,0.0,0.0,0.0,0.0,0.0,0.0,0.0,0.0,0.0,0.0,0.0,0.0,0.0,0.0,0.0,0.0,0.0,0.0,0.0,0.0,0.0,0.0,0.0,0.0,0.0,0.0,0.0,0.0,0.0,0.0,0.0,0.0,0.0,0.0,0.0,0.0,0.0,0.0,0.0,0.0,0.0,0.0,0.0,0.0,0.0,0.0,0.0,0.0,0.0,0.0,0.0,0.0,0.0,0.0,0.0,0.0,0.0,0.0,0.0,0.0,0.0,0.0,0.0,0.0,0.0,0.0,0.0,0.0,0.0,0.0,0.0,0.0,0.0,0.0,0.0,0.0,0.0,0.0,0.0,0.0,0.0,0.0,0.0,0.0,0.0,0.0,0.0,0.0,0.0,0.0,0.0,0.0,0.0,0.0,0.0,0.0,0.0,0.0,0.0,0.0,0.0,0.0,0.0,0.0,0.0,0.0,0.0,0.0,0.0,0.0,0.0,0.0,0.0,0.0,0.0,0.0,0.0,0.0,0.0,0.0,0.0,0.0,0.0,0.0,0.0,0.0,0.0,0.0,0.0,0.0,0.0,0.0,0.0,0.0,0.0,0.0,0.0,0.0,0.0,0.0,0.0,0.0,0.0,0.0,0.0,0.0,0.0,0.0,0.0,0.0,0.0,0.0,0.0,0.0,0.0,0.0,0.0,0.0,0.0,0.0,0.0,0.0,0.0,0.0,0.0,0.0,0.0,0.0,0.0,0.0,0.0,0.0,0.0,0.0,0.0,0.0,0.0,0.0,0.0,0.0,0.0,0.0,0.0,0.0,0.0,0.0,0.0,0.0,0.0,0.0,0.0,0.0,0.0,0.0,0.0,0.0,0.0,0.0,0.0,0.0,0.0,0.0,0.0,0.0,0.0,0.0,0.0,0.0,0.0,0.0,0.0,0.0,0.0,0.0,0.0,0.0,0.0,0.0,0.0,0.0,0.0,0.0,0.0,0.0,0.0,0.0,0.0,0.0,0.0,0.0,0.0,0.0,0.0,0.0,0.0,0.0,0.0,0.0,0.0,0.0,0.0,0.0,0.0,0.0,0.0,0.0,0.0,0.0,0.0,0.0,0.0,0.0,0.0,0.0,0.0,0.0,0.0,0.0,0.0,0.0,0.0,0.0,0.0,0.0,0.0,0.0,0.0,0.0,0.0,0.0,0.0,0.0,0.0,0.0,0.0,0.0,0.0,0.0,0.0,0.0,0.0,0.0,0.0,0.0,0.0,0.0,0.0,0.0,0.0,0.0,0.0,0.0,0.0,0.0,0.0,0.0,0.0,0.0,0.0,0.0,0.0,0.0,0.0,0.0,0.0,0.0,0.0,0.0,0.0,0.0,0.0,0.0,0.0,0.0,0.0,0.0,0.0,0.0,0.0,0.0,0.0,0.0,0.0,0.0,0.0,0.0,0.0,0.0,0.0,0.0,0.0,0.0,0.0,0.0,0.0,0.0,0.0,0.0,0.0,0.0,0.0,0.0,0.0,0.0,0.0,0.0,0.0,0.0,0.0,0.0,0.0,0.0,0.0,0.0,0.0,0.0,0.0,0.0,0.0,0.0,0.0,0.0,0.0,0.0,0.0,0.0,0.0,0.0,0.0,0.0,0.0,0.0,0.0,0.0,0.0,0.0,0.0,0.0,0.0,0.0,0.0,0.0,0.0,0.0,0.0,0.0,0.0,0.0,0.0,0.0,0.0,0.0,0.0,0.0,0.0,0.0,0.0,0.0,0.0,0.0,0.0,0.0,0.0,0.0,0.0,0.0,0.0,0.0,0.0,0.0,0.0,0.0,0.0,0.0,0.0,0.0,0.0,0.0,0.0,0.0,0.0,0.0,0.0,0.0,0.0,0.0,0.0,0.0,0.0,0.0,0.0,0.0,0.0,0.0,0.0,0.0,0.0,0.0,0.0,0.0,0.0,0.0,0.0,0.0,0.0,0.0,0.0,0.0,0.0,0.0,0.0,0.0,0.0,0.0,0.0,0.0,0.0,0.0,0.0,0.0,0.0,0.0,0.0,0.0,0.0,0.0,0.0,0.0,0.0,0.0,0.0,0.0,0.0,0.0,0.0,0.0,0.0,0.0,0.0,0.0,0.0,0.0,0.0,0.0,0.0,0.0,0.0,0.0,0.0,0.0,0.0,0.0,0.0,0.0,0.0,0.0,0.0,0.0,0.0,0.0,0.0,0.0,0.0,0.0,0.0,0.0,0.0,0.0,0.0,0.0,0.0,0.0,0.0,0.0,0.0,0.0,0.0,0.0,0.0,0.0,0.0,0.0,0.0,0.0,0.0,0.0,0.0,0.0,0.0,0.0,0.0,0.0,0.0,0.0,0.0,0.0,0.0,0.0,0.0,0.0,0.0,0.0,0.0,0.0,0.0,0.0,0.0,0.0,0.0,0.0,0.0,0.0,0.0,0.0,0.0,0.0,0.0,0.0,0.0,0.0,0.0,0.0,0.0,0.0,0.0,0.0,0.0,0.0,0.0,0.0,0.0,0.0,0.0,0.0,0.0,0.0,0.0,0.0,0.0,0.0,0.0,0.0,0.0,0.0,0.0,0.0,0.0,0.0,0.0,0.0,0.0,0.0,0.0,0.0,0.0,0.0,0.0,0.0,0.0,0.0,0.0,0.0,0.0,0.0,0.0,0.0,0.0,0.0,0.0,0.0,0.0,0.0,0.0,0.0,0.0,0.0,0.0,0.0,0.0,0.0,0.0,0.0,0.0,0.0,0.0,0.0,0.0,0.0,0.0,0.0,0.0,0.0,0.0,0.0,0.0,0.0,0.0,0.0,0.0,0.0,0.0,0.0,0.0,0.0,0.0,0.0,0.0,0.0,0.0,0.0,0.0,0.0,0.0,0.0,0.0,0.0,0.0,0.0,0.0,0.0,0.0,0.0,0.0,0.0,0.0,0.0,0.0,0.0,0.0,0.0,0.0,0.0,0.0,0.0,0.0,0.0,0.0,0.0,0.0,0.0,0.0,0.0,0.0,0.0,0.0,0.0,0.0,0.0,0.0,0.0,0.0,0.0,0.0,0.0,0.0,0.0,0.0,0.0,0.0,0.0,0.0,0.0,0.0,0.0,0.0,0.0,0.0,0.0,0.0,0.0,0.0,0.0,0.0,0.0,0.0,0.0,0.0,0.0,0.0,0.0,0.0,0.0,0.0,0.0,0.0,0.0,0.0,0.0,0.0,0.0,0.0,0.0,0.0,0.0,0.0,0.0,0.0,0.0,0.0,0.0,0.0,0.0,0.0,0.0,0.0,0.0,0.0,0.0,0.0,0.0,0.0,0.0,0.0,0.0,0.0,0.0,0.0,0.0,0.0,0.0,0.0,0.0,0.0,0.0,0.0,0.0,0.0,0.0,0.0,0.0,0.0,0.0,0.0,0.0,0.0,0.0,0.0,0.0,0.0,0.0,0.0,0.0,0.0,0.0,0.0,0.0,0.0,0.0,0.0,0.0,0.0,0.0,0.0,0.0,0.0,0.0,0.0,0.0,0.0,0.0,0.0,0.0,0.0,0.0,0.0,0.0,0.0,0.0,0.0,0.0,0.0,0.0,0.0,0.0,0.0,0.0,0.0,0.0,0.0,0.0,-4.0861,0.0,0.0,0.0,0.0,0.0,0.0,0.0,0.0,0.0,0.0,0.0,0.0,0.0,0.0,0.0,0.0,0.0,0.0,0.0,0.0,0.0,0.0,0.0,0.0,0.0,0.0,0.0,0.0,0.0,0.0,0.0,0.0,0.0,0.0,0.0,0.0,0.0,0.0,0.0,0.0,0.0,0.0,0.0,0.0,0.0,0.0,0.0,0.0,0.0,0.0,0.0,0.0,0.0,0.0,0.0,0.0,0.0,0.0,0.0,0.0,0.0,0.0,0.0,0.0,0.0,0.0,0.0,0.0,0.0,0.0,0.0,0.0,0.0,0.0,0.0,0.0,0.0,0.0,0.0,0.0,0.0,0.0,0.0,0.0,0.0,0.0,0.0,0.0,0.0,0.0,0.0,0.0,0.0,0.0,0.0,0.0,0.0,0.0,0.0,0.0,0.0,0.0,0.0,0.0,0.0,0.0,0.0,0.0,0.0,0.0,-4.2838,-4.3211,-4.2089,-4.1608,-4.1844,0.0,0.0,0.0,0.0,0.0,0.0,0.0,0.0,0.0,0.0,0.0,0.0,0.0,0.0,0.0,0.0,0.0,0.0,0.0,0.0,0.0,0.0,0.0,0.0,0.0,0.0,0.0,0.0,0.0,0.0,0.0,0.0,0.0,0.0,0.0,0.0,0.0,0.0,0.0,0.0,0.0,0.0,0.0,0.0,0.0,0.0,0.0,0.0,0.0,0.0,0.0,0.0,0.0,0.0,0.0,0.0,0.0,0.0,0.0,0.0,0.0,0.0,0.0,0.0,0.0,0.0,0.0,0.0,0.0,0.0,0.0,0.0,0.0,0.0,0.0,0.0,0.0,0.0,0.0,0.0,0.0,0.0,0.0,0.0,0.0,0.0,0.0,0.0,0.0,0.0,0.0,0.0,0.0,0.0,0.0,0.0,0.0,0.0,0.0,0.0,0.0,0.0,0.0,0.0,0.0,0.0,0.0,0.0,0.0,0.0,0.0,0.0,-4.2992,-4.227,-4.2451,0.0,0.0,0.0,0.0,0.0,0.0,0.0,0.0,0.0,0.0,0.0,0.0,0.0,0.0,0.0,0.0,0.0,0.0,0.0,0.0,0.0,0.0,0.0,0.0,0.0,0.0,0.0,0.0,0.0,0.0,0.0,0.0,0.0,0.0,0.0,0.0,0.0,0.0,0.0,0.0,0.0,0.0,0.0,0.0,0.0,0.0,0.0,0.0,0.0,0.0,0.0,0.0,0.0,0.0,0.0,0.0,0.0,0.0,0.0,0.0,0.0,0.0,0.0,0.0,0.0,0.0,0.0,0.0,0.0,0.0,0.0,0.0,0.0,0.0,0.0,0.0,0.0,0.0,0.0,0.0,0.0,0.0,0.0,0.0,0.0,0.0,0.0,0.0,0.0,0.0,0.0,0.0,0.0,0.0,0.0,0.0,0.0,0.0,0.0,0.0,0.0,0.0,0.0,0.0,0.0,0.0,0.0,0.0,0.0,0.0,-4.5821,-4.4868,-4.4382,0.0,-4.2306,0.0,0.0,0.0,0.0,0.0,0.0,0.0,0.0,0.0,0.0,0.0,0.0,0.0,0.0,0.0,0.0,0.0,0.0,0.0,0.0,0.0,0.0,0.0,0.0,0.0,0.0,0.0,0.0,0.0,0.0,0.0,0.0,0.0,0.0,0.0,0.0,0.0,0.0,0.0,0.0,0.0,0.0,0.0,0.0,0.0,0.0,0.0,0.0,0.0,0.0,0.0,0.0,0.0,0.0,0.0,0.0,0.0,0.0,0.0,0.0,0.0,0.0,0.0,0.0,0.0,0.0,0.0,0.0,0.0,0.0,0.0,0.0,0.0,0.0,0.0,0.0,0.0,0.0,0.0,0.0,0.0,0.0,0.0,0.0,0.0,0.0,0.0,0.0,0.0,0.0,0.0,0.0,0.0,0.0,0.0,0.0,0.0,0.0,0.0,0.0,0.0,0.0,0.0,0.0,0.0,0.0,0.0,0.0,0.0,0.0,-4.6421,-4.593,-4.4928,-4.3935,0.0,0.0,0.0,0.0,0.0,0.0,0.0,0.0,0.0,0.0,0.0,0.0,0.0,0.0,0.0,0.0,0.0,0.0,0.0,0.0,0.0,0.0,0.0,0.0,0.0,0.0,0.0,0.0,0.0,0.0,0.0,0.0,0.0,0.0,0.0,0.0,0.0,0.0,0.0,0.0,0.0,0.0,0.0,0.0,0.0,0.0,0.0,0.0,0.0,0.0,0.0,0.0,0.0,0.0,0.0,0.0,0.0,0.0,0.0,0.0,0.0,0.0,0.0,0.0,0.0,0.0,0.0,0.0,0.0,0.0,0.0,0.0,0.0,0.0,0.0,0.0,0.0,0.0,0.0,0.0,0.0,0.0,0.0,0.0,0.0,0.0,0.0,0.0,0.0,0.0,0.0,0.0,0.0,0.0,0.0,0.0,0.0,0.0,0.0,0.0,0.0,0.0,0.0,0.0,0.0,0.0,0.0,0.0,0.0,0.0,-4.7405,-4.6758,-4.6008,-4.4893,-4.4011,-4.3446,0.0,0.0,0.0,0.0,0.0,0.0,0.0,0.0,0.0,0.0,0.0,0.0,0.0,0.0,0.0,0.0,0.0,0.0,0.0,0.0,0.0,0.0,0.0,0.0,0.0,0.0,0.0,0.0,0.0,0.0,0.0,0.0,0.0,0.0,0.0,0.0,0.0,0.0,0.0,0.0,0.0,0.0,0.0,0.0,0.0,0.0,0.0,0.0,0.0,0.0,0.0,0.0,0.0,0.0,0.0,0.0,0.0,0.0,0.0,0.0,0.0,0.0,0.0,0.0,0.0,0.0,0.0,0.0,0.0,0.0,0.0,0.0,0.0,0.0,0.0,0.0,0.0,0.0,0.0,0.0,0.0,0.0,0.0,0.0,0.0,0.0,0.0,0.0,0.0,0.0,0.0,0.0,0.0,0.0,0.0,0.0,0.0,0.0,0.0,0.0,0.0,0.0,0.0,0.0,0.0,0.0,0.0,0.0,-4.8212,-4.8068,-4.694,-4.4736,-4.421,-4.3862,0.0,0.0,0.0,0.0,0.0,0.0,0.0,0.0,0.0,0.0,0.0,0.0,0.0,0.0,0.0,0.0,0.0,0.0,0.0,0.0,0.0,0.0,0.0,0.0,0.0,0.0,0.0,0.0,0.0,0.0,0.0,0.0,0.0,0.0,0.0,0.0,0.0,0.0,0.0,0.0,0.0,0.0,0.0,0.0,0.0,0.0,0.0,0.0,0.0,0.0,0.0,0.0,0.0,0.0,0.0,0.0,0.0,0.0,0.0,0.0,0.0,0.0,0.0,0.0,0.0,0.0,0.0,0.0,0.0,0.0,0.0,0.0,0.0,0.0,0.0,0.0,0.0,0.0,0.0,0.0,0.0,0.0,0.0,0.0,0.0,0.0,0.0,0.0,0.0,0.0,0.0,0.0,0.0,0.0,0.0,0.0,0.0,0.0,0.0,0.0,0.0,0.0,0.0,0.0,0.0,0.0,0.0,0.0,0.0,-4.974,-4.8673,-4.7259,-4.5526,-4.4725,-4.4087,0.0,0.0,0.0,0.0,0.0,0.0,0.0,0.0,0.0,0.0,0.0,0.0,0.0,0.0,0.0,0.0,0.0,0.0,0.0,0.0,0.0,0.0,0.0,0.0,0.0,0.0,0.0,0.0,0.0,0.0,0.0,0.0,0.0,0.0,0.0,0.0,0.0,0.0,0.0,0.0,0.0,0.0,0.0,0.0,0.0,0.0,0.0,0.0,0.0,0.0,0.0,0.0,0.0,0.0,0.0,0.0,0.0,0.0,0.0,0.0,0.0,0.0,0.0,0.0,0.0,0.0,0.0,0.0,0.0,0.0,0.0,0.0,0.0,0.0,0.0,0.0,0.0,0.0,0.0,0.0,0.0,0.0,0.0,0.0,0.0,0.0,0.0,0.0,0.0,0.0,0.0,0.0,0.0,0.0,0.0,0.0,0.0,0.0,0.0,0.0,0.0,0.0,0.0,0.0,0.0,0.0,0.0,0.0,0.0,-5.0221,0.0,-4.7136,-4.5962,-4.5006,-4.4213,0.0,0.0,0.0,0.0,0.0,0.0,0.0,0.0,0.0,0.0,0.0,0.0,0.0,0.0,0.0,0.0,0.0,0.0,0.0,0.0,0.0,0.0,0.0,0.0,0.0,0.0,0.0,0.0,0.0,0.0,0.0,0.0,0.0,0.0,0.0,0.0,0.0,0.0,0.0,0.0,0.0,0.0,0.0,0.0,0.0,0.0,0.0,0.0,0.0,0.0,0.0,0.0,0.0,0.0,0.0,0.0,0.0,0.0,0.0,0.0,0.0,0.0,0.0,0.0,0.0,0.0,0.0,0.0,0.0,0.0,0.0,0.0,0.0,0.0,0.0,0.0,0.0,0.0,0.0,0.0,0.0,0.0,0.0,0.0,0.0,0.0,0.0,0.0,0.0,0.0,0.0,0.0,0.0,0.0,0.0,0.0,0.0,0.0,0.0,0.0,0.0,0.0,0.0,0.0,0.0,0.0,0.0,0.0,-5.0298,-4.9413,-4.7789,-4.6636,-4.5827,-4.5017,-4.4221,0.0,0.0,0.0,0.0,0.0,0.0,0.0,0.0,0.0,0.0,0.0,0.0,0.0,0.0,0.0,0.0,0.0,0.0,0.0,0.0,0.0,0.0,0.0,0.0,0.0,0.0,0.0,0.0,0.0,0.0,0.0,0.0,0.0,0.0,0.0,0.0,0.0,0.0,0.0,0.0,0.0,0.0,0.0,0.0,0.0,0.0,0.0,0.0,0.0,0.0,0.0,0.0,0.0,0.0,0.0,0.0,0.0,0.0,0.0,0.0,0.0,0.0,0.0,0.0,0.0,0.0,0.0,0.0,0.0,0.0,0.0,0.0,0.0,0.0,0.0,0.0,0.0,0.0,0.0,0.0,0.0,0.0,0.0,0.0,0.0,0.0,0.0,0.0,0.0,0.0,0.0,0.0,0.0,0.0,0.0,0.0,0.0,0.0,0.0,0.0,0.0,0.0,0.0,0.0,0.0,0.0,0.0,0.0,0.0,-5.0289,-4.9173,-4.8041,-4.6866,-4.5897,-4.4861,0.0,0.0,0.0,0.0,0.0,0.0,0.0,0.0,0.0,0.0,0.0,0.0,0.0,0.0,0.0,0.0,0.0,0.0,0.0,0.0,0.0,0.0,0.0,0.0,0.0,0.0,0.0,0.0,0.0,0.0,0.0,0.0,0.0,0.0,0.0,0.0,0.0,0.0,0.0,0.0,0.0,0.0,0.0,0.0,0.0,0.0,0.0,0.0,0.0,0.0,0.0,0.0,0.0,0.0,0.0,0.0,0.0,0.0,0.0,0.0,0.0,0.0,0.0,0.0,0.0,0.0,0.0,0.0,0.0,0.0,0.0,0.0,0.0,0.0,0.0,0.0,0.0,0.0,0.0,0.0,0.0,0.0,0.0,0.0,0.0,0.0,0.0,0.0,0.0,0.0,0.0,0.0,0.0,0.0,0.0,0.0,0.0,0.0,0.0,0.0,0.0,0.0,0.0,0.0,0.0,0.0,0.0,0.0,0.0,-5.0654,-4.9749,-4.8769,-4.7751,-4.6396,-4.5223,-4.4267,0.0,0.0,0.0,0.0,0.0,0.0,0.0,0.0,0.0,0.0,0.0,0.0,0.0,0.0,0.0,0.0,0.0,0.0,0.0,0.0,0.0,0.0,0.0,0.0,0.0,0.0,0.0,0.0,0.0,0.0,0.0,0.0,0.0,0.0,0.0,0.0,0.0,0.0,0.0,0.0,0.0,0.0,0.0,0.0,0.0,0.0,0.0,0.0,0.0,0.0,0.0,0.0,0.0,0.0,0.0,0.0,0.0,0.0,0.0,0.0,0.0,0.0,0.0,0.0,0.0,0.0,0.0,0.0,0.0,0.0,0.0,0.0,0.0,0.0,0.0,0.0,0.0,0.0,0.0,0.0,0.0,0.0,0.0,0.0,0.0,0.0,0.0,0.0,0.0,0.0,0.0,0.0,0.0,0.0,0.0,0.0,0.0,0.0,0.0,0.0,0.0,0.0,0.0,0.0,0.0,0.0,0.0,0.0,-5.0682,-4.9622,-4.8838,-4.841,-4.6523,-4.5279,0.0,0.0,0.0,0.0,0.0,0.0,0.0,0.0,0.0,0.0,0.0,0.0,0.0,0.0,0.0,0.0,0.0,0.0,0.0,0.0,0.0,0.0,0.0,0.0,0.0,0.0,0.0,0.0,0.0,0.0,0.0,0.0,0.0,0.0,0.0,0.0,0.0,0.0,0.0,0.0,0.0,0.0,0.0,0.0,0.0,0.0,0.0,0.0,0.0,0.0,0.0,0.0,0.0,0.0,0.0,0.0,0.0,0.0,0.0,0.0,0.0,0.0,0.0,0.0,0.0,0.0,0.0,0.0,0.0,0.0,0.0,0.0,0.0,0.0,0.0,0.0,0.0,0.0,0.0,0.0,0.0,0.0,0.0,0.0,0.0,0.0,0.0,0.0,0.0,0.0,0.0,0.0,0.0,0.0,0.0,0.0,0.0,0.0,0.0,0.0,0.0,0.0,0.0,0.0,0.0,0.0,0.0,0.0,0.0,-5.0404,-4.9877,-4.9263,-4.8539,-4.7149,-4.5919,0.0,0.0,0.0,0.0,0.0,0.0,0.0,0.0,0.0,0.0,0.0,0.0,0.0,0.0,0.0,0.0,0.0,0.0,0.0,0.0,0.0,0.0,0.0,0.0,0.0,0.0,0.0,0.0,0.0,0.0,0.0,0.0,0.0,0.0,0.0,0.0,0.0,0.0,0.0,0.0,0.0,0.0,0.0,0.0,0.0,0.0,0.0,0.0,0.0,0.0,0.0,0.0,0.0,0.0,0.0,0.0,0.0,0.0,0.0,0.0,0.0,0.0,0.0,0.0,0.0,0.0,0.0,0.0,0.0,0.0,0.0,0.0,0.0,0.0,0.0,0.0,0.0,0.0,0.0,0.0,0.0,0.0,0.0,0.0,0.0,0.0,0.0,0.0,0.0,0.0,0.0,0.0,0.0,0.0,0.0,0.0,0.0,0.0,0.0,0.0,0.0,0.0,0.0,0.0,0.0,0.0,0.0,0.0,-5.0317,-5.0331,-4.9884,-4.94,-4.8942,-4.7364,-4.638,0.0,0.0,0.0,0.0,0.0,0.0,0.0,0.0,0.0,0.0,0.0,0.0,0.0,0.0,0.0,0.0,0.0,0.0,0.0,0.0,0.0,0.0,0.0,0.0,0.0,0.0,0.0,0.0,0.0,0.0,0.0,0.0,0.0,0.0,0.0,0.0,0.0,0.0,0.0,0.0,0.0,0.0,0.0,0.0,0.0,0.0,0.0,0.0,0.0,0.0,0.0,0.0,0.0,0.0,0.0,0.0,0.0,0.0,0.0,0.0,0.0,0.0,0.0,0.0,0.0,0.0,0.0,0.0,0.0,0.0,0.0,0.0,0.0,0.0,0.0,0.0,0.0,0.0,0.0,0.0,0.0,0.0,0.0,0.0,0.0,0.0,0.0,0.0,0.0,0.0,0.0,0.0,0.0,0.0,0.0,0.0,0.0,0.0,0.0,0.0,0.0,0.0,0.0,0.0,0.0,0.0,0.0,0.0,-4.9898,-5.0298,-4.9726,-4.9384,-4.928,-4.745,-4.6697,0.0,0.0,0.0,0.0,0.0,0.0,0.0,0.0,0.0,0.0,0.0,0.0,0.0,0.0,0.0,0.0,0.0,0.0,0.0,0.0,0.0,0.0,0.0,0.0,0.0,0.0,0.0,0.0,0.0,0.0,0.0,0.0,0.0,0.0,0.0,0.0,0.0,0.0,0.0,0.0,0.0,0.0,0.0,0.0,0.0,0.0,0.0,0.0,0.0,0.0,0.0,0.0,0.0,0.0,0.0,0.0,0.0,0.0,0.0,0.0,0.0,0.0,0.0,0.0,0.0,0.0,0.0,0.0,0.0,0.0,0.0,0.0,0.0,0.0,0.0,0.0,0.0,0.0,0.0,0.0,0.0,0.0,0.0,0.0,0.0,0.0,0.0,0.0,0.0,0.0,0.0,0.0,0.0,0.0,0.0,0.0,0.0,0.0,0.0,0.0,0.0,0.0,0.0,0.0,0.0,0.0,0.0,0.0,-4.9364,-4.9757,-4.9529,-4.9273,-4.901,-4.791,-4.7048,0.0,0.0,0.0,0.0,0.0,0.0,0.0,0.0,0.0,0.0,0.0,0.0,0.0,0.0,0.0,0.0,0.0,0.0,0.0,0.0,0.0,0.0,0.0,0.0,0.0,0.0,0.0,0.0,0.0,0.0,0.0,0.0,0.0,0.0,0.0,0.0,0.0,0.0,0.0,0.0,0.0,0.0,0.0,0.0,0.0,0.0,0.0,0.0,-4.7935,0.0,0.0,0.0,0.0,0.0,0.0,0.0,0.0,0.0,0.0,0.0,0.0,0.0,0.0,0.0,0.0,0.0,0.0,0.0,0.0,0.0,0.0,0.0,0.0,0.0,0.0,0.0,0.0,0.0,0.0,0.0,0.0,0.0,0.0,0.0,0.0,0.0,0.0,0.0,0.0,0.0,0.0,0.0,0.0,0.0,0.0,0.0,0.0,0.0,0.0,0.0,0.0,0.0,0.0,0.0,0.0,0.0,0.0,0.0,-4.8607,-4.8975,-4.8734,-4.8348,-4.7793,-4.7333,-4.699,0.0,0.0,0.0,0.0,0.0,0.0,0.0,0.0,0.0,0.0,0.0,0.0,0.0,0.0,0.0,0.0,0.0,0.0,0.0,0.0,0.0,0.0,0.0,0.0,0.0,0.0,0.0,0.0,0.0,0.0,0.0,0.0,0.0,0.0,0.0,0.0,0.0,0.0,0.0,0.0,0.0,0.0,0.0,0.0,0.0,0.0,0.0,0.0,0.0,0.0,0.0,0.0,0.0,0.0,0.0,0.0,0.0,0.0,0.0,0.0,0.0,0.0,0.0,0.0,0.0,0.0,0.0,0.0,0.0,0.0,0.0,0.0,0.0,0.0,0.0,0.0,0.0,0.0,0.0,0.0,0.0,0.0,0.0,0.0,0.0,0.0,0.0,0.0,0.0,0.0,0.0,0.0,0.0,0.0,0.0,0.0,0.0,0.0,0.0,0.0,0.0,0.0,0.0,0.0,0.0,0.0,0.0,-4.7757,-4.7607,-4.821,-4.778,-4.7181,-4.6531,-4.6513,-4.667,-4.6998,0.0,0.0,0.0,0.0,0.0,0.0,0.0,0.0,0.0,0.0,0.0,0.0,0.0,0.0,0.0,0.0,0.0,0.0,0.0,0.0,0.0,0.0,0.0,0.0,0.0,0.0,0.0,0.0,0.0,0.0,0.0,0.0,0.0,0.0,0.0,0.0,0.0,0.0,-4.9853,-4.918,0.0,0.0,0.0,0.0,0.0,0.0,0.0,0.0,-4.7619,0.0,0.0,0.0,0.0,0.0,0.0,0.0,0.0,0.0,0.0,0.0,0.0,0.0,0.0,0.0,0.0,0.0,0.0,0.0,0.0,0.0,0.0,0.0,0.0,0.0,0.0,0.0,0.0,0.0,0.0,0.0,0.0,0.0,0.0,0.0,0.0,0.0,0.0,0.0,0.0,0.0,0.0,0.0,0.0,0.0,0.0,0.0,0.0,0.0,0.0,0.0,0.0,0.0,0.0,0.0,0.0,-4.7283,-4.582,-4.6021,-4.7966,-4.7164,-4.6624,-4.6513,-4.6513,-4.6151,-4.5428,0.0,0.0,0.0,0.0,0.0,0.0,0.0,0.0,0.0,0.0,0.0,0.0,0.0,0.0,0.0,0.0,0.0,0.0,0.0,0.0,0.0,0.0,0.0,0.0,0.0,0.0,0.0,0.0,0.0,0.0,0.0,0.0,0.0,0.0,0.0,0.0,0.0,0.0,0.0,-4.9013,-4.928,0.0,0.0,0.0,0.0,0.0,0.0,0.0,0.0,-4.7342,0.0,0.0,0.0,0.0,0.0,0.0,0.0,0.0,0.0,0.0,0.0,0.0,0.0,0.0,0.0,0.0,0.0,0.0,0.0,0.0,0.0,0.0,0.0,0.0,0.0,0.0,0.0,0.0,0.0,0.0,0.0,0.0,0.0,0.0,0.0,0.0,0.0,0.0,0.0,0.0,0.0,0.0,0.0,0.0,0.0,0.0,0.0,0.0,0.0,0.0,0.0,0.0,0.0,0.0,0.0,-4.5622,-4.526,-4.5563,-4.6654,-4.6164,-4.5658,-4.5231,-4.5212,-4.4758,0.0,0.0,0.0,0.0,0.0,0.0,0.0,0.0,0.0,0.0,0.0,0.0,0.0,0.0,0.0,0.0,0.0,0.0,0.0,0.0,0.0,0.0,0.0,0.0,0.0,0.0,0.0,0.0,0.0,0.0,0.0,0.0,0.0,0.0,0.0,0.0,0.0,0.0,0.0,0.0,-4.8288,-4.8799,-4.8749,0.0,0.0,0.0,0.0,0.0,0.0,-4.7667,-4.7374,0.0,0.0,0.0,0.0,0.0,0.0,0.0,0.0,0.0,0.0,0.0,0.0,0.0,0.0,0.0,0.0,0.0,0.0,0.0,0.0,0.0,0.0,0.0,0.0,0.0,0.0,0.0,0.0,0.0,0.0,0.0,0.0,0.0,0.0,0.0,0.0,0.0,0.0,0.0,0.0,0.0,0.0,0.0,0.0,0.0,0.0,0.0,0.0,0.0,0.0,0.0,0.0,0.0,0.0,0.0,-4.4501,-4.4662,-4.498,-4.5462,-4.5196,-4.4711,-4.4023,-4.3856,-4.3401,0.0,0.0,0.0,0.0,0.0,0.0,0.0,0.0,0.0,0.0,0.0,0.0,0.0,0.0,0.0,0.0,0.0,0.0,0.0,0.0,0.0,0.0,0.0,0.0,0.0,0.0,0.0,0.0,0.0,0.0,0.0,0.0,0.0,0.0,0.0,0.0,0.0,0.0,0.0,0.0,0.0,-4.8457,-4.8457,-4.8381,0.0,0.0,0.0,0.0,-4.8105,-4.7847,0.0,0.0,0.0,0.0,0.0,0.0,0.0,0.0,0.0,0.0,0.0,0.0,0.0,0.0,0.0,0.0,0.0,0.0,0.0,0.0,0.0,0.0,0.0,0.0,0.0,0.0,0.0,0.0,0.0,0.0,0.0,0.0,0.0,0.0,0.0,0.0,0.0,0.0,0.0,0.0,0.0,0.0,0.0,0.0,0.0,0.0,0.0,0.0,0.0,0.0,0.0,0.0,0.0,0.0,0.0,0.0,-4.4369,-4.294,-4.3222,-4.5331,-4.4619,-4.4098,-4.4005,-4.3318,-4.286,0.0,0.0,0.0,0.0,0.0,0.0,0.0,0.0,0.0,0.0,0.0,0.0,0.0,0.0,0.0,0.0,0.0,0.0,0.0,0.0,0.0,0.0,0.0,0.0,0.0,0.0,0.0,0.0,0.0,0.0,0.0,0.0,0.0,0.0,0.0,0.0,0.0,0.0,0.0,0.0,0.0,-4.934,-4.9358,-4.9243,-4.9196,0.0,0.0,-4.9146,-4.8952,-4.8302,0.0,0.0,0.0,0.0,0.0,0.0,0.0,0.0,0.0,0.0,0.0,0.0,0.0,0.0,0.0,0.0,0.0,0.0,0.0,0.0,0.0,0.0,0.0,0.0,0.0,0.0,0.0,0.0,0.0,0.0,0.0,0.0,0.0,0.0,0.0,0.0,0.0,0.0,0.0,0.0,0.0,0.0,0.0,0.0,0.0,0.0,0.0,0.0,0.0,0.0,0.0,0.0,0.0,0.0,0.0,-4.2334,-4.3037,-4.2712,-4.3291,-4.4733,-4.4348,-4.407,-4.4005,-4.3225,-4.2559,0.0,0.0,0.0,0.0,0.0,0.0,0.0,0.0,0.0,0.0,0.0,0.0,0.0,0.0,0.0,0.0,0.0,0.0,0.0,0.0,0.0,0.0,0.0,0.0,0.0,0.0,0.0,0.0,0.0,0.0,0.0,0.0,0.0,0.0,0.0,0.0,0.0,0.0,0.0,0.0,0.0,0.0,-4.9434,-4.9459,0.0,0.0,0.0,-4.923,-4.9137,0.0,0.0,0.0,0.0,0.0,0.0,0.0,0.0,0.0,0.0,0.0,0.0,0.0,0.0,0.0,0.0,0.0,0.0,0.0,0.0,0.0,0.0,0.0,0.0,0.0,0.0,0.0,0.0,0.0,0.0,0.0,0.0,0.0,0.0,0.0,0.0,0.0,0.0,0.0,0.0,0.0,0.0,0.0,0.0,0.0,0.0,0.0,0.0,0.0,0.0,0.0,0.0,0.0,0.0,0.0,0.0,0.0,-4.1704,-4.2495,-4.325,-4.3997,-4.4132,-4.4169,-4.4036,-4.3036,0.0,0.0,0.0,0.0,0.0,0.0,0.0,0.0,0.0,0.0,0.0,0.0,0.0,0.0,0.0,0.0,0.0,0.0,0.0,0.0,0.0,0.0,0.0,0.0,0.0,0.0,0.0,-4.4344,0.0,0.0,0.0,0.0,0.0,0.0,0.0,0.0,0.0,0.0,0.0,0.0,0.0,0.0,-4.8758,-4.9415,-4.9509,-4.9474,0.0,0.0,-4.9311,-4.9166,-4.915,-4.9116,0.0,0.0,0.0,0.0,0.0,0.0,0.0,0.0,0.0,0.0,0.0,0.0,0.0,0.0,0.0,0.0,0.0,0.0,0.0,0.0,0.0,0.0,0.0,0.0,0.0,0.0,0.0,0.0,0.0,0.0,0.0,0.0,0.0,0.0,0.0,0.0,0.0,0.0,0.0,0.0,0.0,0.0,0.0,0.0,0.0,0.0,0.0,0.0,0.0,0.0,0.0,0.0,0.0,0.0,-4.0891,-4.091,-4.1614,-4.2416,-4.3264,-4.3882,-4.4184,-4.4147,-4.2564,-4.1646,0.0,0.0,0.0,0.0,0.0,0.0,0.0,0.0,0.0,0.0,0.0,0.0,0.0,0.0,0.0,0.0,0.0,0.0,0.0,0.0,0.0,0.0,0.0,0.0,0.0,0.0,0.0,0.0,0.0,0.0,0.0,0.0,0.0,0.0,0.0,0.0,0.0,0.0,0.0,0.0,0.0,-4.9415,-4.949,-4.9509,-4.9509,0.0,-4.9474,-4.944,-4.9308,-4.9292,-4.9246,-4.9118,0.0,0.0,0.0,0.0,0.0,0.0,0.0,0.0,0.0,0.0,0.0,0.0,0.0,0.0,0.0,0.0,0.0,0.0,0.0,0.0,0.0,0.0,0.0,0.0,0.0,0.0,0.0,0.0,0.0,0.0,0.0,0.0,0.0,0.0,0.0,0.0,0.0,0.0,0.0,0.0,0.0,0.0,0.0,0.0,0.0,0.0,0.0,0.0,0.0,0.0,0.0,0.0,0.0,-4.029,-4.0797,-4.1565,-4.2364,-4.3184,-4.3932,-4.4285,-4.4199,-4.2549,-4.1649,0.0,0.0,0.0,0.0,0.0,0.0,0.0,0.0,0.0,0.0,0.0,0.0,0.0,0.0,0.0,0.0,0.0,0.0,0.0,0.0,0.0,0.0,0.0,0.0,0.0,0.0,0.0,0.0,-4.4487,-4.4482,-4.4482,0.0,0.0,0.0,0.0,0.0,0.0,0.0,0.0,0.0,0.0,-4.8788,-4.8698,-4.8701,0.0,0.0,-4.8382,-4.8652,-4.8559,-4.899,-4.9262,-4.9118,-4.8822,0.0,0.0,0.0,0.0,0.0,0.0,0.0,0.0,0.0,0.0,0.0,0.0,0.0,0.0,0.0,0.0,0.0,0.0,0.0,0.0,0.0,0.0,0.0,0.0,0.0,0.0,0.0,0.0,0.0,0.0,0.0,0.0,0.0,0.0,0.0,0.0,0.0,0.0,0.0,0.0,0.0,0.0,0.0,0.0,0.0,0.0,0.0,0.0,0.0,0.0,0.0,0.0,-3.9871,-4.044,-4.146,-4.2259,-4.2837,-4.3854,-4.4358,-4.4207,-4.2592,-4.1678,0.0,0.0,0.0,0.0,0.0,0.0,0.0,0.0,0.0,0.0,0.0,0.0,0.0,0.0,0.0,0.0,0.0,0.0,0.0,0.0,0.0,0.0,0.0,0.0,0.0,0.0,0.0,0.0,-4.4482,-4.4482,-4.4482,0.0,0.0,0.0,0.0,0.0,0.0,0.0,0.0,0.0,0.0,-4.8367,-4.8284,-4.8018,-4.765,-4.7072,-4.7462,-4.7917,-4.8084,-4.8609,-4.8992,-4.9127,0.0,0.0,0.0,0.0,0.0,0.0,0.0,0.0,0.0,0.0,0.0,0.0,0.0,0.0,0.0,0.0,0.0,0.0,0.0,0.0,0.0,0.0,0.0,0.0,0.0,0.0,0.0,-4.651,0.0,0.0,-4.5688,0.0,0.0,0.0,0.0,0.0,0.0,0.0,0.0,0.0,0.0,0.0,0.0,0.0,0.0,0.0,0.0,0.0,0.0,0.0,0.0,0.0,0.0,-3.9608,-3.9664,-4.1197,-4.2004,-4.2079,-4.3582,-4.4368,-4.4225,-4.2603,-4.164,-4.1549,0.0,0.0,0.0,0.0,0.0,0.0,0.0,0.0,0.0,0.0,0.0,0.0,0.0,0.0,0.0,0.0,0.0,0.0,0.0,0.0,0.0,0.0,0.0,0.0,0.0,0.0,-4.4482,-4.4482,-4.4501,0.0,0.0,0.0,0.0,0.0,0.0,0.0,0.0,0.0,-4.9719,-4.9041,-4.8409,-4.8357,-4.7588,-4.6993,-4.6955,-4.6978,-4.7274,-4.8025,-4.8176,-4.8446,0.0,0.0,0.0,0.0,0.0,0.0,0.0,0.0,0.0,0.0,0.0,0.0,0.0,0.0,0.0,0.0,0.0,0.0,0.0,0.0,0.0,0.0,0.0,0.0,0.0,0.0,0.0,-4.5513,-4.5434,0.0,0.0,0.0,0.0,0.0,0.0,0.0,0.0,0.0,0.0,0.0,-4.5761,-4.5059,0.0,0.0,0.0,0.0,0.0,0.0,0.0,0.0,0.0,0.0,0.0,0.0,-3.9608,-3.9683,-4.1191,-4.1986,-4.2042,-4.3624,-4.4201,-4.3587,-4.2455,-4.1264,-4.0044,0.0,0.0,0.0,0.0,0.0,0.0,0.0,0.0,0.0,0.0,0.0,0.0,0.0,0.0,0.0,0.0,0.0,0.0,0.0,0.0,0.0,0.0,0.0,0.0,0.0,-4.4482,0.0,0.0,0.0,0.0,0.0,0.0,0.0,0.0,0.0,0.0,0.0,-4.9407,-4.9083,-4.8825,-4.8193,-4.6927,-4.6482,-4.6055,0.0,0.0,0.0,0.0,0.0,0.0,0.0,0.0,0.0,0.0,0.0,0.0,0.0,0.0,-4.7531,-4.5957,-4.538,-4.4888,-4.4102,0.0,0.0,0.0,0.0,0.0,0.0,0.0,0.0,0.0,0.0,0.0,0.0,0.0,0.0,-4.4981,0.0,-4.4881,0.0,0.0,0.0,0.0,0.0,0.0,0.0,0.0,-4.5058,-4.4929,-4.491,-4.4203,-4.3886,0.0,-4.2671,-4.2356,0.0,0.0,0.0,0.0,0.0,0.0,0.0,0.0,-3.9608,-3.9646,-4.091,-4.1573,-4.1629,-4.2924,-4.3347,-4.2754,-4.1902,-4.0763,-3.9325,-3.9188,-3.9156,0.0,0.0,0.0,0.0,0.0,0.0,0.0,0.0,0.0,0.0,0.0,0.0,0.0,0.0,0.0,0.0,0.0,0.0,0.0,0.0,0.0,0.0,0.0,-4.4482,0.0,0.0,0.0,0.0,0.0,0.0,0.0,0.0,0.0,-4.8474,-4.9434,-4.9759,-4.8884,-4.8529,-4.782,-4.6278,0.0,0.0,0.0,0.0,0.0,0.0,0.0,-4.6813,-4.7593,-4.7953,-4.8368,-4.9094,-4.9279,-4.9279,-4.9228,0.0,0.0,-4.6893,-4.6235,-4.5654,-4.4933,-4.5186,-4.5151,-4.4114,-4.4536,-4.5115,0.0,0.0,0.0,0.0,0.0,0.0,0.0,0.0,-4.5314,-4.5148,0.0,-4.4889,0.0,0.0,0.0,0.0,-4.5626,-4.4827,0.0,0.0,-4.3704,-4.3305,-4.3343,-4.3272,-4.324,-4.3169,-4.2148,-4.1554,-4.1351,-4.096,0.0,0.0,0.0,0.0,0.0,0.0,-3.9608,-3.9627,-4.0403,-4.0797,-4.0835,-4.1591,-4.1978,-4.1849,-4.102,-4.0208,-3.9442,-3.9288,-3.9256,-3.9391,-3.9202,0.0,0.0,0.0,0.0,0.0,0.0,0.0,0.0,0.0,0.0,0.0,0.0,0.0,0.0,0.0,0.0,0.0,0.0,0.0,0.0,-4.4496,0.0,0.0,0.0,0.0,0.0,0.0,0.0,0.0,0.0,0.0,-4.8636,-4.9442,-4.9815,-4.9125,0.0,0.0,0.0,0.0,-4.4725,-4.4712,-4.4592,-4.4796,-4.5543,-4.566,-4.596,-4.6824,0.0,0.0,-4.9099,-4.9334,-4.9384,-4.9268,-4.8692,-4.8177,-4.8098,-4.7581,-4.6842,-4.5714,-4.5352,-4.4917,-4.4261,-4.4735,-4.5203,-4.6187,0.0,0.0,0.0,0.0,-4.5773,-4.5723,-4.5657,-4.5657,-4.5258,-4.4622,-4.4603,0.0,0.0,0.0,0.0,0.0,0.0,-4.3659,-4.3672,-4.3421,-4.3305,-4.3279,-4.2505,-4.2163,-4.2117,-4.0968,-4.0393,-4.0311,-4.0066,-3.9927,-3.9946,0.0,0.0,0.0,0.0,-3.9608,-3.9646,-4.0384,-4.0797,-4.0797,-4.1591,-4.171,-4.1147,-4.0282,-3.9713,-3.9488,-3.9386,-3.936,-3.9405,-3.9346,0.0,0.0,0.0,0.0,0.0,0.0,0.0,0.0,0.0,0.0,0.0,0.0,0.0,0.0,0.0,0.0,0.0,0.0,0.0,-4.4482,-4.4597,-4.4909,0.0,0.0,0.0,0.0,0.0,0.0,0.0,0.0,0.0,-4.884,-4.9122,-4.9071,0.0,0.0,-4.65,-4.559,-4.5197,-4.4943,-4.4865,-4.4719,0.0,-4.4947,-4.4908,-4.512,-4.5941,-4.6786,-4.741,-4.7639,-4.8161,-4.857,-4.8521,-4.8514,-4.8477,-4.8402,-4.771,-4.7004,-4.6585,-4.6342,-4.6106,-4.5912,-4.5868,-4.5846,-4.5807,-4.5807,-4.5807,-4.5812,-4.5771,-4.5462,-4.532,-4.53,-4.4952,-4.4508,-4.4018,-4.4025,-4.374,-4.3255,-4.3248,0.0,0.0,0.0,-4.2783,-4.2763,-4.2454,-4.2299,-4.2254,-4.1574,-4.1227,-4.1192,-4.0329,-3.9884,-3.9892,-3.9691,-3.9608,-3.9608,0.0,0.0,-3.9608,-3.9608,-3.9608,-3.9627,-4.0096,-4.0309,-4.0328,-4.0797,-4.0816,-4.0328,-3.9802,-3.9546,-3.9546,-3.9469,-3.9457,-3.9482,-3.9431,-3.9399,0.0,0.0,0.0,0.0,0.0,0.0,0.0,0.0,0.0,0.0,0.0,-4.4473,-4.4501,0.0,0.0,0.0,-4.4632,-4.4627,-4.4597,-4.5014,0.0,0.0,0.0,0.0,0.0,0.0,0.0,-4.9884,-4.9822,-4.9496,-4.8982,-4.8422,-4.7876,-4.733,-4.6844,-4.6192,-4.5306,0.0,-4.508,-4.4998,-4.4858,-4.4757,-4.4712,-4.4632,-4.4847,-4.558,-4.6129,-4.6636,-4.6974,-4.7425,-4.7706,-4.7755,-4.7915,-4.8088,-4.8088,-4.7636,-4.7245,-4.712,-4.6934,-4.6731,-4.6637,-4.6241,-4.5844,-4.5807,-4.5807,-4.5807,-4.5807,-4.5749,-4.5007,-4.4671,-4.4536,-4.3743,-4.3343,-4.3208,-4.3189,-4.3169,-4.3092,-4.3111,0.0,-4.3053,-4.228,-4.1912,-4.1874,-4.1139,-4.0797,-4.079,-4.0576,-4.0473,-4.0465,-4.0051,-3.987,-3.9859,-3.9698,-3.9608,-3.9608,-3.9608,-3.9608,-3.9608,-3.9608,-3.9608,-3.9608,-3.9608,-3.9608,-3.9608,-3.9608,-3.9608,-3.9608,-3.9608,-3.9608,-3.9608,-3.9546,-3.9533,-3.9589,-3.9464,-3.9444,-3.9495,0.0,0.0,0.0,0.0,0.0,0.0,0.0,0.0,0.0,0.0,0.0,0.0,0.0,0.0,0.0,-4.4878,0.0,-4.4832,-4.5723,0.0,0.0,0.0,-4.7801,-4.8649,-4.8884,-4.9264,-4.9949,0.0,0.0,-4.8919,-4.7494,-4.6481,-4.6405,-4.6405,-4.6137,-4.5403,-4.5192,-4.5114,-4.5114,-4.501,-4.487,-4.4789,-4.4706,-4.4872,-4.5444,-4.5604,-4.5885,-4.6542,-4.6828,-4.688,-4.7049,-4.7171,-4.7405,-4.7424,-4.7562,-4.7548,-4.7259,-4.7039,-4.6832,-4.6553,-4.5893,-4.5304,-4.5807,-4.5807,-4.5807,-4.5807,-4.578,-4.5613,-4.5162,-4.4574,-4.4388,-4.3537,-4.2318,-4.2318,-4.1951,-4.139,-4.1416,-4.139,-4.1371,-4.1184,-4.1081,-4.1087,-4.0893,-4.0797,-4.0784,-4.0422,-4.0278,-4.0251,-3.9859,-3.9656,-3.9686,-3.9626,-3.9608,-3.9608,-3.9608,-3.9608,-3.9608,-3.9608,-3.9608,-3.9608,-3.9608,-3.9608,-3.9608,-3.9608,-3.9608,-3.9608,-3.9608,-3.9608,-3.9608,-3.9577,-3.9596,-3.9608,-3.9564,-3.9552,-3.9583,-3.952,0.0,0.0,0.0,0.0,0.0,0.0,0.0,0.0,0.0,-4.4482,-4.4482,0.0,-4.4551,0.0,-4.5514,-4.5979,-4.5874,-4.6707,0.0,0.0,-4.8308,-4.872,-4.9775,-4.984,-4.9688,-4.9365,-4.9202,-4.8582,-4.7264,-4.6768,-4.6271,-4.5679,-4.5583,-4.5507,-4.5316,-4.5286,-4.5265,-4.5224,-4.5136,-4.5057,-4.4979,-4.4821,-4.4734,-4.4773,-4.4796,-4.4857,-4.5064,-4.5608,-4.6204,-4.6865,-4.737,-4.7797,-4.8124,-4.7682,-4.7004,-4.6737,-4.6485,-4.6295,-4.6211,-4.5432,-4.4738,-4.5594,-4.5258,-4.5278,-4.5045,-4.4678,-4.4697,-4.4427,-4.3962,-4.3247,-4.2357,-4.1487,-4.1454,-4.1222,-4.0816,-4.0797,-4.0797,-4.0797,-4.0797,-4.0797,-4.0797,-4.0797,-4.0746,-4.066,-4.0347,-4.0158,-4.006,-3.9743,-3.9608,-3.9608,-3.9608,-3.9608,-3.9608,-3.9608,-3.9608,-3.9608,-3.9608,-3.9608,-3.9608,-3.9608,-3.9608,-3.9608,-3.9608,-3.9608,-3.9608,-3.9608,-3.9608,-3.9608,-3.9608,-3.9608,-3.9608,-3.9608,-3.9608,-3.9608,-3.9552,-3.9571,0.0,0.0,0.0,0.0,0.0,0.0,0.0,0.0,0.0,0.0,0.0,-4.4815,-4.5318,-4.6033,-4.6546,-4.6807,-4.7696,-4.8471,-4.8929,-4.92,-4.9593,-5.0252,-4.9918,-4.9506,-4.9156,-4.843,-4.757,-4.6615,-4.6175,-4.5812,-4.5354,-4.5277,-4.5277,-4.5277,-4.5277,-4.5277,-4.5277,-4.5224,-4.517,-4.5114,-4.4919,-4.4732,-4.4619,-4.4592,-4.4584,-4.4515,-4.4871,-4.5341,-4.58,-4.6333,-4.6731,-4.6904,-4.636,-4.577,-4.5406,-4.4738,-4.4563,-4.5342,-4.4591,-4.3632,-4.5084,-4.4439,-4.442,-4.4001,-4.3305,-4.3169,-4.3131,-4.3034,-4.1583,-4.0893,-4.0797,-4.0797,-4.0797,-4.0797,-4.0797,-4.0797,-4.0797,-4.0797,-4.0797,-4.0797,-4.0759,-4.0686,-4.0489,-4.0269,-4.007,-3.9911,-3.9691,-3.9608,-3.9608,-3.9608,-3.9608,-3.9608,-3.9608,-3.9608,-3.9608,-3.9608,-3.9608,-3.9608,-3.9608,-3.9608,-3.9608,-3.9608,-3.9608,-3.9608,-3.9608,-3.9608,-3.9608,-3.9608,-3.9608,-3.9608,-3.9608,-3.9608,-3.9608,-3.9608,-3.9608,0.0,-3.9608,0.0,0.0,0.0,0.0,0.0,0.0,0.0,0.0,-4.4832,-4.5268,-4.6152,-4.6576,-4.7086,-4.7719,-4.8678,-4.9263,-4.9251,-4.9882,-5.0302,-5.0264,-4.9595,-4.9071,-4.8945,-4.7513,-4.6481,-4.6309,-4.564,-4.5125,-4.5048,-4.4914,-4.48,-4.4953,-4.5116,-4.5277,-4.5277,-4.5277,-4.5254,-4.5125,-4.501,-4.4833,-4.4612,-4.4485,-4.4471,-4.4143,-4.4139,-4.42,-4.4327,-4.4696,-4.4931,-4.4727,-4.4469,-4.4127,-4.3827,-4.2682,-4.2335,-4.3768,-4.3314,-4.2259,-4.3692,-4.3556,-4.355,-4.344,-4.3247,-4.255,-4.2241,-4.2222,-4.1893,-4.1409,-4.0816,-4.0797,-4.0797,-4.0797,-4.0797,-4.0797,-4.0797,-4.0797,-4.0797,-4.081,-4.0639,-4.0546,-4.0481,-4.0129,-3.9927,-3.9892,-3.9691,-3.9608,-3.9608,-3.9608,-3.9608,-3.9608,-3.9608,-3.9608,-3.9608,0.0,0.0,0.0,-3.9608,-3.9608,-3.9608,-3.9608,-3.9608,-3.9608,-3.9608,0.0,-3.9608,-3.9608,-3.9608,-3.9608,-3.9608,0.0,0.0,0.0,0.0,0.0,0.0,0.0,0.0,0.0,0.0,0.0,-4.4611,-4.4672,-4.4731,-4.5539,-4.6147,-4.638,-4.772,-4.8659,-4.8808,-4.9583,-5.0073,-5.0073,-5.0206,-5.0302,-5.0264,-4.9576,-4.8831,-4.8105,-4.7131,-4.6252,-4.5545,-4.4781,-4.4255,-4.4216,-4.3692,-4.3291,-4.331,-4.4437,-4.522,-4.5277,-4.5163,-4.5208,-4.5125,-4.5004,-4.4623,-4.4068,-4.3756,-4.3454,-4.2862,-4.257,-4.2706,-4.3085,-4.3278,-4.3451,-4.3603,-4.3116,-4.2537,-4.2213,-4.1361,-4.1035,-4.2047,-4.1577,-4.0817,-4.3053,-4.2647,-4.2647,-4.2434,0.0,-4.1583,-4.1409,-4.1416,-4.1409,-4.1177,-4.0816,-4.0797,-4.0797,-4.0797,-4.0797,-4.0797,-4.0797,-4.0797,-4.0797,-4.0784,-4.0591,-4.0468,-4.0339,-4.004,-3.9867,-3.9743,-3.9662,-3.9608,-3.9608,-3.9608,-3.9608,-3.9608,-3.9608,-3.9608,-3.9608,-3.9608,-3.9608,-3.9608,-3.9608,-3.9608,-3.9608,-3.9608,-3.9608,-3.9608,-3.9608,0.0,0.0,0.0,0.0,0.0,0.0,0.0,0.0,-3.9608,0.0,-3.9608,-3.9608,-4.029,-4.1835,-4.1986,-4.2718,-4.4364,-4.4667,-4.484,-4.4883,-4.5491,-4.6202,-4.7041,-4.7957,-4.8793,-4.9595,-5.0073,-5.0302,-5.0302,-5.0302,-5.0302,-5.0225,-4.9576,-4.8582,-4.7341,-4.6424,-4.5468,-4.4227,-4.373,-4.3414,-4.3395,-4.307,-4.2756,-4.2851,-4.3501,-4.4055,-4.4055,-4.4055,-4.4053,-4.3982,-4.3971,-4.3811,-4.3149,-4.2887,-4.2586,-4.2034,-4.1777,-4.1785,-4.2073,-4.2114,-4.2143,-4.2083,-4.1525,-4.0874,-4.058,-3.9912,-3.9514,-3.993,-3.9948,-3.9878,-4.2434,-4.1796,-4.1777,-4.139,-4.0797,-4.0797,-4.0797,-4.0797,0.0,0.0,0.0,-4.0797,-4.0797,-4.0797,-4.0797,-4.0797,-4.081,-4.0771,-4.0759,-4.0733,-4.0496,-4.0304,-4.0129,-3.9927,-3.9773,-3.962,-3.9608,-3.9608,-3.9608,-3.9608,-3.9608,-3.9608,-3.9608,-3.9608,-3.9608,-3.9608,-3.9608,-3.9608,-3.9608,-3.9608,-3.9608,-3.9608,-3.9608,-3.9608,-3.9608,-3.9608,-3.9608,-3.9608,-3.9608,-3.9608,-3.9608,-3.9608,-3.9608,-3.9608,-3.9608,-3.9608,-3.9608,-4.0234,-4.1667,-4.1929,-4.2744,-4.4452,-4.4776,-4.4955,-4.5103,-4.5347,-4.6061,-4.7455,-4.7712,-4.838,-4.971,-4.9862,-4.9862,-4.9862,-4.9862,-4.9786,-4.9595,-4.8926,-4.7696,-4.6309,-4.5316,-4.436,-4.308,-4.2698,-4.2565,-4.2545,-4.2354,-4.2354,-4.2412,-4.266,-4.2947,-4.2966,-4.3023,-4.287,-4.2832,-4.2879,-4.2637,-4.2321,-4.2018,-4.1737,-4.1371,-4.1045,-4.088,-4.0726,-4.08,-4.0672,-4.0429,-3.9926,-3.9404,-3.9203,-3.8698,-3.8209,-3.8281,-3.8717,-3.91,-4.1081,-4.0971,-4.0971,-4.0913,-4.0797,-4.0797,-4.0797,-4.0797,-4.0797,-4.0797,-4.0797,-4.0797,-4.0797,-4.0797,-4.0797,-4.0797,-4.079,-4.0612,-4.0546,-4.0512,-4.0148,-3.9977,-3.9916,-3.975,-3.9626,-3.9608,-3.9608,-3.9608,-3.9608,-3.9608,-3.9608,-3.9608,-3.9608,-3.9608,-3.9608,-3.9608,-3.9608,-3.9608,-3.9608,-3.9608,-3.9608,-3.9608,-3.9608,-3.9608,-3.9608,-3.9608,-3.9608,-3.9608,-3.9608,-3.9608,-3.9608,-3.9608,-3.9608,-3.9608,-3.9608,-3.9608,-3.9608,-4.0021,-4.0929,-4.161,-4.2823,-4.4619,-4.4889,-4.4943,-4.5122,-4.5862,-4.6443,-4.6699,-4.7349,-4.7865,-4.8151,-4.822,-4.8246,-4.8189,-4.817,-4.7895,-4.7245,-4.6462,-4.5583,-4.4551,-4.3634,-4.3157,-4.2717,-4.2087,-4.1705,-4.159,-4.1285,-4.075,-4.1017,-4.1886,-4.2698,-4.2794,-4.2794,-4.2794,-4.2603,-4.2775,-4.2314,-4.1592,-4.1177,-4.0704,-3.9973,-3.9597,-3.9319,-3.8988,-3.9085,-3.8953,-3.8725,-3.8495,-3.8477,-3.8462,-3.8281,-3.8209,-3.8209,-3.8372,-3.8409,-4.0797,-4.0797,-4.0797,-4.0797,-4.0797,-4.0797,-4.0797,-4.0797,-4.0797,-4.0797,-4.0797,-4.0797,-4.0797,-4.0797,-4.0797,-4.0733,-4.0639,-4.0527,-4.0449,-4.0321,-4.003,-3.9884,-3.9862,-3.9691,-3.9608,-3.9608,-3.9608,-3.9608,-3.9608,-3.9608,-3.9608,-3.9608,-3.9608,-3.9608,-3.9608,-3.9608,-3.9608,-3.9608,-3.9608,-3.9608,-3.9608,-3.9608,-3.9608,-3.9608,-3.9608,-3.9608,-3.9608,-3.9608,-3.9608,-3.9608,-3.9608,-3.9608,-3.9608,-3.9608,-3.9608,-3.9608,-3.9608,-3.9965,-4.076,-4.1535,-4.2376,-4.3234,-4.3465,-4.3763,-4.4307,-4.5257,-4.6023,-4.6443,-4.6882,-4.7292,-4.7731,-4.7788,-4.7788,-4.7788,-4.7406,-4.6929,-4.65,-4.5774,-4.48,-4.3577,-4.3042,-4.245,-4.1562,-4.1094,-4.0845,-4.0807,-4.0473,-4.032,-4.0291,-4.0805,-4.13,-4.1408,-4.1428,-4.1437,-4.1466,-4.1437,-4.1178,-4.0625,-4.021,-3.9744,-3.9175,-3.8818,-3.8515,-3.837,-3.8338,-3.8305,-3.8209,-3.8209,-3.8209,-3.8209,-3.8209,-3.8209,-3.8209,-3.8209,-3.8209,-4.0797,-4.0797,-4.0797,-4.0797,-4.0797,-4.0797,-4.0797,-4.0797,-4.0797,-4.0797,-4.081,-4.0765,-4.0733,-4.0726,-4.0699,-4.0576,-4.0449,-4.0392,-4.0278,-4.0129,-3.9935,-3.9845,-3.9823,-3.9656,-3.9608,-3.9608,-3.9608,-3.9608,-3.9608,-3.9608,-3.9608,-3.9608,-3.9608,-3.9608,-3.9608,-3.9608,-3.9608,-3.9608,-3.9608,-3.9608,-3.9608,-3.9608,-3.9608,-3.9608,-3.9608,-3.9608,-3.9608,-3.9608,-3.9608,-3.9608,-3.9608,-3.9608,-3.9608,-3.9608,-3.9608,-3.9608,-3.9608,-3.9946,-4.0741,-4.1366,-4.183,-4.2038,-4.2246,-4.2654,-4.3411,-4.4195,-4.5142,-4.6031,-4.6233,-4.6443,-4.6719,-4.6852,-4.6871,-4.6661,-4.608,-4.5468,-4.5316,-4.4819,-4.3902,-4.2526,-4.224,-4.1686,-4.0683,-4.032,-4.0301,-4.0263,-4.0166,-4.0127,-4.0087,-3.9943,-3.9933,-4.0057,-4.0127,-4.0183,-4.0127,-4.0174,-4.0062,-3.9781,-3.9421,-3.9124,-3.8811,-3.8467,-3.8242,-3.8225,-3.8209,-3.8225,-3.8209,-3.8209,-3.8209,-3.8209,-3.8209,-3.8119,-3.7901,-3.7631,-3.7848,-4.0797,-4.0797,-4.0797,-4.0797,-4.0797,-4.0797,-4.0797,-4.0797,-4.0797,-4.0797,-4.0784,-4.0605,-4.0527,-4.0496,-4.0347,-4.026,-4.0204,-4.004,-3.9956,-3.9914,-3.9727,-3.9626,-3.9638,-3.9602,-3.9608,-3.9608,-3.9608,-3.9608,-3.9608,-3.9608,-3.9608,-3.9608,-3.9608,-3.9608,-3.9608,-3.9608,-3.9608,-3.9608,-3.9608,-3.9608,-3.9608,-3.9608,-3.9608,-3.9608,-3.9608,-3.9608,-3.9608,-3.9608,-3.9608,-3.9608,-3.9608,-3.9608,-3.9608,-3.9608,-3.9608,-3.9608,-3.9608,-3.9946,-4.0685,-4.0872,-4.1261,-4.2065,-4.2108,-4.2286,-4.265,-4.2781,-4.3588,-4.4921,-4.5373,-4.5105,-4.4465,-4.4427,-4.4284,-4.3787,-4.3424,-4.2851,-4.2316,-4.1896,-4.1495,-4.0654,-4.0721,-4.0473,-4.0339,-4.0244,-4.0166,-3.9965,-3.9792,-3.9651,-3.9658,-3.9599,-3.9551,-3.9587,-3.9568,-3.958,-3.9611,-3.9568,-3.9532,-3.9331,-3.9045,-3.8803,-3.8585,-3.8403,-3.8209,-3.8209,-3.8209,-3.8209,-3.8136,-3.8209,-3.8136,-3.7866,-3.7866,-3.7919,-3.7267,-3.6653,-3.6707,-4.0797,-4.0797,-4.0797,-4.0797,-4.0797,-4.0797,-4.0797,-4.0797,-4.0797,-4.0797,-4.0778,-4.0583,-4.0496,-4.05,-4.0295,-4.0148,-4.002,-3.9946,-3.9845,-3.9738,-3.9638,-3.9608,-3.9608,-3.9608,-3.9608,-3.9608,-3.9608,-3.9608,-3.9608,-3.9608,-3.9608,-3.9608,-3.9608,-3.9608,-3.9608,-3.9608,-3.9608,-3.9608,-3.9608,-3.9364,-3.8939,-3.9345,-3.9608,-3.9608,-3.9608,-3.9608,-3.9608,-3.9608,-3.9608,-3.9608,-3.9608,-3.9608,-3.9608,-3.9608,-3.9608,-3.9608,-3.9608,-3.9739,-4.0078,-4.0096,-4.0253,-4.0653,-4.0695,-4.0979,-4.1594,-4.1718,-4.2297,-4.3341,-4.3715,-4.3633,-4.3228,-4.3231,-4.3157,-4.2775,-4.2354,-4.1877,-4.1562,-4.1074,-4.0635,-4.0339,-4.032,-4.0234,-4.0077,-3.9914,-3.9785,-3.9663,-3.9563,-3.9483,-3.9502,-3.9376,-3.9253,-3.9245,-3.9142,-3.9178,-3.9383,-3.9427,-3.9326,-3.9187,-3.8952,-3.8688,-3.8486,-3.8338,-3.8209,-3.8172,-3.81,-3.7883,-3.7502,-3.7466,-3.7412,-3.7142,-3.6816,-3.6671,-3.6345,-3.6021,-3.6168,-4.0797,-4.0797,-4.0797,-4.0797,-4.0797,-4.0797,-4.0797,-4.0797,-4.0797,-4.0797,-4.0784,-4.0583,-4.0465,-4.0389,-4.0214,-4.001,-3.9826,-3.9804,-3.9731,-3.962,-3.9608,-3.9608,-3.9608,-3.9608,-3.9608,-3.9608,-3.9608,-3.9608,-3.9608,-3.9608,-3.9608,-3.9608,-3.9608,-3.9608,-3.9608,-3.9608,-3.9608,-3.9608,-3.9608,-3.9176,-3.8507,-3.892,-3.9251,-3.9232,-3.9251,-3.9345,-3.9589,-3.9608,-3.9608,-3.9608,-3.9608,-3.9608,-3.9608,-3.9608,-3.9608,-3.9608,-3.9608,-3.9608,-3.9608,-3.9608,-3.9564,-3.9527,-3.9613,-3.991,-4.0431,-4.0707,-4.1041,-4.1556,-4.1855,-4.2013,-4.2237,-4.233,-4.2295,-4.2026,-4.1446,-4.1151,-4.1016,-4.0549,-4.0301,-4.0215,-4.0263,-4.0234,-4.0027,-3.9826,-3.9658,-3.9628,-3.9483,-3.9401,-3.9363,-3.9151,-3.8974,-3.8974,-3.8656,-3.8641,-3.9117,-3.9187,-3.9119,-3.899,-3.8763,-3.8505,-3.8238,-3.7994,-3.7662,-3.7299,-3.7537,-3.7413,-3.6834,-3.6616,-3.6526,-3.6001,-3.5659,-3.5532,-3.546,-3.5315,-3.502,-4.0797,-4.0797,-4.0797,-4.0797,-4.0797,-4.0797,-4.0797,-4.0797,-4.0797,-4.0797,-4.0778,-4.0598,-4.0408,-4.0204,-4.004,-3.9823,-3.9619,-3.9626,-3.9645,-3.9608,-3.9608,-3.9608,-3.9608,-3.9608,-3.9608,-3.9608,-3.9608,-3.9608,-3.9608,-3.9608,-3.9608,-3.9608,-3.9608,-3.9608,-3.9608,-3.9608,-3.9608,-3.9608,-3.9608,-3.9157,-3.8375,-3.8326,-3.8338,-3.8225,-3.8357,-3.8713,-3.9439,-3.9589,-3.9589,-3.9608,-3.9608,-3.9608,-3.9608,-3.9608,-3.9608,-3.9608,-3.9608,-3.9608,-3.9608,-3.9608,-3.9496,-3.9322,-3.9483,-3.9577,-3.9633,-3.9775,-3.9908,-3.9886,-4.0125,-4.0465,-4.1105,-4.1309,-4.1056,-4.0374,-4.0318,-4.0271,-4.0049,-4.0242,-4.0157,-4.0015,-4.0057,-4.0078,-4.0176,-4.0057,-3.9785,-3.9651,-3.9395,-3.9054,-3.8939,-3.8785,-3.8578,-3.8419,-3.8077,-3.7801,-3.8511,-3.8416,-3.8449,-3.8319,-3.8028,-3.811,-3.7614,-3.7135,-3.6708,-3.637,-3.6359,-3.6236,-3.5949,-3.5786,-3.5695,-3.5333,-3.4899,-3.4718,-3.4645,-3.3991,-3.3774,-4.0797,-4.0797,-4.0797,-4.0797,-4.0797,-4.0797,-4.0797,-4.0797,-4.0797,-4.0797,-4.079,-4.072,-4.0504,-4.0196,-4.0129,-3.9914,-3.9633,-3.9608,-3.9608,-3.9608,-3.9608,-3.9608,-3.9608,-3.9608,-3.9608,-3.9608,-3.9608,-3.9608,-3.9608,-3.9608,-3.9608,-3.9608,-3.9608,-3.9608,-3.9608,-3.9608,-3.9608,-3.9608,-3.9608,-3.8932,-3.7662,-3.7512,-3.7042,-3.6066,-3.6986,-3.7906,-3.8751,-3.877,-3.9014,-3.9589,-3.9608,-3.9608,-3.9608,-3.9608,-3.9608,-3.9608,-3.9608,-3.9608,-3.9608,-3.9608,-3.9564,-3.9483,-3.954,-3.9577,-3.9521,-3.9446,-3.9446,-3.9564,-3.9369,-3.9517,-3.984,-4.0204,-4.0276,-3.9998,-3.9984,-4.0005,-3.9933,-3.9975,-3.9954,-3.9717,-3.9544,-3.9339,-3.9433,-3.9189,-3.9045,-3.904,-3.8534,-3.8208,-3.7985,-3.7607,-3.7257,-3.7165,-3.6927,-3.6817,-3.7037,-3.7066,-3.7003,-3.6955,-3.6836,-3.6757,-3.6443,-3.6357,-3.6054,-3.5792,-3.5582,-3.5349,-3.5188,-3.4697,-3.4643,-3.4425,-3.3994,-3.4048,-3.3846,-3.3574,-3.3343,-4.0797,-4.0797,-4.0797,-4.0797,-4.0797,-4.0797,-4.0797,-4.0797,-4.0797,-4.0797,-4.0797,-4.0797,-4.0605,-4.0321,-4.0233,-4.002,-3.9696,-3.9638,-3.9608,-3.9608,-3.9608,-3.9608,-3.9608,-3.9608,-3.9608,-3.9608,-3.9608,-3.9608,-3.9608,-3.9608,-3.9608,-3.9608,-3.9608,-3.9608,-3.9608,-3.9608,-3.9608,-3.9608,-3.9608,-3.8782,-3.7275,-3.6817,-3.5897,-3.458,-3.5052,-3.6021,-3.7042,-3.7099,-3.7493,-3.8256,-3.8406,-3.865,-3.912,-3.9458,-3.9608,-3.9608,-3.9608,-3.9608,-3.9608,-3.9608,-3.9564,-3.9502,-3.9552,-3.9564,-3.9483,-3.9393,-3.9426,-3.947,-3.9354,-3.9188,-3.9322,-3.9545,-3.9635,-3.9611,-3.9712,-3.9724,-3.9599,-3.9616,-3.9616,-3.9489,-3.9248,-3.9054,-3.9036,-3.8943,-3.8937,-3.895,-3.819,-3.7675,-3.7528,-3.6875,-3.6285,-3.6266,-3.6083,-3.5936,-3.5881,-3.571,-3.6153,-3.6179,-3.6204,-3.5936,-3.5587,-3.5539,-3.5402,-3.5196,-3.4966,-3.4715,-3.4317,-3.3773,-3.352,-3.3411,-3.3502,-3.3647,-3.352,-3.3447,-3.3256,-4.0797,-4.0797,-4.0797,-4.079,-4.079,-4.0784,-4.079,-4.079,-4.081,-4.0784,-4.0784,-4.079,-4.066,-4.0473,-4.025,-4.0061,-3.9859,-3.9679,-3.9608,-3.9608,-3.9608,-3.9608,-3.9608,-3.9608,-3.9608,-3.9608,-3.9608,-3.9608,-3.9608,-3.9608,-3.9608,-3.9608,-3.9608,-3.9608,-3.9608,-3.9608,-3.9589,-3.9495,-3.9445,-3.8633,-3.7122,-3.6238,-3.5027,-3.3409,-3.272,-3.3052,-3.447,-3.4639,-3.524,-3.601,-3.6122,-3.6723,-3.8188,-3.9001,-3.9521,-3.9483,-3.9539,-3.9596,-3.9596,-3.9571,-3.9406,-3.9296,-3.9432,-3.9476,-3.9304,-3.9388,-3.9527,-3.9564,-3.9502,-3.9502,-3.9445,-3.9349,-3.9197,-3.9007,-3.9337,-3.9363,-3.9142,-3.91,-3.9218,-3.9249,-3.9163,-3.9318,-3.9408,-3.9274,-3.9213,-3.9101,-3.8329,-3.7604,-3.7429,-3.6597,-3.6207,-3.5991,-3.5481,-3.5027,-3.4715,-3.4491,-3.5151,-3.565,-3.5728,-3.5615,-3.5002,-3.4776,-3.4524,-3.4286,-3.4169,-3.3954,-3.3954,-3.3484,-3.3465,-3.3393,-3.3393,-3.3393,-3.3393,-3.3364,-3.3226,-4.0797,-4.079,-4.0746,-4.0713,-4.0713,-4.0674,-4.0668,-4.0687,-4.0707,-4.0707,-4.0674,-4.0707,-4.0605,-4.037,-4.0204,-4.0011,-3.9826,-3.9668,-3.9608,-3.9608,-3.9608,-3.9608,-3.9608,-3.9608,-3.9608,-3.9608,-3.9608,-3.9608,-3.9608,-3.9608,-3.9608,-3.9608,-3.9608,-3.9608,-3.957,-3.9589,-3.9333,-3.8702,-3.8633,-3.7822,-3.6189,-3.5303,-3.4087,-3.2521,-3.1589,-3.1187,-3.116,-3.2795,-3.4433,-3.5736,-3.5886,-3.6385,-3.7369,-3.8122,-3.854,-3.8721,-3.8976,-3.9207,-3.9296,-3.9202,-3.9092,-3.905,-3.9215,-3.9283,-3.9197,-3.9147,-3.9288,-3.9445,-3.9156,-3.8884,-3.905,-3.905,-3.9007,-3.9087,-3.9115,-3.9115,-3.896,-3.8946,-3.8927,-3.8927,-3.8796,-3.8718,-3.8792,-3.8836,-3.8894,-3.883,-3.7704,-3.6785,-3.6619,-3.5611,-3.4591,-3.4509,-3.417,-3.4202,-3.411,-3.4041,-3.4357,-3.4737,-3.4879,-3.4993,-3.4447,-3.4134,-3.3829,-3.3629,-3.3477,-3.3411,-3.3393,-3.3393,-3.3393,-3.3393,-3.3393,-3.3393,-3.3393,-3.3316,-3.3226,-4.0739,-4.0739,-4.0694,-4.0661,-4.0661,-4.0621,-4.0588,-4.0614,-4.0654,-4.0654,-4.0621,-4.0635,-4.0586,-4.0394,-4.0167,-3.9982,-3.9862,-3.9656,-3.9514,-3.9546,-3.9577,-3.9608,-3.9608,-3.9608,-3.9608,-3.9608,-3.9608,-3.9608,-3.9608,-3.9608,-3.9608,-3.9589,-3.9245,-3.9064,-3.9027,-3.8739,-3.8234,-3.7779,-3.771,-3.7038,-3.5719,-3.4524,-3.331,-3.2019,-3.0864,-3.0202,-3.0063,-3.1582,-3.3037,-3.4378,-3.527,-3.6107,-3.6621,-3.7219,-3.7773,-3.8216,-3.8407,-3.8637,-3.9068,-3.9017,-3.891,-3.8939,-3.9021,-3.9073,-3.9059,-3.895,-3.9064,-3.9175,-3.8964,-3.871,-3.8881,-3.8803,-3.8815,-3.8913,-3.8935,-3.8877,-3.8811,-3.8698,-3.8624,-3.859,-3.8512,-3.843,-3.8446,-3.8478,-3.8478,-3.8342,-3.7141,-3.6083,-3.5835,-3.4778,-3.4115,-3.373,-3.3776,-3.3785,-3.373,-3.3665,-3.3637,-3.3779,-3.3899,-3.3998,-3.3796,-3.3749,-3.3582,-3.3524,-3.3393,-3.3393,-3.3393,-3.3393,-3.3393,-3.3393,-3.3393,-3.3393,-3.3393,-3.3393,-3.3286,-4.0595,-4.0588,-4.0588,-4.0607,-4.0607,-4.06,-4.0574,-4.0581,-4.0588,-4.0607,-4.0581,-4.0607,-4.0581,-4.0496,-4.0203,-4.0022,-3.9931,-3.963,-3.9438,-3.9451,-3.9502,-3.9564,-3.9583,-3.9583,-3.9583,-3.9583,-3.9608,-3.9589,-3.9596,-3.9608,-3.957,-3.9352,-3.8683,-3.8165,-3.8053,-3.7312,-3.7038,-3.6864,-3.6826,-3.636,-3.5423,-3.3911,-3.284,-3.1972,-3.058,-3.007,-3.0723,-3.1171,-3.1518,-3.2331,-3.4529,-3.5619,-3.582,-3.6372,-3.7119,-3.7865,-3.7758,-3.8146,-3.8758,-3.8718,-3.8696,-3.8773,-3.8833,-3.8877,-3.8862,-3.8848,-3.8896,-3.895,-3.8862,-3.8837,-3.8803,-3.8664,-3.8556,-3.8541,-3.8698,-3.8698,-3.8525,-3.8401,-3.8387,-3.837,-3.8352,-3.8399,-3.8415,-3.8415,-3.8415,-3.8141,-3.7049,-3.621,-3.5714,-3.4838,-3.386,-3.3605,-3.3619,-3.3605,-3.3591,-3.3567,-3.3538,-3.3538,-3.353,-3.3498,-3.3506,-3.3509,-3.3481,-3.3422,-3.3393,-3.3393,-3.3393,-3.3393,-3.3393,-3.3393,-3.3393,-3.3393,-3.3393,-3.3393,-3.3286,-4.0588,-4.0588,-4.0598,-4.0583,-4.0595,-4.0561,-4.0527,-4.0534,-4.0576,-4.0569,-4.0542,-4.0595,-4.0576,-4.0512,-4.0313,-4.0139,-3.991,-3.9717,-3.9533,-3.9412,-3.9431,-3.9457,-3.9469,-3.9508,-3.9508,-3.9464,-3.954,-3.9583,-3.9552,-3.9514,-3.9227,-3.8577,-3.8253,-3.7804,-3.7274,-3.6951,-3.654,-3.6037,-3.595,-3.5516,-3.4524,-3.3085,-3.2404,-3.2578,-3.1139,-3.0778,-3.1485,-3.2087,-3.2523,-3.2899,-3.4024,-3.4745,-3.4895,-3.5429,-3.6037,-3.6471,-3.6591,-3.6963,-3.7704,-3.7759,-3.7799,-3.8332,-3.8525,-3.8603,-3.8603,-3.8603,-3.8695,-3.8803,-3.8725,-3.8603,-3.8603,-3.8541,-3.851,-3.8494,-3.8515,-3.8467,-3.8403,-3.8368,-3.8385,-3.8385,-3.8385,-3.8382,-3.8382,-3.8382,-3.8382,-3.8111,-3.7111,-3.5933,-3.5639,-3.4641,-3.3534,-3.3581,-3.3577,-3.3534,-3.3506,-3.3481,-3.3452,-3.3437,-3.3415,-3.3372,-3.3412,-3.3484,-3.3437,-3.3393,-3.3393,-3.3393,-3.3393,-3.3393,-3.3393,-3.3393,-3.3393,-3.3393,-3.3393,-3.3378,-3.3241,-4.0564,-4.0564,-4.0554,-4.0565,-4.0558,-4.0523,-4.0496,-4.0496,-4.0539,-4.0539,-4.0504,-4.0539,-4.0539,-4.0481,-4.0332,-4.011,-3.9859,-3.9698,-3.9496,-3.9301,-3.9275,-3.9333,-3.9391,-3.9444,-3.9444,-3.9399,-3.9464,-3.9495,-3.9395,-3.9152,-3.8652,-3.811,-3.743,-3.6845,-3.636,-3.5894,-3.5553,-3.5107,-3.502,-3.4717,-3.4123,-3.2983,-3.263,-3.2723,-3.1775,-3.1478,-3.2277,-3.3076,-3.3545,-3.3697,-3.4086,-3.4351,-3.4377,-3.4649,-3.5138,-3.568,-3.5729,-3.6107,-3.6849,-3.7067,-3.7307,-3.7715,-3.8067,-3.8334,-3.8368,-3.8368,-3.8465,-3.8528,-3.8449,-3.8385,-3.8368,-3.8368,-3.8368,-3.8352,-3.8307,-3.829,-3.8352,-3.8336,-3.8322,-3.8322,-3.8322,-3.8303,-3.8322,-3.8303,-3.8303,-3.7996,-3.691,-3.622,-3.5726,-3.4388,-3.3426,-3.34,-3.3288,-3.3154,-3.2922,-3.2802,-3.2552,-3.2611,-3.2665,-3.2734,-3.3096,-3.3205,-3.3317,-3.3284,-3.3339,-3.3393,-3.3393,-3.3393,-3.3393,-3.3393,-3.3393,-3.3345,-3.3334,-3.3319,-3.318,-4.0573,-4.0496,-4.0496,-4.0496,-4.0496,-4.0496,-4.0496,-4.0496,-4.0496,-4.0496,-4.0496,-4.0496,-4.0516,-4.05,-4.0314,-4.0052,-3.9797,-3.9609,-3.9357,-3.9197,-3.9129,-3.9202,-3.9333,-3.936,-3.936,-3.9346,-3.9373,-3.9292,-3.905,-3.8452,-3.8003,-3.7449,-3.6279,-3.5646,-3.5361,-3.4717,-3.4302,-3.4339,-3.4376,-3.4358,-3.4086,-3.3354,-3.302,-3.3131,-3.2674,-3.25,-3.3101,-3.3733,-3.4153,-3.4179,-3.4257,-3.4281,-3.43,-3.4191,-3.4574,-3.5187,-3.521,-3.5358,-3.6081,-3.6652,-3.7046,-3.718,-3.7784,-3.8171,-3.8221,-3.8256,-3.8289,-3.829,-3.8209,-3.8224,-3.8242,-3.8207,-3.8224,-3.8242,-3.8209,-3.8307,-3.8385,-3.8323,-3.8209,-3.8209,-3.8209,-3.8209,-3.8209,-3.8209,-3.8209,-3.8112,-3.6973,-3.6103,-3.5341,-3.4108,-3.3368,-3.3078,-3.2915,-3.2701,-3.2393,-3.2053,-3.1741,-3.1542,-3.1578,-3.1741,-3.2429,-3.2683,-3.2977,-3.3085,-3.294,-3.3085,-3.3393,-3.3393,-3.3357,-3.3393,-3.3393,-3.3286,-3.3196,-3.3196,-3.3101,-4.1123,-4.0496,-4.0496,-4.0496,-4.0496,-4.0496,-4.0496,-4.0496,-4.0496,-4.0496,-4.0489,-4.0496,-4.0508,-4.0481,-4.0269,-4.0052,-3.9775,-3.9561,-3.9344,-3.911,-3.9101,-3.9115,-3.9188,-3.9229,-3.9215,-3.9197,-3.9333,-3.901,-3.8443,-3.804,-3.7399,-3.6211,-3.5832,-3.5218,-3.4556,-3.4395,-3.4216,-3.4216,-3.4216,-3.4216,-3.4067,-3.351,-3.3324,-3.3751,-3.3677,-3.3733,-3.3881,-3.4086,-3.4197,-3.4209,-3.4209,-3.4197,-3.4221,-3.4233,-3.4399,-3.4518,-3.4525,-3.4696,-3.5341,-3.5634,-3.6062,-3.6911,-3.7329,-3.7863,-3.8188,-3.8298,-3.8318,-3.8257,-3.8209,-3.8259,-3.8225,-3.8209,-3.8209,-3.8209,-3.8209,-3.8225,-3.8259,-3.8242,-3.8209,-3.8209,-3.8209,-3.8209,-3.8209,-3.8136,-3.8082,-3.7955,-3.7087,-3.6003,-3.4863,-3.3719,-3.3067,-3.2542,-3.2198,-3.189,-3.1473,-3.1111,-3.0767,-3.0514,-3.0514,-3.055,-3.1238,-3.1655,-3.1763,-3.2089,-3.2415,-3.2651,-3.2832,-3.3248,-3.3194,-3.3284,-3.3309,-3.3193,-3.3086,-3.3086,-3.2784,-4.1296,-4.0516,-4.0496,-4.0496,-4.0496,-4.0496,-4.0496,-4.0496,-4.0496,-4.0496,-4.0473,-4.0417,-4.0375,-4.0339,-4.011,-3.988,-3.9637,-3.9402,-3.9227,-3.9096,-3.9101,-3.9101,-3.9101,-3.9129,-3.9129,-3.9059,-3.8774,-3.8378,-3.7936,-3.7236,-3.6398,-3.5578,-3.5188,-3.4698,-3.4284,-3.4216,-3.4216,-3.4216,-3.4216,-3.4216,-3.4104,-3.3826,-3.3677,-3.4104,-3.4216,-3.4216,-3.4179,-3.4197,-3.4216,-3.4173,-3.4086,-3.4074,-3.4185,-3.4233,-3.4245,-3.4245,-3.4252,-3.4197,-3.4497,-3.4816,-3.5253,-3.593,-3.6446,-3.7168,-3.7671,-3.8031,-3.8288,-3.8434,-3.853,-3.8499,-3.8352,-3.8336,-3.8305,-3.8225,-3.8209,-3.8209,-3.8209,-3.8209,-3.8209,-3.8209,-3.8209,-3.8209,-3.8191,-3.7846,-3.7629,-3.7375,-3.6164,-3.5095,-3.4244,-3.314,-3.2343,-3.1781,-3.1397,-3.0998,-3.0527,-3.0133,-2.9758,-2.9559,-2.9518,-2.9505,-2.9776,-3.0066,-3.0296,-3.0912,-3.1636,-3.1723,-3.1944,-3.2433,-3.2835,-3.2785,-3.278,-3.2903,-3.2827,-3.2527,-3.2126,-4.1296,-4.0496,-4.0496,-4.0496,-4.0496,-4.0496,-4.0496,-4.0496,-4.0496,-4.0496,-4.0465,-4.0295,-4.0233,-4.0139,-3.9891,-3.9656,-3.9433,-3.9259,-3.9096,-3.9096,-3.9101,-3.9101,-3.9101,-3.9101,-3.8985,-3.8878,-3.8334,-3.7907,-3.7312,-3.6309,-3.5615,-3.5194,-3.4618,-3.4302,-3.4234,-3.4216,-3.4216,-3.4216,-3.4216,-3.4216,-3.4216,-3.4141,-3.416,-3.4179,-3.4216,-3.4216,-3.4216,-3.4216,-3.4173,-3.4136,-3.3978,-3.3959,-3.3992,-3.4055,-3.4055,-3.4043,-3.403,-3.3931,-3.3835,-3.4166,-3.4539,-3.4555,-3.523,-3.61,-3.6934,-3.7272,-3.7654,-3.822,-3.8472,-3.8609,-3.8478,-3.8401,-3.8338,-3.8204,-3.8118,-3.8028,-3.7991,-3.7955,-3.7703,-3.7919,-3.7558,-3.7341,-3.7305,-3.7105,-3.6942,-3.658,-3.5367,-3.4335,-3.3538,-3.2614,-3.1836,-3.1021,-3.0586,-3.0133,-2.9663,-2.9554,-2.9125,-2.9034,-2.8853,-2.884,-2.8809,-2.9055,-2.9543,-3.0283,-3.084,-3.0917,-3.1156,-3.1649,-3.196,-3.2068,-3.1995,-3.186,-3.1825,-3.1863,-3.1371,-4.1296,-4.0496,-4.0496,-4.0496,-4.0496,-4.0496,-4.0496,-4.0496,-4.0496,-4.0496,-4.0473,-4.0286,-4.0167,-4.0081,-3.9724,-3.9421,-3.9219,-3.9129,-3.9101,-3.9101,-3.9101,-3.9101,-3.9101,-3.9082,-3.8767,-3.8223,-3.7851,-3.7517,-3.6811,-3.5974,-3.512,-3.4531,-3.4309,-3.4216,-3.4216,-3.4216,-3.4216,-3.4216,-3.4216,-3.4216,-3.4216,-3.4216,-3.4216,-3.4216,-3.4216,-3.4216,-3.4216,-3.4204,-3.4099,-3.3908,-3.4036,-3.3863,-3.363,-3.3518,-3.349,-3.3532,-3.3546,-3.3508,-3.3419,-3.3502,-3.3897,-3.4271,-3.4634,-3.5099,-3.5732,-3.6133,-3.6683,-3.7317,-3.7927,-3.8249,-3.8239,-3.8051,-3.8167,-3.8009,-3.7575,-3.7212,-3.7069,-3.6743,-3.6562,-3.6888,-3.658,-3.6363,-3.6435,-3.6381,-3.6109,-3.5802,-3.4987,-3.4262,-3.3683,-3.2524,-3.1365,-3.055,-2.9771,-2.93,-2.8799,-2.8853,-2.8744,-2.8768,-2.8696,-2.8652,-2.8608,-2.8526,-2.894,-2.958,-2.9972,-3.0085,-3.0413,-3.0824,-3.0934,-3.0966,-3.0847,-3.0754,-3.0769,-3.075,-3.0161,-4.1296,-4.0516,-4.0496,-4.0496,-4.0496,-4.0496,-4.0496,-4.0496,-4.0496,-4.0496,-4.0397,-4.0157,-4.0002,-3.987,-3.9501,-3.9205,-3.9124,-3.9101,-3.9101,-3.9101,-3.9101,-3.9101,-3.9082,-3.9082,-3.8599,-3.7968,-3.7485,-3.6885,-3.6049,-3.5213,-3.4674,-3.4364,-3.4216,-3.4216,-3.4216,-3.4216,-3.4216,-3.4216,-3.4216,-3.4216,-3.4216,-3.4216,-3.4216,-3.4216,-3.4216,-3.4216,-3.4216,-3.4216,-3.4167,-3.4011,-3.3837,-3.3689,-3.3508,-3.3273,-3.3139,-3.3258,-3.3273,-3.3199,-3.3078,-3.3093,-3.326,-3.3497,-3.3743,-3.4208,-3.4864,-3.5374,-3.5816,-3.6567,-3.693,-3.7253,-3.7088,-3.7169,-3.7051,-3.6939,-3.6598,-3.6417,-3.62,-3.5639,-3.5602,-3.582,-3.5874,-3.5822,-3.5856,-3.5675,-3.5313,-3.4878,-3.4425,-3.4045,-3.3683,-3.2614,-3.1329,-3.0369,-2.9631,-2.9153,-2.8706,-2.8603,-2.8536,-2.8536,-2.8523,-2.851,-2.8458,-2.8367,-2.843,-2.8766,-2.9031,-2.9241,-2.9358,-2.9631,-2.9744,-2.9925,-3.0125,-3.017,-2.9889,-2.954,-2.904,-4.1123,-4.0496,-4.0496,-4.0496,-4.0496,-4.0496,-4.0496,-4.0496,-4.0496,-4.0496,-4.043,-4.0034,-3.9819,-3.9687,-3.9377,-3.9101,-3.9101,-3.9101,-3.9101,-3.9101,-3.9101,-3.9101,-3.9082,-3.8822,-3.8358,-3.7485,-3.6792,-3.616,-3.5566,-3.4729,-3.4309,-3.4216,-3.4216,-3.4216,-3.4216,-3.4216,-3.4216,-3.4216,-3.4216,-3.4216,-3.4216,-3.4216,-3.4216,-3.4216,-3.4216,-3.4216,-3.4216,-3.4216,-3.4167,-3.4011,-3.3778,-3.3578,-3.3592,-3.3258,-3.3108,-3.3262,-3.3229,-3.3014,-3.2813,-3.2734,-3.2786,-3.2891,-3.2832,-3.3373,-3.4,-3.457,-3.517,-3.5929,-3.6291,-3.6314,-3.6231,-3.6094,-3.6039,-3.5901,-3.5786,-3.5514,-3.5349,-3.495,-3.448,-3.4715,-3.508,-3.5116,-3.4987,-3.4806,-3.4407,-3.4335,-3.39,-3.3737,-3.3339,-3.2741,-3.1618,-3.0464,-2.9673,-2.9212,-2.883,-2.858,-2.8499,-2.8401,-2.8393,-2.8349,-2.8313,-2.8246,-2.834,-2.8388,-2.8251,-2.8433,-2.8443,-2.8556,-2.8788,-2.9107,-2.949,-2.9365,-2.8756,-2.8508,-2.822,-4.0593,-4.0496,-4.0496,-4.0496,-4.0496,-4.0496,-4.0496,-4.0496,-4.0496,-4.0496,-4.0473,-4.0043,-3.9819,-3.9664,-3.9318,-3.9129,-3.9101,-3.9101,-3.9101,-3.9101,-3.9101,-3.9101,-3.8971,-3.8321,-3.7745,-3.6996,-3.6142,-3.5659,-3.5231,-3.4544,-3.4216,-3.4216,-3.4216,-3.4216,-3.4216,-3.4216,-3.4216,-3.4216,-3.4216,-3.4216,-3.4216,-3.4216,-3.4216,-3.4216,-3.4216,-3.4216,-3.4216,-3.4216,-3.4124,-3.3934,-3.4018,-3.3805,-3.3508,-3.3625,-3.3494,-3.3302,-3.3032,-3.2732,-3.2574,-3.254,-3.2506,-3.254,-3.2507,-3.2627,-3.3121,-3.3759,-3.4344,-3.4758,-3.5219,-3.5522,-3.555,-3.5719,-3.5763,-3.5473,-3.5025,-3.4826,-3.4609,-3.4389,-3.39,-3.381,-3.4244,-3.4045,-3.3828,-3.3683,-3.3538,-3.3502,-3.3433,-3.3306,-3.3023,-3.2455,-3.2025,-3.0936,-3.0098,-2.9602,-2.9413,-2.9103,-2.8752,-2.8533,-2.8438,-2.8362,-2.8231,-2.8211,-2.8195,-2.8174,-2.807,-2.8211,-2.8628,-2.8645,-2.8243,-2.8162,-2.8461,-2.8021,-2.7358,-2.7264,-2.7454,-4.0496,-4.0496,-4.0496,-4.0496,-4.0496,-4.0496,-4.0496,-4.0496,-4.0496,-4.0496,-4.0438,-4.0176,-3.991,-3.9602,-3.9259,-3.9115,-3.9101,-3.9101,-3.9101,-3.9101,-3.9101,-3.9082,-3.8897,-3.8284,-3.7485,-3.6625,-3.5887,-3.5182,-3.481,-3.4476,-3.4216,-3.4216,-3.4216,-3.4216,-3.4216,-3.4216,-3.4216,-3.4216,-3.4216,-3.4216,-3.4216,-3.4216,-3.4216,-3.4216,-3.4216,-3.4216,-3.4216,-3.4216,-3.4161,-3.4011,-3.4049,-3.3954,-3.381,-3.3815,-3.3707,-3.3606,-3.3462,-3.3154,-3.2734,-3.262,-3.2522,-3.2422,-3.2423,-3.2508,-3.2661,-3.299,-3.3435,-3.3751,-3.3973,-3.4271,-3.447,-3.4428,-3.4428,-3.4317,-3.4298,-3.4154,-3.3954,-3.3719,-3.3465,-3.3411,-3.3393,-3.3393,-3.3393,-3.3411,-3.3385,-3.3325,-3.3325,-3.3286,-3.2874,-3.2289,-3.193,-3.1518,-3.0757,-3.012,-3.0066,-2.9894,-2.9433,-2.9159,-2.8877,-2.8724,-2.8319,-2.8191,-2.8405,-2.8735,-2.9006,-2.9107,-2.9109,-2.8584,-2.8065,-2.7701,-2.7371,-2.7303,-2.7229,-2.686,-2.6944,-4.0496,-4.0496,-4.0496,-4.0496,-4.0496,-4.0496,-4.0496,-4.0496,-4.0496,-4.0496,-4.0414,-4.0213,-3.9857,-3.952,-3.9245,-3.9101,-3.9101,-3.9101,-3.9101,-3.9101,-3.9064,-3.8934,-3.8525,-3.7931,-3.7132,-3.6408,-3.5442,-3.4829,-3.4457,-3.4216,-3.4216,-3.4216,-3.4216,-3.4216,-3.4216,-3.4216,-3.4216,-3.4216,-3.4216,-3.4216,-3.4216,-3.4216,-3.4216,-3.4216,-3.4216,-3.4216,-3.4216,-3.4216,-3.4197,-3.4148,-3.4049,-3.3998,-3.3954,-3.3855,-3.3721,-3.3606,-3.3522,-3.3302,-3.2939,-3.2749,-3.2654,-3.2507,-3.2423,-3.2474,-3.2574,-3.2589,-3.2721,-3.3194,-3.3198,-3.3306,-3.3352,-3.3502,-3.361,-3.3647,-3.3538,-3.3429,-3.3393,-3.3393,-3.3393,-3.3393,-3.3393,-3.3393,-3.3393,-3.3393,-3.3334,-3.318,-3.3165,-3.3214,-3.284,-3.2311,-3.217,-3.1954,-3.1339,-3.079,-3.067,-3.0513,-3.0122,-2.9793,-2.9508,-2.9268,-2.8956,-2.8961,-2.9185,-2.9542,-2.9844,-2.9753,-2.9603,-2.8738,-2.796,-2.8172,-2.8228,-2.772,-2.7401,-2.6996,-2.6656,-4.0496,-4.0496,-4.0496,-4.0496,-4.0496,-4.0496,-4.0496,-4.0496,-4.0496,-4.0496,-4.0441,-4.0053,-3.9728,-3.9483,-3.9232,-3.9087,-3.9101,-3.9101,-3.9087,-3.9087,-3.9045,-3.8692,-3.8116,-3.7331,-3.6458,-3.5677,-3.4922,-3.4439,-3.4234,-3.4216,-3.4216,-3.4216,-3.4216,-3.4216,-3.4216,-3.4216,-3.4216,-3.4216,-3.4216,-3.4216,-3.4216,-3.4216,-3.4216,-3.4216,-3.4216,-3.4216,-3.4216,-3.4191,-3.4167,-3.4148,-3.4018,-3.3902,-3.3797,-3.3762,-3.3606,-3.3465,-3.3404,-3.3199,-3.2905,-3.2797,-3.2636,-3.249,-3.2423,-3.2457,-3.2557,-3.2473,-3.264,-3.2961,-3.293,-3.3073,-3.3241,-3.3393,-3.3331,-3.3393,-3.3393,-3.3393,-3.3393,-3.3393,-3.3393,-3.3393,-3.3393,-3.3393,-3.3393,-3.3393,-3.3241,-3.3104,-3.2979,-3.3013,-3.2995,-3.2602,-3.2658,-3.243,-3.1888,-3.1485,-3.1329,-3.105,-3.0702,-3.0404,-3.0129,-2.9976,-2.9837,-2.993,-3.0001,-3.0127,-3.0338,-3.0232,-3.0114,-2.9607,-2.9283,-2.9317,-2.9076,-2.8339,-2.7809,-2.7431,-2.7108,-4.0496,-4.0496,-4.0496,-4.0496,-4.0496,-4.0496,-4.0496,-4.0496,-4.0496,-4.05,-4.0471,-3.9973,-3.9717,-3.9568,-3.9183,-3.8989,-3.9017,-3.905,-3.9036,-3.9064,-3.898,-3.8599,-3.7875,-3.7039,-3.6309,-3.5442,-3.4643,-3.4216,-3.4216,-3.4216,-3.4216,-3.4216,-3.4216,-3.4216,-3.4216,-3.4216,-3.4216,-3.4216,-3.4216,-3.4216,-3.4216,-3.4216,-3.4216,-3.4216,-3.4216,-3.4216,-3.4191,-3.4023,-3.3972,-3.3908,-3.3784,-3.3634,-3.3504,-3.349,-3.3408,-3.3276,-3.3247,-3.3078,-3.286,-3.2781,-3.2669,-3.2491,-3.2406,-3.2422,-3.249,-3.2422,-3.2524,-3.269,-3.2786,-3.2898,-3.315,-3.3226,-3.3226,-3.3331,-3.3393,-3.3393,-3.3393,-3.3393,-3.3393,-3.3393,-3.3393,-3.3393,-3.3393,-3.3393,-3.3196,-3.3026,-3.29,-3.2805,-3.2804,-3.2755,-3.2707,-3.2674,-3.2167,-3.2011,-3.1871,-3.1577,-3.1265,-3.1036,-3.0773,-3.0668,-3.0598,-3.0703,-3.0757,-3.0846,-3.0939,-3.0976,-3.0924,-3.0688,-3.0355,-2.9863,-2.9309,-2.8718,-2.8269,-2.7908,-2.7654,-4.0496,-4.0496,-4.0496,-4.0496,-4.0496,-4.0496,-4.0496,-4.0496,-4.0496,-4.05,-4.0463,-3.9992,-3.9731,-3.9621,-3.9205,-3.895,-3.8979,-3.8979,-3.8983,-3.8886,-3.8674,-3.8234,-3.7469,-3.6615,-3.5725,-3.5101,-3.46,-3.4173,-3.4216,-3.4216,-3.4216,-3.4216,-3.4216,-3.4216,-3.4216,-3.4216,-3.4216,-3.4216,-3.4216,-3.4216,-3.4216,-3.4216,-3.4216,-3.4216,-3.4216,-3.4124,-3.4049,-3.3908,-3.3762,-3.3638,-3.3465,-3.3291,-3.3199,-3.3139,-3.3111,-3.3065,-3.3021,-3.291,-3.275,-3.267,-3.2606,-3.2422,-3.2406,-3.2406,-3.2406,-3.2406,-3.2508,-3.2589,-3.2621,-3.2737,-3.3057,-3.315,-3.3226,-3.3349,-3.3393,-3.3393,-3.3393,-3.3393,-3.3393,-3.3393,-3.3393,-3.3393,-3.3319,-3.3304,-3.3165,-3.2948,-3.274,-3.2658,-3.2655,-3.2607,-3.2508,-3.2491,-3.2369,-3.2352,-3.2353,-3.2037,-3.1774,-3.1774,-3.1545,-3.1388,-3.1335,-3.1388,-3.1392,-3.1376,-3.1498,-3.1735,-3.1535,-3.1109,-3.057,-3.0019,-2.9509,-2.9044,-2.8786,-2.8458,-2.8289,-4.0496,-4.0496,-4.0496,-4.0496,-4.0496,-4.0496,-4.0496,-4.0496,-4.0496,-4.0489,-4.0441,-3.9984,-3.9786,-3.9671,-3.9219,-3.8979,-3.895,-3.8921,-3.8836,-3.8615,-3.82,-3.7391,-3.6574,-3.5792,-3.5203,-3.4358,-3.4111,-3.4148,-3.4204,-3.4216,-3.4216,-3.4216,-3.4216,-3.4216,-3.4216,-3.4216,-3.4216,-3.4216,-3.4216,-3.4216,-3.4216,-3.4216,-3.4216,-3.4197,-3.4167,-3.4036,-3.3908,-3.3675,-3.3508,-3.3302,-3.3217,-3.3034,-3.2862,-3.2829,-3.2736,-3.2541,-3.2525,-3.2474,-3.244,-3.244,-3.2422,-3.2405,-3.2406,-3.2406,-3.2406,-3.2423,-3.244,-3.254,-3.259,-3.2737,-3.2945,-3.3119,-3.3196,-3.3334,-3.3378,-3.3393,-3.3393,-3.3393,-3.3393,-3.3393,-3.3393,-3.3378,-3.3274,-3.3198,-3.307,-3.2866,-3.2608,-3.2524,-3.254,-3.2507,-3.2423,-3.2406,-3.2406,-3.2406,-3.2406,-3.2406,-3.23,-3.2318,-3.2213,-3.1949,-3.1863,-3.1882,-3.1882,-3.1844,-3.1716,-3.1618,-3.156,-3.1432,-3.0811,-3.0222,-2.9841,-2.9443,-2.9221,-2.9102,-2.9019,-4.0496,-4.0496,-4.0496,-4.0496,-4.0496,-4.0496,-4.0496,-4.0496,-4.0489,-4.05,-4.0402,-3.9953,-3.975,-3.9597,-3.9219,-3.891,-3.8906,-3.8844,-3.8708,-3.8026,-3.7718,-3.6823,-3.5974,-3.5346,-3.4818,-3.4271,-3.4074,-3.4111,-3.4136,-3.4173,-3.4216,-3.4216,-3.4216,-3.4216,-3.4216,-3.4216,-3.4216,-3.4216,-3.4216,-3.4216,-3.4216,-3.4216,-3.4185,-3.4166,-3.4049,-3.3868,-3.3734,-3.3465,-3.3154,-3.297,-3.2896,-3.2705,-3.2589,-3.2573,-3.2506,-3.2405,-3.2406,-3.2406,-3.2406,-3.2423,-3.2406,-3.2406,-3.2406,-3.2406,-3.2406,-3.2406,-3.244,-3.2474,-3.2508,-3.2674,-3.2884,-3.2963,-3.3073,-3.3301,-3.3393,-3.3393,-3.3393,-3.3393,-3.3393,-3.3393,-3.3393,-3.3364,-3.3304,-3.3088,-3.2979,-3.282,-3.2558,-3.2457,-3.2474,-3.2457,-3.2406,-3.2406,-3.2406,-3.2406,-3.2406,-3.2406,-3.2406,-3.2371,-3.2371,-3.2283,-3.2266,-3.2232,-3.2091,-3.1914,-3.1657,-3.1447,-3.137,-3.1235,-3.0898,-3.0447,-3.012,-2.998,-2.9877,-2.991,-3.0009,-4.0496,-4.0496,-4.0496,-4.0496,-4.0496,-4.0496,-4.0496,-4.0496,-4.0496,-4.05,-4.0402,-3.9963,-3.9739,-3.9585,-3.9192,-3.8866,-3.8892,-3.8818,-3.8383,-3.7632,-3.7278,-3.639,-3.5524,-3.4905,-3.4439,-3.4077,-3.4036,-3.4074,-3.4148,-3.4166,-3.4197,-3.4216,-3.4216,-3.4216,-3.4216,-3.4216,-3.4216,-3.4216,-3.4216,-3.4216,-3.4191,-3.4136,-3.4111,-3.4043,-3.3876,-3.3625,-3.348,-3.3169,-3.2765,-3.267,-3.254,-3.2439,-3.2473,-3.2456,-3.2456,-3.2507,-3.244,-3.244,-3.2406,-3.2406,-3.2406,-3.2406,-3.2406,-3.2406,-3.2406,-3.2406,-3.2406,-3.2423,-3.2406,-3.2541,-3.2737,-3.2802,-3.3011,-3.3256,-3.3378,-3.3364,-3.3378,-3.3378,-3.3393,-3.3393,-3.3393,-3.3364,-3.3241,-3.3057,-3.2868,-3.269,-3.2524,-3.2457,-3.2406,-3.2406,-3.2406,-3.2406,-3.2406,-3.2406,-3.2406,-3.2406,-3.2406,-3.2406,-3.2406,-3.2406,-3.2319,-3.2214,-3.209,-3.1948,-3.1673,-3.1408,-3.1215,-3.0998,-3.0834,-3.0692,-3.0526,-3.0452,-3.0489,-3.0489,-3.0489,-4.0496,-4.0496,-4.0496,-4.0496,-4.0496,-4.0496,-4.0496,-4.0496,-4.0496,-4.0489,-4.043,-3.9974,-3.9742,-3.9595,-3.9187,-3.8964,-3.8799,-3.8759,-3.814,-3.7411,-3.6693,-3.5749,-3.4949,-3.4283,-3.411,-3.4033,-3.4023,-3.4086,-3.4166,-3.4197,-3.4197,-3.4216,-3.4216,-3.4216,-3.4216,-3.4216,-3.4216,-3.4216,-3.4216,-3.4216,-3.4191,-3.4042,-3.4074,-3.4005,-3.3765,-3.3536,-3.335,-3.3063,-3.2766,-3.2589,-3.244,-3.2573,-3.2605,-3.2522,-3.2621,-3.2654,-3.254,-3.244,-3.2406,-3.2406,-3.2406,-3.2406,-3.2406,-3.2406,-3.2406,-3.2406,-3.2406,-3.2406,-3.2406,-3.249,-3.2606,-3.277,-3.2963,-3.3135,-3.3319,-3.3334,-3.3364,-3.3364,-3.3393,-3.3393,-3.3393,-3.3301,-3.3104,-3.2916,-3.282,-3.2623,-3.2507,-3.2457,-3.2406,-3.2406,-3.2406,-3.2406,-3.2406,-3.2406,-3.2406,-3.2406,-3.2406,-3.2406,-3.2406,-3.2388,-3.2301,-3.2214,-3.2108,-3.193,-3.1654,-3.1353,-3.1038,-3.0918,-3.0898,-3.0773,-3.0609,-3.0547,-3.0489,-3.0489,-3.0489,-4.0496,-4.0496,-4.0496,-4.0496,-4.0496,-4.0496,-4.0496,-4.0496,-4.0489,-4.0441,-4.025,-3.9953,-3.9709,-3.9544,-3.917,-3.9021,-3.8695,-3.8264,-3.7534,-3.6786,-3.6021,-3.511,-3.4465,-3.4023,-3.3908,-3.3921,-3.3985,-3.4061,-3.4086,-3.4136,-3.4216,-3.4216,-3.4216,-3.4216,-3.4216,-3.4216,-3.4216,-3.4216,-3.4216,-3.4216,-3.4185,-3.4074,-3.4124,-3.403,-3.3797,-3.3592,-3.3508,-3.3075,-3.2876,-3.2972,-3.259,-3.2557,-3.2749,-3.2716,-3.2765,-3.2731,-3.2573,-3.2406,-3.2406,-3.2406,-3.2406,-3.2406,-3.2406,-3.2406,-3.2406,-3.2406,-3.2406,-3.2406,-3.2406,-3.2473,-3.2574,-3.2739,-3.2884,-3.3026,-3.3198,-3.3304,-3.3334,-3.3364,-3.3378,-3.3393,-3.3393,-3.3286,-3.3073,-3.2932,-3.282,-3.2607,-3.2473,-3.244,-3.2406,-3.2406,-3.2406,-3.2406,-3.2406,-3.2406,-3.2406,-3.2406,-3.2406,-3.2406,-3.2406,-3.2406,-3.2354,-3.2249,-3.2126,-3.1893,-3.1579,-3.1159,-3.0757,-3.0736,-3.0875,-3.0695,-3.0547,-3.051,-3.0489,-3.0489,-3.0489,-4.0496,-4.0496,-4.0496,-4.0496,-4.0496,-4.0496,-4.0496,-4.0496,-4.0496,-4.04,-4.0167,-3.9922,-3.9671,-3.9452,-3.9165,-3.8836,-3.8423,-3.8007,-3.7253,-3.6107,-3.5512,-3.4795,-3.421,-3.3934,-3.3934,-3.3934,-3.3985,-3.4061,-3.4086,-3.4136,-3.4216,-3.4216,-3.4216,-3.4216,-3.4216,-3.4216,-3.4216,-3.4216,-3.4216,-3.4216,-3.4173,-3.4124,-3.4093,-3.4105,-3.3868,-3.3734,-3.3748,-3.3225,-3.3169,-3.3291,-3.285,-3.2832,-3.297,-3.2908,-3.2702,-3.2636,-3.2524,-3.2423,-3.2406,-3.2406,-3.2406,-3.2406,-3.2406,-3.2406,-3.2406,-3.2406,-3.2406,-3.2406,-3.2423,-3.244,-3.2558,-3.2673,-3.2787,-3.29,-3.3073,-3.3259,-3.3304,-3.3349,-3.3378,-3.3393,-3.3331,-3.3271,-3.315,-3.2995,-3.2836,-3.264,-3.249,-3.244,-3.2406,-3.2406,-3.2406,-3.2406,-3.2406,-3.2406,-3.2406,-3.2406,-3.2406,-3.2406,-3.2406,-3.2406,-3.2388,-3.2232,-3.2019,-3.1765,-3.1466,-3.1157,-3.0918,-3.0814,-3.0814,-3.0651,-3.0547,-3.0489,-3.0489,-3.0489,-3.0489,-4.0496,-4.0496,-4.0496,-4.0496,-4.0496,-4.0496,-4.0439,-4.0392,-4.03,-4.0279,-4.0082,-3.9796,-3.9413,-3.9032,-3.8691,-3.8243,-3.7794,-3.7359,-3.6655,-3.5408,-3.514,-3.4576,-3.4118,-3.3908,-3.3934,-3.3972,-3.4036,-3.4068,-3.4173,-3.4216,-3.4216,-3.4216,-3.4216,-3.4216,-3.4216,-3.4216,-3.4216,-3.4216,-3.4216,-3.4216,-3.4148,-3.4036,-3.3902,-3.4055,-3.3805,-3.3532,-3.3675,-3.3564,-3.335,-3.3379,-3.3291,-3.3262,-3.3154,-3.291,-3.2639,-3.254,-3.2474,-3.2423,-3.2406,-3.2406,-3.2406,-3.2406,-3.2406,-3.2406,-3.2406,-3.2406,-3.2406,-3.2406,-3.2423,-3.2423,-3.2508,-3.2657,-3.2786,-3.2916,-3.3057,-3.318,-3.3241,-3.3301,-3.3378,-3.3393,-3.3378,-3.3286,-3.3132,-3.2977,-3.2818,-3.2657,-3.2507,-3.2423,-3.2406,-3.2406,-3.2406,-3.2406,-3.2406,-3.2406,-3.2406,-3.2406,-3.2406,-3.2406,-3.2406,-3.2406,-3.2406,-3.2161,-3.1875,-3.171,-3.1542,-3.1428,-3.1254,-3.0978,-3.0753,-3.0733,-3.063,-3.051,-3.0489,-3.0489,-3.0489,-4.0496,-4.0496,-4.0496,-4.0496,-4.0496,-4.0496,-4.0112,-3.9577,-3.9427,-3.9528,-3.9663,-3.9048,-3.852,-3.8236,-3.7705,-3.7249,-3.6976,-3.6554,-3.5899,-3.5274,-3.4803,-3.4461,-3.4041,-3.3959,-3.3941,-3.3972,-3.4005,-3.4105,-3.4185,-3.4216,-3.4216,-3.4216,-3.4216,-3.4216,-3.4216,-3.4216,-3.4216,-3.4216,-3.4216,-3.4216,-3.4173,-3.4173,-3.4148,-3.4161,-3.3967,-3.3941,-3.3998,-3.3823,-3.385,-3.3915,-3.3476,-3.335,-3.3273,-3.2802,-3.2622,-3.262,-3.2507,-3.244,-3.2406,-3.2406,-3.2406,-3.2406,-3.2406,-3.2406,-3.2406,-3.2406,-3.2406,-3.2406,-3.2406,-3.2406,-3.2474,-3.2623,-3.2802,-3.2914,-3.3024,-3.3117,-3.3211,-3.3286,-3.3393,-3.3393,-3.3393,-3.3286,-3.3132,-3.2977,-3.2818,-3.2657,-3.249,-3.2406,-3.2406,-3.2406,-3.2406,-3.2406,-3.2406,-3.2406,-3.2406,-3.2406,-3.2406,-3.2406,-3.2406,-3.2406,-3.2388,-3.2196,-3.1948,-3.182,-3.1674,-3.1372,-3.1078,-3.0797,-3.0651,-3.0651,-3.0651,-3.051,-3.0489,-3.0489,-3.0489,-4.0496,-4.0496,-4.0496,-4.0285,-3.9996,-3.9977,-3.9438,-3.866,-3.8344,-3.8344,-3.8504,-3.7976,-3.7567,-3.7376,-3.6866,-3.6365,-3.616,-3.5751,-3.5274,-3.4816,-3.4507,-3.4234,-3.4049,-3.4011,-3.4011,-3.4011,-3.4068,-3.4154,-3.4216,-3.4216,-3.4216,-3.4216,-3.4216,-3.4216,-3.4197,-3.4197,-3.4216,-3.4216,-3.4204,-3.4197,-3.4197,-3.4197,-3.413,-3.4099,-3.4124,-3.4161,-3.4179,-3.4049,-3.408,-3.3992,-3.3602,-3.3214,-3.3016,-3.2639,-3.2524,-3.2523,-3.2473,-3.2406,-3.2406,-3.2406,-3.2406,-3.2406,-3.2406,-3.2406,-3.2406,-3.2406,-3.2406,-3.2406,-3.2406,-3.2406,-3.244,-3.2574,-3.2721,-3.2866,-3.3024,-3.3147,-3.3256,-3.3349,-3.3393,-3.3393,-3.3393,-3.3364,-3.3196,-3.2993,-3.285,-3.2753,-3.2591,-3.2423,-3.2406,-3.2406,-3.2406,-3.2406,-3.2406,-3.2406,-3.2406,-3.2406,-3.2406,-3.2406,-3.2406,-3.2284,-3.2214,-3.2161,-3.2037,-3.1728,-3.1353,-3.0945,-3.0658,-3.0551,-3.0443,-3.0401,-3.0464,-3.0489,-3.0489,-3.0489,-3.0489,-4.0446,-4.0362,-4.0323,-3.9881,-3.92,-3.91,-3.8503,-3.7606,-3.7242,-3.6944,-3.6724,-3.6637,-3.6565,-3.659,-3.6365,-3.5882,-3.5473,-3.5182,-3.4736,-3.4445,-3.4192,-3.4099,-3.4061,-3.4036,-3.4036,-3.4086,-3.4161,-3.4185,-3.4216,-3.4216,-3.4216,-3.4216,-3.4185,-3.4173,-3.4173,-3.4185,-3.4185,-3.4136,-3.4136,-3.4161,-3.4173,-3.4185,-3.4074,-3.4036,-3.403,-3.4173,-3.4173,-3.4148,-3.4117,-3.3826,-3.3504,-3.3151,-3.286,-3.2573,-3.2474,-3.244,-3.244,-3.2406,-3.2406,-3.2406,-3.2406,-3.2406,-3.2406,-3.2406,-3.2406,-3.2406,-3.2406,-3.2406,-3.2406,-3.2423,-3.2439,-3.2523,-3.2688,-3.2834,-3.3008,-3.3196,-3.3304,-3.3378,-3.3393,-3.3393,-3.3393,-3.3378,-3.3274,-3.3073,-3.2948,-3.2836,-3.269,-3.2524,-3.2423,-3.2406,-3.2406,-3.2406,-3.2406,-3.2406,-3.2406,-3.2406,-3.2406,-3.2406,-3.2388,-3.2196,-3.202,-3.193,-3.1728,-3.137,-3.0998,-3.0781,-3.0576,-3.0468,-3.0359,-3.0274,-3.038,-3.0489,-3.0489,-3.0489,-3.0489,-4.0154,-3.9534,-3.9515,-3.9034,-3.83,-3.8095,-3.7468,-3.6676,-3.624,-3.5738,-3.5244,-3.4941,-3.5033,-3.5677,-3.4934,-3.4587,-3.4754,-3.4587,-3.4494,-3.4222,-3.4136,-3.4111,-3.4068,-3.4055,-3.4061,-3.4111,-3.4173,-3.4216,-3.4216,-3.4216,-3.4216,-3.4216,-3.4216,-3.4124,-3.3947,-3.4011,-3.4136,-3.4086,-3.408,-3.413,-3.4005,-3.4043,-3.4173,-3.4142,-3.4154,-3.4061,-3.3947,-3.3881,-3.3684,-3.3429,-3.3151,-3.2921,-3.2718,-3.2522,-3.244,-3.2406,-3.2406,-3.2406,-3.2406,-3.2406,-3.2406,-3.2406,-3.2406,-3.2406,-3.2406,-3.2406,-3.2406,-3.2406,-3.2406,-3.2405,-3.2439,-3.2574,-3.2705,-3.2834,-3.2977,-3.3196,-3.3349,-3.3378,-3.3393,-3.3393,-3.3393,-3.3393,-3.3364,-3.318,-3.3008,-3.2882,-3.2687,-3.254,-3.244,-3.244,-3.2406,-3.2406,-3.2406,-3.2406,-3.2406,-3.2406,-3.2406,-3.2406,-3.2319,-3.2108,-3.1893,-3.1691,-3.1447,-3.1213,-3.1038,-3.0878,-3.0695,-3.0384,-3.0384,-3.0359,-3.0405,-3.0489,-3.0489,-3.0489,-3.0489]},{"header":{"parameterUnit":"m.s-1","parameterCategory":1,"la1":31.0,"la2":29.5877,"lo1":-88.7671,"lo2":-86.6584,"dy":0.0162,"dx":0.0185,"nx":115,"ny":88,"refTime":"2023-06-06T18:00:00:Z","depth":0,"parameterNumber":3,"parameterNumberName":"V-component_of_WINDS"},"data":[0.0,0.0,0.0,0.0,0.0,0.0,0.0,0.0,0.0,0.0,0.0,0.0,0.0,0.0,0.0,0.0,0.0,0.0,0.0,0.0,0.0,0.0,0.0,0.0,0.0,0.0,0.0,0.0,0.0,0.0,0.0,0.0,0.0,0.0,0.0,0.0,0.0,0.0,0.0,0.0,0.0,0.0,0.0,0.0,0.0,0.0,0.0,0.0,0.0,0.0,0.0,0.0,0.0,0.0,0.0,0.0,0.0,0.0,0.0,0.0,0.0,0.0,0.0,0.0,0.0,0.0,0.0,0.0,0.0,0.0,0.0,0.0,0.0,0.0,0.0,0.0,0.0,0.0,0.0,0.0,0.0,0.0,0.0,0.0,0.0,0.0,0.0,0.0,0.0,0.0,0.0,0.0,0.0,0.0,0.0,0.0,0.0,0.0,0.0,0.0,0.0,0.0,0.0,0.0,0.0,0.0,0.0,0.0,0.0,0.0,0.0,0.0,0.0,0.0,0.0,0.0,0.0,0.0,0.0,0.0,0.0,0.0,0.0,0.0,0.0,0.0,0.0,0.0,0.0,0.0,0.0,0.0,0.0,0.0,0.0,0.0,0.0,0.0,0.0,0.0,0.0,0.0,0.0,0.0,0.0,0.0,0.0,0.0,0.0,0.0,0.0,0.0,0.0,0.0,0.0,0.0,0.0,0.0,0.0,0.0,0.0,0.0,0.0,0.0,0.0,0.0,0.0,0.0,0.0,0.0,0.0,0.0,0.0,0.0,0.0,0.0,0.0,0.0,0.0,0.0,0.0,0.0,0.0,0.0,0.0,0.0,0.0,0.0,0.0,0.0,0.0,0.0,0.0,0.0,0.0,0.0,0.0,0.0,0.0,0.0,0.0,0.0,0.0,0.0,0.0,0.0,0.0,0.0,0.0,0.0,0.0,0.0,0.0,0.0,0.0,0.0,0.0,0.0,0.0,0.0,0.0,0.0,0.0,0.0,0.0,0.0,0.0,0.0,0.0,0.0,0.0,0.0,0.0,0.0,0.0,0.0,0.0,0.0,0.0,0.0,0.0,0.0,0.0,0.0,0.0,0.0,0.0,0.0,0.0,0.0,0.0,0.0,0.0,0.0,0.0,0.0,0.0,0.0,0.0,0.0,0.0,0.0,0.0,0.0,0.0,0.0,0.0,0.0,0.0,0.0,0.0,0.0,0.0,0.0,0.0,0.0,0.0,0.0,0.0,0.0,0.0,0.0,0.0,0.0,0.0,0.0,0.0,0.0,0.0,0.0,0.0,0.0,0.0,0.0,0.0,0.0,0.0,0.0,0.0,0.0,0.0,0.0,0.0,0.0,0.0,0.0,0.0,0.0,0.0,0.0,0.0,0.0,0.0,0.0,0.0,0.0,0.0,0.0,0.0,0.0,0.0,0.0,0.0,0.0,0.0,0.0,0.0,0.0,0.0,0.0,0.0,0.0,0.0,0.0,0.0,0.0,0.0,0.0,0.0,0.0,0.0,0.0,0.0,0.0,0.0,0.0,0.0,0.0,0.0,0.0,0.0,0.0,0.0,0.0,0.0,0.0,0.0,0.0,0.0,0.0,0.0,0.0,0.0,0.0,0.0,0.0,0.0,0.0,0.0,0.0,0.0,0.0,0.0,0.0,0.0,0.0,0.0,0.0,0.0,0.0,0.0,0.0,0.0,0.0,0.0,0.0,0.0,0.0,0.0,0.0,0.0,0.0,0.0,0.0,0.0,0.0,0.0,0.0,0.0,0.0,0.0,0.0,0.0,0.0,0.0,0.0,0.0,0.0,0.0,0.0,0.0,0.0,0.0,0.0,0.0,0.0,0.0,0.0,0.0,0.0,0.0,0.0,0.0,0.0,0.0,0.0,0.0,0.0,0.0,0.0,0.0,0.0,0.0,0.0,0.0,0.0,0.0,0.0,0.0,0.0,0.0,0.0,0.0,0.0,0.0,0.0,0.0,0.0,0.0,0.0,0.0,0.0,0.0,0.0,0.0,0.0,0.0,0.0,0.0,0.0,0.0,0.0,0.0,0.0,0.0,0.0,0.0,0.0,0.0,0.0,0.0,0.0,0.0,0.0,0.0,0.0,0.0,0.0,0.0,0.0,0.0,0.0,0.0,0.0,0.0,0.0,0.0,0.0,0.0,0.0,0.0,0.0,0.0,0.0,0.0,0.0,0.0,0.0,0.0,0.0,0.0,0.0,0.0,0.0,0.0,0.0,0.0,0.0,0.0,0.0,0.0,0.0,0.0,0.0,0.0,0.0,0.0,0.0,0.0,0.0,0.0,0.0,0.0,0.0,0.0,0.0,0.0,0.0,0.0,0.0,0.0,0.0,0.0,0.0,0.0,0.0,0.0,0.0,0.0,0.0,0.0,0.0,0.0,0.0,0.0,0.0,0.0,0.0,0.0,0.0,0.0,0.0,0.0,0.0,0.0,0.0,0.0,0.0,0.0,0.0,0.0,0.0,0.0,0.0,0.0,0.0,0.0,0.0,0.0,0.0,0.0,0.0,0.0,0.0,0.0,0.0,0.0,0.0,0.0,0.0,0.0,0.0,0.0,0.0,0.0,0.0,0.0,0.0,0.0,0.0,0.0,0.0,0.0,0.0,0.0,0.0,0.0,0.0,0.0,0.0,0.0,0.0,0.0,0.0,0.0,0.0,0.0,0.0,0.0,0.0,0.0,0.0,0.0,0.0,0.0,0.0,0.0,0.0,0.0,0.0,0.0,0.0,0.0,0.0,0.0,0.0,0.0,0.0,0.0,0.0,0.0,0.0,0.0,0.0,0.0,0.0,0.0,0.0,0.0,0.0,0.0,0.0,0.0,0.0,0.0,0.0,0.0,0.0,0.0,0.0,0.0,0.0,0.0,0.0,0.0,0.0,0.0,0.0,0.0,0.0,0.0,0.0,0.0,0.0,0.0,0.0,0.0,0.0,0.0,0.0,0.0,0.0,0.0,0.0,0.0,0.0,0.0,0.0,0.0,0.0,0.0,0.0,0.0,0.0,0.0,0.0,0.0,0.0,0.0,0.0,0.0,0.0,0.0,0.0,0.0,0.0,0.0,0.0,0.0,0.0,0.0,0.0,0.0,0.0,0.0,0.0,0.0,0.0,0.0,0.0,0.0,0.0,0.0,0.0,0.0,0.0,0.0,0.0,0.0,0.0,0.0,0.0,0.0,0.0,0.0,0.0,0.0,0.0,0.0,0.0,0.0,0.0,0.0,0.0,0.0,0.0,0.0,0.0,0.0,0.0,0.0,0.0,0.0,0.0,0.0,0.0,0.0,0.0,0.0,0.0,0.0,0.0,0.0,0.0,0.0,0.0,0.0,0.0,0.0,0.0,0.0,0.0,0.0,0.0,0.0,0.0,0.0,0.0,0.0,0.0,0.0,0.0,0.0,0.0,0.0,0.0,0.0,0.0,0.0,0.0,0.0,0.0,0.0,0.0,0.0,0.0,0.0,0.0,0.0,0.0,0.0,0.0,0.0,0.0,0.0,0.0,0.0,0.0,0.0,0.0,0.0,0.0,0.0,0.0,0.0,0.0,0.0,0.0,0.0,0.0,0.0,0.0,0.0,0.0,0.0,0.0,0.0,0.0,0.0,0.0,0.0,0.0,0.0,0.0,0.0,0.0,0.0,0.0,0.0,0.0,0.0,0.0,0.0,0.0,0.0,0.0,0.0,0.0,0.0,0.0,0.0,0.0,0.0,0.0,0.0,0.0,0.0,0.0,0.0,0.0,0.0,0.0,0.0,0.0,0.0,0.0,0.0,0.0,0.0,0.0,0.0,0.0,0.0,0.0,0.0,0.0,0.0,0.0,0.0,0.0,0.0,0.0,0.0,0.0,0.0,0.0,0.0,0.0,0.0,0.0,0.0,0.0,0.0,0.0,0.0,0.0,0.0,0.0,0.0,0.0,0.0,0.0,0.0,0.0,0.0,0.0,0.0,0.0,0.0,0.0,0.0,0.0,0.0,0.0,0.0,0.0,0.0,0.0,0.0,0.0,0.0,0.0,0.0,0.0,0.0,0.0,0.0,0.0,0.0,0.0,0.0,0.0,0.0,0.0,0.0,0.0,0.0,0.0,0.0,0.0,0.0,0.0,0.0,0.0,0.0,0.0,0.0,0.0,0.0,0.0,0.0,0.0,0.0,0.0,0.0,0.0,0.0,0.0,0.0,0.0,0.0,0.0,0.0,0.0,0.0,0.0,0.0,0.0,0.0,0.0,0.0,0.0,0.0,0.0,0.0,0.0,-1.462,0.0,0.0,0.0,0.0,0.0,0.0,0.0,0.0,0.0,0.0,0.0,0.0,0.0,0.0,0.0,0.0,0.0,0.0,0.0,0.0,0.0,0.0,0.0,0.0,0.0,0.0,0.0,0.0,0.0,0.0,0.0,0.0,0.0,0.0,0.0,0.0,0.0,0.0,0.0,0.0,0.0,0.0,0.0,0.0,0.0,0.0,0.0,0.0,0.0,0.0,0.0,0.0,0.0,0.0,0.0,0.0,0.0,0.0,0.0,0.0,0.0,0.0,0.0,0.0,0.0,0.0,0.0,0.0,0.0,0.0,0.0,0.0,0.0,0.0,0.0,0.0,0.0,0.0,0.0,0.0,0.0,0.0,0.0,0.0,0.0,0.0,0.0,0.0,0.0,0.0,0.0,0.0,0.0,0.0,0.0,0.0,0.0,0.0,0.0,0.0,0.0,0.0,0.0,0.0,0.0,0.0,0.0,0.0,0.0,0.0,-1.2233,-1.2493,-1.317,-1.3771,-1.4357,0.0,0.0,0.0,0.0,0.0,0.0,0.0,0.0,0.0,0.0,0.0,0.0,0.0,0.0,0.0,0.0,0.0,0.0,0.0,0.0,0.0,0.0,0.0,0.0,0.0,0.0,0.0,0.0,0.0,0.0,0.0,0.0,0.0,0.0,0.0,0.0,0.0,0.0,0.0,0.0,0.0,0.0,0.0,0.0,0.0,0.0,0.0,0.0,0.0,0.0,0.0,0.0,0.0,0.0,0.0,0.0,0.0,0.0,0.0,0.0,0.0,0.0,0.0,0.0,0.0,0.0,0.0,0.0,0.0,0.0,0.0,0.0,0.0,0.0,0.0,0.0,0.0,0.0,0.0,0.0,0.0,0.0,0.0,0.0,0.0,0.0,0.0,0.0,0.0,0.0,0.0,0.0,0.0,0.0,0.0,0.0,0.0,0.0,0.0,0.0,0.0,0.0,0.0,0.0,0.0,0.0,0.0,0.0,0.0,0.0,0.0,0.0,-1.2888,-1.3632,-1.4513,0.0,0.0,0.0,0.0,0.0,0.0,0.0,0.0,0.0,0.0,0.0,0.0,0.0,0.0,0.0,0.0,0.0,0.0,0.0,0.0,0.0,0.0,0.0,0.0,0.0,0.0,0.0,0.0,0.0,0.0,0.0,0.0,0.0,0.0,0.0,0.0,0.0,0.0,0.0,0.0,0.0,0.0,0.0,0.0,0.0,0.0,0.0,0.0,0.0,0.0,0.0,0.0,0.0,0.0,0.0,0.0,0.0,0.0,0.0,0.0,0.0,0.0,0.0,0.0,0.0,0.0,0.0,0.0,0.0,0.0,0.0,0.0,0.0,0.0,0.0,0.0,0.0,0.0,0.0,0.0,0.0,0.0,0.0,0.0,0.0,0.0,0.0,0.0,0.0,0.0,0.0,0.0,0.0,0.0,0.0,0.0,0.0,0.0,0.0,0.0,0.0,0.0,0.0,0.0,0.0,0.0,0.0,0.0,0.0,0.0,-1.0158,-1.0979,-1.2152,0.0,-1.545,0.0,0.0,0.0,0.0,0.0,0.0,0.0,0.0,0.0,0.0,0.0,0.0,0.0,0.0,0.0,0.0,0.0,0.0,0.0,0.0,0.0,0.0,0.0,0.0,0.0,0.0,0.0,0.0,0.0,0.0,0.0,0.0,0.0,0.0,0.0,0.0,0.0,0.0,0.0,0.0,0.0,0.0,0.0,0.0,0.0,0.0,0.0,0.0,0.0,0.0,0.0,0.0,0.0,0.0,0.0,0.0,0.0,0.0,0.0,0.0,0.0,0.0,0.0,0.0,0.0,0.0,0.0,0.0,0.0,0.0,0.0,0.0,0.0,0.0,0.0,0.0,0.0,0.0,0.0,0.0,0.0,0.0,0.0,0.0,0.0,0.0,0.0,0.0,0.0,0.0,0.0,0.0,0.0,0.0,0.0,0.0,0.0,0.0,0.0,0.0,0.0,0.0,0.0,0.0,0.0,0.0,0.0,0.0,0.0,0.0,-0.9497,-1.0025,-1.1776,-1.3747,0.0,0.0,0.0,0.0,0.0,0.0,0.0,0.0,0.0,0.0,0.0,0.0,0.0,0.0,0.0,0.0,0.0,0.0,0.0,0.0,0.0,0.0,0.0,0.0,0.0,0.0,0.0,0.0,0.0,0.0,0.0,0.0,0.0,0.0,0.0,0.0,0.0,0.0,0.0,0.0,0.0,0.0,0.0,0.0,0.0,0.0,0.0,0.0,0.0,0.0,0.0,0.0,0.0,0.0,0.0,0.0,0.0,0.0,0.0,0.0,0.0,0.0,0.0,0.0,0.0,0.0,0.0,0.0,0.0,0.0,0.0,0.0,0.0,0.0,0.0,0.0,0.0,0.0,0.0,0.0,0.0,0.0,0.0,0.0,0.0,0.0,0.0,0.0,0.0,0.0,0.0,0.0,0.0,0.0,0.0,0.0,0.0,0.0,0.0,0.0,0.0,0.0,0.0,0.0,0.0,0.0,0.0,0.0,0.0,0.0,-0.9054,-0.9407,-1.0305,-1.2134,-1.4088,-1.6028,0.0,0.0,0.0,0.0,0.0,0.0,0.0,0.0,0.0,0.0,0.0,0.0,0.0,0.0,0.0,0.0,0.0,0.0,0.0,0.0,0.0,0.0,0.0,0.0,0.0,0.0,0.0,0.0,0.0,0.0,0.0,0.0,0.0,0.0,0.0,0.0,0.0,0.0,0.0,0.0,0.0,0.0,0.0,0.0,0.0,0.0,0.0,0.0,0.0,0.0,0.0,0.0,0.0,0.0,0.0,0.0,0.0,0.0,0.0,0.0,0.0,0.0,0.0,0.0,0.0,0.0,0.0,0.0,0.0,0.0,0.0,0.0,0.0,0.0,0.0,0.0,0.0,0.0,0.0,0.0,0.0,0.0,0.0,0.0,0.0,0.0,0.0,0.0,0.0,0.0,0.0,0.0,0.0,0.0,0.0,0.0,0.0,0.0,0.0,0.0,0.0,0.0,0.0,0.0,0.0,0.0,0.0,0.0,-0.8555,-0.88,-0.9977,-1.2039,-1.3516,-1.4729,0.0,0.0,0.0,0.0,0.0,0.0,0.0,0.0,0.0,0.0,0.0,0.0,0.0,0.0,0.0,0.0,0.0,0.0,0.0,0.0,0.0,0.0,0.0,0.0,0.0,0.0,0.0,0.0,0.0,0.0,0.0,0.0,0.0,0.0,0.0,0.0,0.0,0.0,0.0,0.0,0.0,0.0,0.0,0.0,0.0,0.0,0.0,0.0,0.0,0.0,0.0,0.0,0.0,0.0,0.0,0.0,0.0,0.0,0.0,0.0,0.0,0.0,0.0,0.0,0.0,0.0,0.0,0.0,0.0,0.0,0.0,0.0,0.0,0.0,0.0,0.0,0.0,0.0,0.0,0.0,0.0,0.0,0.0,0.0,0.0,0.0,0.0,0.0,0.0,0.0,0.0,0.0,0.0,0.0,0.0,0.0,0.0,0.0,0.0,0.0,0.0,0.0,0.0,0.0,0.0,0.0,0.0,0.0,0.0,-0.8771,-0.8856,-0.9884,-1.188,-1.2667,-1.3848,0.0,0.0,0.0,0.0,0.0,0.0,0.0,0.0,0.0,0.0,0.0,0.0,0.0,0.0,0.0,0.0,0.0,0.0,0.0,0.0,0.0,0.0,0.0,0.0,0.0,0.0,0.0,0.0,0.0,0.0,0.0,0.0,0.0,0.0,0.0,0.0,0.0,0.0,0.0,0.0,0.0,0.0,0.0,0.0,0.0,0.0,0.0,0.0,0.0,0.0,0.0,0.0,0.0,0.0,0.0,0.0,0.0,0.0,0.0,0.0,0.0,0.0,0.0,0.0,0.0,0.0,0.0,0.0,0.0,0.0,0.0,0.0,0.0,0.0,0.0,0.0,0.0,0.0,0.0,0.0,0.0,0.0,0.0,0.0,0.0,0.0,0.0,0.0,0.0,0.0,0.0,0.0,0.0,0.0,0.0,0.0,0.0,0.0,0.0,0.0,0.0,0.0,0.0,0.0,0.0,0.0,0.0,0.0,0.0,-0.8855,0.0,-0.9804,-1.1833,-1.2165,-1.3307,0.0,0.0,0.0,0.0,0.0,0.0,0.0,0.0,0.0,0.0,0.0,0.0,0.0,0.0,0.0,0.0,0.0,0.0,0.0,0.0,0.0,0.0,0.0,0.0,0.0,0.0,0.0,0.0,0.0,0.0,0.0,0.0,0.0,0.0,0.0,0.0,0.0,0.0,0.0,0.0,0.0,0.0,0.0,0.0,0.0,0.0,0.0,0.0,0.0,0.0,0.0,0.0,0.0,0.0,0.0,0.0,0.0,0.0,0.0,0.0,0.0,0.0,0.0,0.0,0.0,0.0,0.0,0.0,0.0,0.0,0.0,0.0,0.0,0.0,0.0,0.0,0.0,0.0,0.0,0.0,0.0,0.0,0.0,0.0,0.0,0.0,0.0,0.0,0.0,0.0,0.0,0.0,0.0,0.0,0.0,0.0,0.0,0.0,0.0,0.0,0.0,0.0,0.0,0.0,0.0,0.0,0.0,0.0,-0.8869,-0.8713,-0.8696,-0.9807,-1.2119,-1.2273,-1.3414,0.0,0.0,0.0,0.0,0.0,0.0,0.0,0.0,0.0,0.0,0.0,0.0,0.0,0.0,0.0,0.0,0.0,0.0,0.0,0.0,0.0,0.0,0.0,0.0,0.0,0.0,0.0,0.0,0.0,0.0,0.0,0.0,0.0,0.0,0.0,0.0,0.0,0.0,0.0,0.0,0.0,0.0,0.0,0.0,0.0,0.0,0.0,0.0,0.0,0.0,0.0,0.0,0.0,0.0,0.0,0.0,0.0,0.0,0.0,0.0,0.0,0.0,0.0,0.0,0.0,0.0,0.0,0.0,0.0,0.0,0.0,0.0,0.0,0.0,0.0,0.0,0.0,0.0,0.0,0.0,0.0,0.0,0.0,0.0,0.0,0.0,0.0,0.0,0.0,0.0,0.0,0.0,0.0,0.0,0.0,0.0,0.0,0.0,0.0,0.0,0.0,0.0,0.0,0.0,0.0,0.0,0.0,0.0,0.0,-0.8811,-0.8726,-0.9665,-1.1685,-1.2084,-1.3182,0.0,0.0,0.0,0.0,0.0,0.0,0.0,0.0,0.0,0.0,0.0,0.0,0.0,0.0,0.0,0.0,0.0,0.0,0.0,0.0,0.0,0.0,0.0,0.0,0.0,0.0,0.0,0.0,0.0,0.0,0.0,0.0,0.0,0.0,0.0,0.0,0.0,0.0,0.0,0.0,0.0,0.0,0.0,0.0,0.0,0.0,0.0,0.0,0.0,0.0,0.0,0.0,0.0,0.0,0.0,0.0,0.0,0.0,0.0,0.0,0.0,0.0,0.0,0.0,0.0,0.0,0.0,0.0,0.0,0.0,0.0,0.0,0.0,0.0,0.0,0.0,0.0,0.0,0.0,0.0,0.0,0.0,0.0,0.0,0.0,0.0,0.0,0.0,0.0,0.0,0.0,0.0,0.0,0.0,0.0,0.0,0.0,0.0,0.0,0.0,0.0,0.0,0.0,0.0,0.0,0.0,0.0,0.0,0.0,-0.8761,-0.9164,-1.0199,-1.185,-1.2486,-1.361,-1.5297,0.0,0.0,0.0,0.0,0.0,0.0,0.0,0.0,0.0,0.0,0.0,0.0,0.0,0.0,0.0,0.0,0.0,0.0,0.0,0.0,0.0,0.0,0.0,0.0,0.0,0.0,0.0,0.0,0.0,0.0,0.0,0.0,0.0,0.0,0.0,0.0,0.0,0.0,0.0,0.0,0.0,0.0,0.0,0.0,0.0,0.0,0.0,0.0,0.0,0.0,0.0,0.0,0.0,0.0,0.0,0.0,0.0,0.0,0.0,0.0,0.0,0.0,0.0,0.0,0.0,0.0,0.0,0.0,0.0,0.0,0.0,0.0,0.0,0.0,0.0,0.0,0.0,0.0,0.0,0.0,0.0,0.0,0.0,0.0,0.0,0.0,0.0,0.0,0.0,0.0,0.0,0.0,0.0,0.0,0.0,0.0,0.0,0.0,0.0,0.0,0.0,0.0,0.0,0.0,0.0,0.0,0.0,0.0,-0.8595,-0.9927,-1.1163,-1.2351,-1.334,-1.4548,0.0,0.0,0.0,0.0,0.0,0.0,0.0,0.0,0.0,0.0,0.0,0.0,0.0,0.0,0.0,0.0,0.0,0.0,0.0,0.0,0.0,0.0,0.0,0.0,0.0,0.0,0.0,0.0,0.0,0.0,0.0,0.0,0.0,0.0,0.0,0.0,0.0,0.0,0.0,0.0,0.0,0.0,0.0,0.0,0.0,0.0,0.0,0.0,0.0,0.0,0.0,0.0,0.0,0.0,0.0,0.0,0.0,0.0,0.0,0.0,0.0,0.0,0.0,0.0,0.0,0.0,0.0,0.0,0.0,0.0,0.0,0.0,0.0,0.0,0.0,0.0,0.0,0.0,0.0,0.0,0.0,0.0,0.0,0.0,0.0,0.0,0.0,0.0,0.0,0.0,0.0,0.0,0.0,0.0,0.0,0.0,0.0,0.0,0.0,0.0,0.0,0.0,0.0,0.0,0.0,0.0,0.0,0.0,0.0,-0.9798,-1.1172,-1.1998,-1.2158,-1.3353,-1.4533,0.0,0.0,0.0,0.0,0.0,0.0,0.0,0.0,0.0,0.0,0.0,0.0,0.0,0.0,0.0,0.0,0.0,0.0,0.0,0.0,0.0,0.0,0.0,0.0,0.0,0.0,0.0,0.0,0.0,0.0,0.0,0.0,0.0,0.0,0.0,0.0,0.0,0.0,0.0,0.0,0.0,0.0,0.0,0.0,0.0,0.0,0.0,0.0,0.0,0.0,0.0,0.0,0.0,0.0,0.0,0.0,0.0,0.0,0.0,0.0,0.0,0.0,0.0,0.0,0.0,0.0,0.0,0.0,0.0,0.0,0.0,0.0,0.0,0.0,0.0,0.0,0.0,0.0,0.0,0.0,0.0,0.0,0.0,0.0,0.0,0.0,0.0,0.0,0.0,0.0,0.0,0.0,0.0,0.0,0.0,0.0,0.0,0.0,0.0,0.0,0.0,0.0,0.0,0.0,0.0,0.0,0.0,0.0,-1.0237,-1.0069,-1.2091,-1.3121,-1.2943,-1.4086,-1.5014,0.0,0.0,0.0,0.0,0.0,0.0,0.0,0.0,0.0,0.0,0.0,0.0,0.0,0.0,0.0,0.0,0.0,0.0,0.0,0.0,0.0,0.0,0.0,0.0,0.0,0.0,0.0,0.0,0.0,0.0,0.0,0.0,0.0,0.0,0.0,0.0,0.0,0.0,0.0,0.0,0.0,0.0,0.0,0.0,0.0,0.0,0.0,0.0,0.0,0.0,0.0,0.0,0.0,0.0,0.0,0.0,0.0,0.0,0.0,0.0,0.0,0.0,0.0,0.0,0.0,0.0,0.0,0.0,0.0,0.0,0.0,0.0,0.0,0.0,0.0,0.0,0.0,0.0,0.0,0.0,0.0,0.0,0.0,0.0,0.0,0.0,0.0,0.0,0.0,0.0,0.0,0.0,0.0,0.0,0.0,0.0,0.0,0.0,0.0,0.0,0.0,0.0,0.0,0.0,0.0,0.0,0.0,0.0,-1.152,-1.0233,-1.2802,-1.4277,-1.4422,-1.5132,-1.5738,0.0,0.0,0.0,0.0,0.0,0.0,0.0,0.0,0.0,0.0,0.0,0.0,0.0,0.0,0.0,0.0,0.0,0.0,0.0,0.0,0.0,0.0,0.0,0.0,0.0,0.0,0.0,0.0,0.0,0.0,0.0,0.0,0.0,0.0,0.0,0.0,0.0,0.0,0.0,0.0,0.0,0.0,0.0,0.0,0.0,0.0,0.0,0.0,0.0,0.0,0.0,0.0,0.0,0.0,0.0,0.0,0.0,0.0,0.0,0.0,0.0,0.0,0.0,0.0,0.0,0.0,0.0,0.0,0.0,0.0,0.0,0.0,0.0,0.0,0.0,0.0,0.0,0.0,0.0,0.0,0.0,0.0,0.0,0.0,0.0,0.0,0.0,0.0,0.0,0.0,0.0,0.0,0.0,0.0,0.0,0.0,0.0,0.0,0.0,0.0,0.0,0.0,0.0,0.0,0.0,0.0,0.0,0.0,-1.1227,-1.2521,-1.3619,-1.4654,-1.5512,-1.574,-1.5856,0.0,0.0,0.0,0.0,0.0,0.0,0.0,0.0,0.0,0.0,0.0,0.0,0.0,0.0,0.0,0.0,0.0,0.0,0.0,0.0,0.0,0.0,0.0,0.0,0.0,0.0,0.0,0.0,0.0,0.0,0.0,0.0,0.0,0.0,0.0,0.0,0.0,0.0,0.0,0.0,0.0,0.0,0.0,0.0,0.0,0.0,0.0,0.0,-1.6039,0.0,0.0,0.0,0.0,0.0,0.0,0.0,0.0,0.0,0.0,0.0,0.0,0.0,0.0,0.0,0.0,0.0,0.0,0.0,0.0,0.0,0.0,0.0,0.0,0.0,0.0,0.0,0.0,0.0,0.0,0.0,0.0,0.0,0.0,0.0,0.0,0.0,0.0,0.0,0.0,0.0,0.0,0.0,0.0,0.0,0.0,0.0,0.0,0.0,0.0,0.0,0.0,0.0,0.0,0.0,0.0,0.0,0.0,0.0,-1.2684,-1.3123,-1.4205,-1.5012,-1.5471,-1.5494,-1.5723,0.0,0.0,0.0,0.0,0.0,0.0,0.0,0.0,0.0,0.0,0.0,0.0,0.0,0.0,0.0,0.0,0.0,0.0,0.0,0.0,0.0,0.0,0.0,0.0,0.0,0.0,0.0,0.0,0.0,0.0,0.0,0.0,0.0,0.0,0.0,0.0,0.0,0.0,0.0,0.0,0.0,0.0,0.0,0.0,0.0,0.0,0.0,0.0,0.0,0.0,0.0,0.0,0.0,0.0,0.0,0.0,0.0,0.0,0.0,0.0,0.0,0.0,0.0,0.0,0.0,0.0,0.0,0.0,0.0,0.0,0.0,0.0,0.0,0.0,0.0,0.0,0.0,0.0,0.0,0.0,0.0,0.0,0.0,0.0,0.0,0.0,0.0,0.0,0.0,0.0,0.0,0.0,0.0,0.0,0.0,0.0,0.0,0.0,0.0,0.0,0.0,0.0,0.0,0.0,0.0,0.0,0.0,-1.3357,-1.4158,-1.3257,-1.4665,-1.533,-1.5119,-1.5113,-1.5446,-1.6125,0.0,0.0,0.0,0.0,0.0,0.0,0.0,0.0,0.0,0.0,0.0,0.0,0.0,0.0,0.0,0.0,0.0,0.0,0.0,0.0,0.0,0.0,0.0,0.0,0.0,0.0,0.0,0.0,0.0,0.0,0.0,0.0,0.0,0.0,0.0,0.0,0.0,0.0,-1.1281,-1.2091,0.0,0.0,0.0,0.0,0.0,0.0,0.0,0.0,-1.5875,0.0,0.0,0.0,0.0,0.0,0.0,0.0,0.0,0.0,0.0,0.0,0.0,0.0,0.0,0.0,0.0,0.0,0.0,0.0,0.0,0.0,0.0,0.0,0.0,0.0,0.0,0.0,0.0,0.0,0.0,0.0,0.0,0.0,0.0,0.0,0.0,0.0,0.0,0.0,0.0,0.0,0.0,0.0,0.0,0.0,0.0,0.0,0.0,0.0,0.0,0.0,0.0,0.0,0.0,0.0,0.0,-1.2946,-1.2815,-1.3251,-1.4322,-1.4871,-1.5149,-1.5113,-1.5113,-1.5274,-1.5587,0.0,0.0,0.0,0.0,0.0,0.0,0.0,0.0,0.0,0.0,0.0,0.0,0.0,0.0,0.0,0.0,0.0,0.0,0.0,0.0,0.0,0.0,0.0,0.0,0.0,0.0,0.0,0.0,0.0,0.0,0.0,0.0,0.0,0.0,0.0,0.0,0.0,0.0,0.0,-1.365,-1.4073,0.0,0.0,0.0,0.0,0.0,0.0,0.0,0.0,-1.584,0.0,0.0,0.0,0.0,0.0,0.0,0.0,0.0,0.0,0.0,0.0,0.0,0.0,0.0,0.0,0.0,0.0,0.0,0.0,0.0,0.0,0.0,0.0,0.0,0.0,0.0,0.0,0.0,0.0,0.0,0.0,0.0,0.0,0.0,0.0,0.0,0.0,0.0,0.0,0.0,0.0,0.0,0.0,0.0,0.0,0.0,0.0,0.0,0.0,0.0,0.0,0.0,0.0,0.0,0.0,-1.3082,-1.3139,-1.3496,-1.4208,-1.4666,-1.4835,-1.4696,-1.469,-1.4759,0.0,0.0,0.0,0.0,0.0,0.0,0.0,0.0,0.0,0.0,0.0,0.0,0.0,0.0,0.0,0.0,0.0,0.0,0.0,0.0,0.0,0.0,0.0,0.0,0.0,0.0,0.0,0.0,0.0,0.0,0.0,0.0,0.0,0.0,0.0,0.0,0.0,0.0,0.0,0.0,-1.3846,-1.405,-1.4151,0.0,0.0,0.0,0.0,0.0,0.0,-1.5603,-1.5621,0.0,0.0,0.0,0.0,0.0,0.0,0.0,0.0,0.0,0.0,0.0,0.0,0.0,0.0,0.0,0.0,0.0,0.0,0.0,0.0,0.0,0.0,0.0,0.0,0.0,0.0,0.0,0.0,0.0,0.0,0.0,0.0,0.0,0.0,0.0,0.0,0.0,0.0,0.0,0.0,0.0,0.0,0.0,0.0,0.0,0.0,0.0,0.0,0.0,0.0,0.0,0.0,0.0,0.0,0.0,-1.2813,-1.3442,-1.3805,-1.3899,-1.4359,-1.4527,-1.4304,-1.425,-1.4259,0.0,0.0,0.0,0.0,0.0,0.0,0.0,0.0,0.0,0.0,0.0,0.0,0.0,0.0,0.0,0.0,0.0,0.0,0.0,0.0,0.0,0.0,0.0,0.0,0.0,0.0,0.0,0.0,0.0,0.0,0.0,0.0,0.0,0.0,0.0,0.0,0.0,0.0,0.0,0.0,0.0,-1.3895,-1.3895,-1.4159,0.0,0.0,0.0,0.0,-1.5456,-1.5431,0.0,0.0,0.0,0.0,0.0,0.0,0.0,0.0,0.0,0.0,0.0,0.0,0.0,0.0,0.0,0.0,0.0,0.0,0.0,0.0,0.0,0.0,0.0,0.0,0.0,0.0,0.0,0.0,0.0,0.0,0.0,0.0,0.0,0.0,0.0,0.0,0.0,0.0,0.0,0.0,0.0,0.0,0.0,0.0,0.0,0.0,0.0,0.0,0.0,0.0,0.0,0.0,0.0,0.0,0.0,0.0,-1.2775,-1.3128,-1.3473,-1.3859,-1.4175,-1.4328,-1.4298,-1.4075,-1.4029,0.0,0.0,0.0,0.0,0.0,0.0,0.0,0.0,0.0,0.0,0.0,0.0,0.0,0.0,0.0,0.0,0.0,0.0,0.0,0.0,0.0,0.0,0.0,0.0,0.0,0.0,0.0,0.0,0.0,0.0,0.0,0.0,0.0,0.0,0.0,0.0,0.0,0.0,0.0,0.0,0.0,-1.4148,-1.4153,-1.4411,-1.4572,0.0,0.0,-1.5143,-1.5435,-1.5288,0.0,0.0,0.0,0.0,0.0,0.0,0.0,0.0,0.0,0.0,0.0,0.0,0.0,0.0,0.0,0.0,0.0,0.0,0.0,0.0,0.0,0.0,0.0,0.0,0.0,0.0,0.0,0.0,0.0,0.0,0.0,0.0,0.0,0.0,0.0,0.0,0.0,0.0,0.0,0.0,0.0,0.0,0.0,0.0,0.0,0.0,0.0,0.0,0.0,0.0,0.0,0.0,0.0,0.0,0.0,-1.2289,-1.2391,-1.2804,-1.3184,-1.3676,-1.393,-1.416,-1.4298,-1.4045,-1.388,0.0,0.0,0.0,0.0,0.0,0.0,0.0,0.0,0.0,0.0,0.0,0.0,0.0,0.0,0.0,0.0,0.0,0.0,0.0,0.0,0.0,0.0,0.0,0.0,0.0,0.0,0.0,0.0,0.0,0.0,0.0,0.0,0.0,0.0,0.0,0.0,0.0,0.0,0.0,0.0,0.0,0.0,-1.4175,-1.4299,0.0,0.0,0.0,-1.4934,-1.5434,0.0,0.0,0.0,0.0,0.0,0.0,0.0,0.0,0.0,0.0,0.0,0.0,0.0,0.0,0.0,0.0,0.0,0.0,0.0,0.0,0.0,0.0,0.0,0.0,0.0,0.0,0.0,0.0,0.0,0.0,0.0,0.0,0.0,0.0,0.0,0.0,0.0,0.0,0.0,0.0,0.0,0.0,0.0,0.0,0.0,0.0,0.0,0.0,0.0,0.0,0.0,0.0,0.0,0.0,0.0,0.0,0.0,-1.2008,-1.2436,-1.2914,-1.3346,-1.3703,-1.3979,-1.4202,-1.3931,0.0,0.0,0.0,0.0,0.0,0.0,0.0,0.0,0.0,0.0,0.0,0.0,0.0,0.0,0.0,0.0,0.0,0.0,0.0,0.0,0.0,0.0,0.0,0.0,0.0,0.0,0.0,-1.3346,0.0,0.0,0.0,0.0,0.0,0.0,0.0,0.0,0.0,0.0,0.0,0.0,0.0,0.0,-1.3981,-1.4169,-1.4196,-1.4245,0.0,0.0,-1.4665,-1.5208,-1.5261,-1.5369,0.0,0.0,0.0,0.0,0.0,0.0,0.0,0.0,0.0,0.0,0.0,0.0,0.0,0.0,0.0,0.0,0.0,0.0,0.0,0.0,0.0,0.0,0.0,0.0,0.0,0.0,0.0,0.0,0.0,0.0,0.0,0.0,0.0,0.0,0.0,0.0,0.0,0.0,0.0,0.0,0.0,0.0,0.0,0.0,0.0,0.0,0.0,0.0,0.0,0.0,0.0,0.0,0.0,0.0,-1.1725,-1.1731,-1.2179,-1.2564,-1.2867,-1.3521,-1.3931,-1.3919,-1.3676,-1.3532,0.0,0.0,0.0,0.0,0.0,0.0,0.0,0.0,0.0,0.0,0.0,0.0,0.0,0.0,0.0,0.0,0.0,0.0,0.0,0.0,0.0,0.0,0.0,0.0,0.0,0.0,0.0,0.0,0.0,0.0,0.0,0.0,0.0,0.0,0.0,0.0,0.0,0.0,0.0,0.0,0.0,-1.4169,-1.4191,-1.4196,-1.4196,0.0,-1.4245,-1.4293,-1.4606,-1.4659,-1.488,-1.5428,0.0,0.0,0.0,0.0,0.0,0.0,0.0,0.0,0.0,0.0,0.0,0.0,0.0,0.0,0.0,0.0,0.0,0.0,0.0,0.0,0.0,0.0,0.0,0.0,0.0,0.0,0.0,0.0,0.0,0.0,0.0,0.0,0.0,0.0,0.0,0.0,0.0,0.0,0.0,0.0,0.0,0.0,0.0,0.0,0.0,0.0,0.0,0.0,0.0,0.0,0.0,0.0,0.0,-1.1553,-1.1698,-1.2066,-1.2398,-1.2792,-1.3222,-1.3539,-1.3883,-1.3467,-1.3332,0.0,0.0,0.0,0.0,0.0,0.0,0.0,0.0,0.0,0.0,0.0,0.0,0.0,0.0,0.0,0.0,0.0,0.0,0.0,0.0,0.0,0.0,0.0,0.0,0.0,0.0,0.0,0.0,-1.2861,-1.2807,-1.2807,0.0,0.0,0.0,0.0,0.0,0.0,0.0,0.0,0.0,0.0,-1.3587,-1.3906,-1.3965,0.0,0.0,-1.3873,-1.4066,-1.4384,-1.4511,-1.4826,-1.5428,-1.5394,0.0,0.0,0.0,0.0,0.0,0.0,0.0,0.0,0.0,0.0,0.0,0.0,0.0,0.0,0.0,0.0,0.0,0.0,0.0,0.0,0.0,0.0,0.0,0.0,0.0,0.0,0.0,0.0,0.0,0.0,0.0,0.0,0.0,0.0,0.0,0.0,0.0,0.0,0.0,0.0,0.0,0.0,0.0,0.0,0.0,0.0,0.0,0.0,0.0,0.0,0.0,0.0,-1.1386,-1.1596,-1.1937,-1.2267,-1.2587,-1.2938,-1.3298,-1.3727,-1.3327,-1.3241,0.0,0.0,0.0,0.0,0.0,0.0,0.0,0.0,0.0,0.0,0.0,0.0,0.0,0.0,0.0,0.0,0.0,0.0,0.0,0.0,0.0,0.0,0.0,0.0,0.0,0.0,0.0,0.0,-1.2807,-1.2807,-1.2807,0.0,0.0,0.0,0.0,0.0,0.0,0.0,0.0,0.0,0.0,-1.313,-1.3504,-1.3656,-1.3663,-1.3553,-1.361,-1.3796,-1.4129,-1.4283,-1.457,-1.5137,0.0,0.0,0.0,0.0,0.0,0.0,0.0,0.0,0.0,0.0,0.0,0.0,0.0,0.0,0.0,0.0,0.0,0.0,0.0,0.0,0.0,0.0,0.0,0.0,0.0,0.0,0.0,-1.5056,0.0,0.0,-1.2993,0.0,0.0,0.0,0.0,0.0,0.0,0.0,0.0,0.0,0.0,0.0,0.0,0.0,0.0,0.0,0.0,0.0,0.0,0.0,0.0,0.0,0.0,-1.1311,-1.1327,-1.1862,-1.2094,-1.2116,-1.2755,-1.3195,-1.3468,-1.3229,-1.3229,-1.345,0.0,0.0,0.0,0.0,0.0,0.0,0.0,0.0,0.0,0.0,0.0,0.0,0.0,0.0,0.0,0.0,0.0,0.0,0.0,0.0,0.0,0.0,0.0,0.0,0.0,0.0,-1.2807,-1.2807,-1.2813,0.0,0.0,0.0,0.0,0.0,0.0,0.0,0.0,0.0,-1.2512,-1.2797,-1.2971,-1.3014,-1.3309,-1.3475,-1.3464,-1.3526,-1.3556,-1.3771,-1.3814,-1.4006,0.0,0.0,0.0,0.0,0.0,0.0,0.0,0.0,0.0,0.0,0.0,0.0,0.0,0.0,0.0,0.0,0.0,0.0,0.0,0.0,0.0,0.0,0.0,0.0,0.0,0.0,0.0,-1.193,-1.2227,0.0,0.0,0.0,0.0,0.0,0.0,0.0,0.0,0.0,0.0,0.0,-0.6431,-0.7036,0.0,0.0,0.0,0.0,0.0,0.0,0.0,0.0,0.0,0.0,0.0,0.0,-1.1311,-1.1332,-1.1811,-1.2089,-1.2105,-1.2612,-1.2936,-1.3014,-1.2777,-1.2665,-1.277,0.0,0.0,0.0,0.0,0.0,0.0,0.0,0.0,0.0,0.0,0.0,0.0,0.0,0.0,0.0,0.0,0.0,0.0,0.0,0.0,0.0,0.0,0.0,0.0,0.0,-1.2807,0.0,0.0,0.0,0.0,0.0,0.0,0.0,0.0,0.0,0.0,0.0,-1.2147,-1.2238,-1.206,-1.2016,-1.2464,-1.2618,-1.2772,0.0,0.0,0.0,0.0,0.0,0.0,0.0,0.0,0.0,0.0,0.0,0.0,0.0,0.0,-1.6135,-1.6841,-1.7704,-1.8765,-1.9982,0.0,0.0,0.0,0.0,0.0,0.0,0.0,0.0,0.0,0.0,0.0,0.0,0.0,0.0,-1.0333,0.0,-1.0672,0.0,0.0,0.0,0.0,0.0,0.0,0.0,0.0,-0.6383,-0.6314,-0.6312,-0.6952,-0.7197,0.0,-0.873,-0.9633,0.0,0.0,0.0,0.0,0.0,0.0,0.0,0.0,-1.1311,-1.1321,-1.1731,-1.197,-1.1986,-1.2359,-1.2583,-1.2664,-1.2512,-1.2365,-1.2258,-1.2497,-1.2534,0.0,0.0,0.0,0.0,0.0,0.0,0.0,0.0,0.0,0.0,0.0,0.0,0.0,0.0,0.0,0.0,0.0,0.0,0.0,0.0,0.0,0.0,0.0,-1.2807,0.0,0.0,0.0,0.0,0.0,0.0,0.0,0.0,0.0,-1.2649,-1.2039,-1.1602,-1.1567,-1.1371,-1.1315,-1.1699,0.0,0.0,0.0,0.0,0.0,0.0,0.0,-1.3534,-1.3929,-1.4091,-1.427,-1.4776,-1.4773,-1.4773,-1.4874,0.0,0.0,-1.6894,-1.8038,-1.9261,-2.0182,-2.0712,-2.1114,-2.1338,-2.1722,-2.2004,0.0,0.0,0.0,0.0,0.0,0.0,0.0,0.0,-0.8757,-0.9288,0.0,-1.0209,0.0,0.0,0.0,0.0,-0.6819,-0.6749,0.0,0.0,-0.6191,-0.6086,-0.6092,-0.6178,-0.6125,-0.6211,-0.7053,-0.7936,-0.8837,-1.0736,0.0,0.0,0.0,0.0,0.0,0.0,-1.1311,-1.1316,-1.1585,-1.1698,-1.1709,-1.1975,-1.2186,-1.2347,-1.2394,-1.2245,-1.2012,-1.2246,-1.2283,-1.2043,-1.2454,0.0,0.0,0.0,0.0,0.0,0.0,0.0,0.0,0.0,0.0,0.0,0.0,0.0,0.0,0.0,0.0,0.0,0.0,0.0,0.0,-1.2759,0.0,0.0,0.0,0.0,0.0,0.0,0.0,0.0,0.0,0.0,-1.2014,-1.1756,-1.1272,-1.0498,0.0,0.0,0.0,0.0,-1.1932,-1.198,-1.2419,-1.2845,-1.3005,-1.3093,-1.3179,-1.3427,0.0,0.0,-1.4486,-1.4379,-1.4277,-1.4535,-1.6115,-1.7594,-1.7864,-1.9043,-2.0307,-2.1014,-2.1511,-2.1786,-2.1528,-2.1758,-2.2047,-0.6491,0.0,0.0,0.0,0.0,-0.6892,-0.7089,-0.7385,-0.7385,-0.7523,-0.7768,-0.7764,0.0,0.0,0.0,0.0,0.0,0.0,-0.6233,-0.6138,-0.6102,-0.6086,-0.6131,-0.6685,-0.6961,-0.7001,-0.8475,-0.9279,-0.9631,-1.0829,-1.1402,-1.1407,0.0,0.0,0.0,0.0,-1.1311,-1.1321,-1.158,-1.1698,-1.1698,-1.1975,-1.2059,-1.1896,-1.1932,-1.1858,-1.1791,-1.1995,-1.208,-1.2,-1.2123,0.0,0.0,0.0,0.0,0.0,0.0,0.0,0.0,0.0,0.0,0.0,0.0,0.0,0.0,0.0,0.0,0.0,0.0,0.0,-1.2807,-1.2473,-1.2296,0.0,0.0,0.0,0.0,0.0,0.0,0.0,0.0,0.0,-1.15,-1.1059,-1.0654,0.0,0.0,-1.0256,-1.0473,-1.0695,-1.0998,-1.1394,-1.1878,0.0,-1.2307,-1.2665,-1.2991,-1.3173,-1.3416,-1.3651,-1.3773,-1.3867,-1.3927,-1.4028,-1.5588,-1.6988,-1.7199,-1.9034,-2.0621,-2.0985,-2.1425,-2.1745,-2.1653,-2.2063,-2.2422,-0.6387,-0.6387,-0.6387,-0.6489,-0.6637,-0.6592,-0.6621,-0.6619,-0.6568,-0.6503,-0.648,-0.6432,-0.6488,-0.6561,-0.6608,0.0,0.0,0.0,-0.6013,-0.601,-0.5966,-0.5945,-0.5985,-0.6817,-0.7223,-0.731,-0.9033,-0.9898,-0.9946,-1.0868,-1.1311,-1.1311,0.0,0.0,-1.1311,-1.1311,-1.1311,-1.1316,-1.145,-1.1558,-1.1564,-1.1698,-1.1704,-1.1564,-1.1554,-1.1527,-1.1527,-1.1785,-1.1828,-1.1742,-1.1914,-1.1952,0.0,0.0,0.0,0.0,0.0,0.0,0.0,0.0,0.0,0.0,0.0,-1.291,-1.2813,0.0,0.0,0.0,-1.2273,-1.2219,-1.2473,-1.2061,0.0,0.0,0.0,0.0,0.0,0.0,0.0,-1.2091,-1.1502,-1.1086,-1.0971,-1.0514,-1.0176,-1.0114,-0.9957,-0.9924,-1.0044,0.0,-1.0511,-1.0855,-1.134,-1.1731,-1.198,-1.2273,-1.2595,-1.3016,-1.3227,-1.3373,-1.347,-1.3599,-1.368,-1.3863,-1.528,-1.6558,-1.6558,-1.8584,-2.0359,-2.055,-2.1019,-2.142,-2.1623,-2.187,-2.2113,-0.6387,-0.6387,-0.6387,-0.6387,-0.6379,-0.6325,-0.6328,-0.6309,-0.6196,-0.6092,-0.6072,-0.607,-0.6067,-0.6056,-0.6059,0.0,-0.6051,-0.5942,-0.589,-0.5885,-0.5782,-0.5688,-0.5733,-0.6745,-0.7228,-0.7272,-0.9109,-1.0033,-1.0077,-1.0916,-1.1311,-1.1311,-1.1311,-1.1311,-1.1311,-1.1311,-1.1311,-1.1311,-1.1311,-1.1311,-1.1311,-1.1311,-1.1311,-1.1311,-1.1311,-1.1311,-1.1311,-1.1527,-1.157,-1.1305,-1.1736,-1.1871,-1.1699,0.0,0.0,0.0,0.0,0.0,0.0,0.0,0.0,0.0,0.0,0.0,0.0,0.0,0.0,0.0,-1.1502,0.0,-1.1908,-1.1665,0.0,0.0,0.0,-1.1808,-1.1961,-1.1567,-1.1317,-1.1474,0.0,0.0,-1.0342,-1.0095,-0.988,-0.9864,-0.9864,-0.9807,-0.9599,-1.0019,-1.0364,-1.0364,-1.0806,-1.1292,-1.1688,-1.1927,-1.2286,-1.2924,-1.3077,-1.3157,-1.3346,-1.3483,-1.3443,-1.3491,-1.5043,-1.6323,-1.6387,-1.796,-1.9332,-1.9878,-2.0392,-2.0912,-2.1338,-2.1278,-2.1246,-0.6387,-0.6387,-0.6387,-0.6387,-0.6434,-0.636,-0.6347,-0.6314,-0.6238,-0.6119,-0.5947,-0.5947,-0.5896,-0.5817,-0.5775,-0.5817,-0.5814,-0.5742,-0.5773,-0.5729,-0.5702,-0.5688,-0.5777,-0.7401,-0.8149,-0.8281,-1.0077,-1.0997,-1.0959,-1.1176,-1.1311,-1.1311,-1.1311,-1.1311,-1.1311,-1.1311,-1.1311,-1.1311,-1.1311,-1.1311,-1.1311,-1.1311,-1.1311,-1.1311,-1.1311,-1.1311,-1.1311,-1.1348,-1.1354,-1.1311,-1.1392,-1.1435,-1.1397,-1.1613,0.0,0.0,0.0,0.0,0.0,0.0,0.0,0.0,0.0,-1.2807,-1.2807,0.0,-1.2565,0.0,-1.1295,-1.1038,-1.1544,-1.1267,0.0,0.0,-1.1709,-1.1753,-1.1092,-1.1335,-1.13,-1.0775,-1.0514,-1.0327,-1.0046,-0.9941,-0.9835,-0.9709,-0.9689,-0.9673,-0.9632,-0.9677,-0.9776,-0.9871,-1.0265,-1.0609,-1.085,-1.1487,-1.2196,-1.2786,-1.2845,-1.2916,-1.2975,-1.3132,-1.3249,-1.3494,-1.4539,-1.5646,-1.6453,-1.7355,-1.8161,-1.8942,-1.9552,-1.995,-2.0093,-2.0168,-2.0329,-0.6357,-0.6361,-0.6363,-0.6331,-0.6279,-0.6282,-0.6244,-0.6179,-0.6078,-0.5953,-0.5831,-0.578,-0.5748,-0.5691,-0.5688,-0.5688,-0.5688,-0.5688,-0.5688,-0.5688,-0.5688,-0.5908,-0.6349,-0.7797,-0.8719,-0.9157,-1.0603,-1.1311,-1.1311,-1.1311,-1.1311,-1.1311,-1.1311,-1.1311,-1.1311,-1.1311,-1.1311,-1.1311,-1.1311,-1.1311,-1.1311,-1.1311,-1.1311,-1.1311,-1.1311,-1.1311,-1.1311,-1.1311,-1.1311,-1.1311,-1.1311,-1.1311,-1.1311,-1.1435,-1.144,0.0,0.0,0.0,0.0,0.0,0.0,0.0,0.0,0.0,0.0,0.0,-1.2271,-1.1826,-1.0892,-1.0586,-1.1183,-1.0902,-1.0746,-1.0847,-1.1246,-1.1279,-1.0739,-1.0895,-1.0862,-1.0448,-1.0294,-1.0111,-0.9908,-0.9815,-0.9738,-0.964,-0.9624,-0.9624,-0.9624,-0.9624,-0.9624,-0.9624,-0.9871,-1.0117,-1.0364,-1.1096,-1.1829,-1.2322,-1.2419,-1.2521,-1.2764,-1.2867,-1.3001,-1.3241,-1.4055,-1.5071,-1.5979,-1.6702,-1.7398,-1.8115,-1.836,-1.863,-1.9247,-1.9215,-1.9312,-0.6336,-0.6295,-0.6292,-0.6184,-0.6086,-0.6067,-0.6062,-0.6048,-0.5844,-0.5702,-0.5688,-0.5688,-0.5688,-0.5688,-0.5688,-0.5688,-0.5688,-0.5688,-0.5688,-0.5688,-0.5819,-0.6308,-0.7139,-0.8193,-0.9113,-0.9951,-1.0868,-1.1311,-1.1311,-1.1311,-1.1311,-1.1311,-1.1311,-1.1311,-1.1311,-1.1311,-1.1311,-1.1311,-1.1311,-1.1311,-1.1311,-1.1311,-1.1311,-1.1311,-1.1311,-1.1311,-1.1311,-1.1311,-1.1311,-1.1311,-1.1311,-1.1311,-1.1311,-1.1311,-1.1311,0.0,-1.1311,0.0,0.0,0.0,0.0,0.0,0.0,0.0,0.0,-1.1908,-1.1707,-1.14,-1.0539,-1.0223,-1.0798,-1.0625,-1.0415,-1.0469,-1.0603,-1.0692,-1.0684,-1.0542,-1.0375,-1.0404,-1.0099,-0.988,-0.9843,-0.9701,-0.9592,-0.9575,-0.9547,-0.9522,-0.9555,-0.9538,-0.9624,-0.9624,-0.9624,-0.9826,-1.0314,-1.0806,-1.1282,-1.1745,-1.192,-1.2124,-1.2502,-1.2657,-1.2726,-1.292,-1.3665,-1.4545,-1.5401,-1.6131,-1.6773,-1.7541,-1.7299,-1.7374,-1.8354,-1.8274,-1.821,-0.614,-0.6121,-0.6169,-0.6105,-0.6078,-0.598,-0.5937,-0.5934,-0.5888,-0.582,-0.5691,-0.5688,-0.5688,-0.5688,-0.5688,-0.5688,-0.5688,-0.5688,-0.5688,-0.5735,-0.6482,-0.6922,-0.7183,-0.8851,-0.9724,-0.9946,-1.0868,-1.1311,-1.1311,-1.1311,-1.1311,-1.1311,-1.1311,-1.1311,-1.1311,0.0,0.0,0.0,-1.1311,-1.1311,-1.1311,-1.1311,-1.1311,-1.1311,-1.1311,0.0,-1.1311,-1.1311,-1.1311,-1.1311,-1.1311,0.0,0.0,0.0,0.0,0.0,0.0,0.0,0.0,0.0,0.0,0.0,-1.2424,-1.2127,-1.1986,-1.1354,-1.0919,-1.0868,-1.0525,-1.0343,-1.0486,-1.0596,-1.0643,-1.0643,-1.0672,-1.0692,-1.0684,-1.0538,-1.0379,-1.0225,-1.0018,-0.9831,-0.9681,-0.9518,-0.9457,-0.9449,-0.9287,-0.9202,-0.9206,-0.9445,-0.9612,-0.9624,-0.96,-0.9764,-1.0314,-1.0493,-1.0662,-1.1038,-1.1469,-1.1694,-1.1786,-1.2106,-1.2549,-1.3121,-1.349,-1.417,-1.5655,-1.5906,-1.6063,-1.6895,-1.6763,-1.6683,-1.7202,-1.701,-1.6907,-0.6051,-0.5994,-0.5994,-0.5964,0.0,-0.5844,-0.582,-0.5775,-0.582,-0.5787,-0.5691,-0.5688,-0.5688,-0.5688,-0.5688,-0.5688,-0.5688,-0.5688,-0.5688,-0.5777,-0.6656,-0.7363,-0.7841,-0.9244,-1.0125,-1.0603,-1.1046,-1.1311,-1.1311,-1.1311,-1.1311,-1.1311,-1.1311,-1.1311,-1.1311,-1.1311,-1.1311,-1.1311,-1.1311,-1.1311,-1.1311,-1.1311,-1.1311,-1.1311,-1.1311,0.0,0.0,0.0,0.0,0.0,0.0,0.0,0.0,-1.1311,0.0,-1.1311,-1.1311,-1.1553,-1.2046,-1.2089,-1.23,-1.2721,-1.2073,-1.1492,-1.1243,-1.0555,-1.0243,-1.0429,-1.0358,-1.0371,-1.0542,-1.0643,-1.0692,-1.0692,-1.0692,-1.0692,-1.0676,-1.0538,-1.0327,-1.0063,-0.9868,-0.9665,-0.9401,-0.9295,-0.9277,-0.9273,-0.9204,-0.9088,-0.9108,-0.9246,-0.9364,-0.9364,-0.9364,-0.9464,-0.97,-0.9748,-1.0014,-1.0608,-1.1241,-1.176,-1.2202,-1.2723,-1.3225,-1.367,-1.3734,-1.4203,-1.5265,-1.5422,-1.5435,-1.6139,-1.6126,-1.5965,-1.6133,-1.614,-1.6314,-0.5964,-0.5874,-0.5871,-0.5817,-0.5688,-0.5688,-0.5688,-0.5688,0.0,0.0,0.0,-0.5688,-0.5688,-0.5688,-0.5688,-0.5688,-0.5735,-0.5866,-0.5955,-0.5997,-0.7095,-0.8017,-0.8759,-0.9724,-1.0564,-1.1267,-1.1311,-1.1311,-1.1311,-1.1311,-1.1311,-1.1311,-1.1311,-1.1311,-1.1311,-1.1311,-1.1311,-1.1311,-1.1311,-1.1311,-1.1311,-1.1311,-1.1311,-1.1311,-1.1311,-1.1311,-1.1311,-1.1311,-1.1311,-1.1311,-1.1311,-1.1311,-1.1311,-1.1311,-1.1311,-1.1311,-1.1311,-1.1537,-1.1997,-1.2073,-1.2206,-1.2484,-1.1736,-1.0949,-1.0413,-0.9949,-0.9791,-1.0087,-1.0196,-1.0339,-1.0566,-1.0599,-1.0599,-1.0599,-1.0599,-1.0582,-1.0542,-1.04,-1.0084,-0.9843,-0.9632,-0.9429,-0.9157,-0.9076,-0.9047,-0.9043,-0.9003,-0.9003,-0.9015,-0.9068,-0.9129,-0.9133,-0.9145,-0.9112,-0.9104,-0.9163,-0.9452,-1.0209,-1.1013,-1.182,-1.2648,-1.3485,-1.3976,-1.4123,-1.4148,-1.4453,-1.5065,-1.5127,-1.5126,-1.569,-1.5586,-1.5389,-1.5418,-1.5643,-1.5946,-0.5773,-0.5712,-0.5712,-0.5704,-0.5688,-0.5688,-0.5688,-0.5688,-0.5688,-0.5688,-0.5688,-0.5688,-0.5688,-0.5688,-0.5688,-0.5688,-0.5733,-0.6523,-0.6922,-0.7007,-0.8671,-0.9598,-0.9767,-1.0651,-1.1176,-1.1311,-1.1311,-1.1311,-1.1311,-1.1311,-1.1311,-1.1311,-1.1311,-1.1311,-1.1311,-1.1311,-1.1311,-1.1311,-1.1311,-1.1311,-1.1311,-1.1311,-1.1311,-1.1311,-1.1311,-1.1311,-1.1311,-1.1311,-1.1311,-1.1311,-1.1311,-1.1311,-1.1311,-1.1311,-1.1311,-1.1311,-1.1311,-1.1429,-1.1736,-1.1981,-1.1926,-1.1487,-1.1296,-1.0998,-1.0417,-1.0062,-0.9872,-0.998,-1.0118,-1.0228,-1.029,-1.0249,-1.031,-1.0298,-1.0294,-1.018,-1.0042,-0.9876,-0.9689,-0.947,-0.9275,-0.9173,-0.908,-0.8946,-0.8865,-0.884,-0.8775,-0.8662,-0.8718,-0.8951,-0.9076,-0.9096,-0.9096,-0.9096,-0.9056,-0.9092,-0.9284,-0.9555,-1.0601,-1.1528,-1.2078,-1.3009,-1.3827,-1.4287,-1.4419,-1.4661,-1.5254,-1.5358,-1.5351,-1.5491,-1.5418,-1.5389,-1.5389,-1.5455,-1.5518,-0.5688,-0.5688,-0.5688,-0.5688,-0.5688,-0.5688,-0.5688,-0.5688,-0.5688,-0.5688,-0.5688,-0.5688,-0.5688,-0.5688,-0.5688,-0.5997,-0.6482,-0.6918,-0.736,-0.7929,-0.9288,-0.9898,-0.9985,-1.0868,-1.1311,-1.1311,-1.1311,-1.1311,-1.1311,-1.1311,-1.1311,-1.1311,-1.1311,-1.1311,-1.1311,-1.1311,-1.1311,-1.1311,-1.1311,-1.1311,-1.1311,-1.1311,-1.1311,-1.1311,-1.1311,-1.1311,-1.1311,-1.1311,-1.1311,-1.1311,-1.1311,-1.1311,-1.1311,-1.1311,-1.1311,-1.1311,-1.1311,-1.1413,-1.1688,-1.1959,-1.2001,-1.1686,-1.119,-1.081,-1.0637,-1.0085,-0.9782,-0.9872,-0.9965,-1.0106,-1.02,-1.0212,-1.0212,-1.0212,-1.0131,-1.0028,-0.9884,-0.973,-0.9522,-0.9263,-0.9149,-0.9023,-0.8882,-0.8735,-0.8682,-0.8674,-0.8649,-0.8616,-0.8656,-0.914,-0.9345,-0.8943,-0.8853,-0.8808,-0.8861,-0.8808,-0.9082,-0.966,-1.0821,-1.182,-1.254,-1.3603,-1.4496,-1.4873,-1.4957,-1.5041,-1.5389,-1.5389,-1.5389,-1.5389,-1.5389,-1.5389,-1.5389,-1.5389,-1.5389,-0.5688,-0.5688,-0.5688,-0.5688,-0.5688,-0.5688,-0.5688,-0.5688,-0.5688,-0.5688,-0.5735,-0.5911,-0.5997,-0.6041,-0.6219,-0.6745,-0.736,-0.7669,-0.8149,-0.8851,-0.9772,-1.0212,-1.0299,-1.0997,-1.1311,-1.1311,-1.1311,-1.1311,-1.1311,-1.1311,-1.1311,-1.1311,-1.1311,-1.1311,-1.1311,-1.1311,-1.1311,-1.1311,-1.1311,-1.1311,-1.1311,-1.1311,-1.1311,-1.1311,-1.1311,-1.1311,-1.1311,-1.1311,-1.1311,-1.1311,-1.1311,-1.1311,-1.1311,-1.1311,-1.1311,-1.1311,-1.1311,-1.1407,-1.1682,-1.191,-1.1995,-1.1905,-1.1221,-1.0734,-1.0522,-1.0,-0.9698,-0.9837,-0.9827,-0.9872,-0.9984,-1.0012,-1.0016,-0.9971,-0.9795,-0.9665,-0.9632,-0.9527,-0.9332,-0.9039,-0.8978,-0.8861,-0.8694,-0.8616,-0.8704,-0.888,-0.9043,-0.9218,-0.9301,-0.982,-0.9864,-0.9432,-0.9218,-0.9323,-0.9218,-0.9275,-0.9664,-1.0381,-1.1537,-1.2571,-1.3506,-1.4622,-1.5305,-1.5347,-1.5389,-1.5347,-1.5389,-1.5389,-1.5389,-1.5389,-1.5389,-1.5401,-1.5265,-1.5204,-1.5292,-0.5688,-0.5688,-0.5688,-0.5688,-0.5688,-0.5688,-0.5688,-0.5688,-0.5688,-0.5688,-0.5777,-0.6567,-0.6918,-0.7095,-0.7797,-0.8237,-0.8408,-0.9244,-0.9685,-0.9859,-1.0738,-1.1176,-1.1132,-1.1262,-1.1311,-1.1311,-1.1311,-1.1311,-1.1311,-1.1311,-1.1311,-1.1311,-1.1311,-1.1311,-1.1311,-1.1311,-1.1311,-1.1311,-1.1311,-1.1311,-1.1311,-1.1311,-1.1311,-1.1311,-1.1311,-1.1311,-1.1311,-1.1311,-1.1311,-1.1311,-1.1311,-1.1311,-1.1311,-1.1311,-1.1311,-1.1311,-1.1311,-1.1407,-1.1666,-1.172,-1.1637,-1.137,-1.1283,-1.0837,-1.0092,-0.9877,-0.9763,-0.9702,-0.9644,-0.9587,-0.9502,-0.9494,-0.9413,-0.9307,-0.923,-0.9108,-0.8995,-0.8905,-0.882,-0.8641,-0.8702,-0.8649,-0.8712,-0.8784,-0.9043,-0.9733,-1.0337,-1.0717,-1.0766,-1.0982,-1.1154,-1.1025,-1.102,-1.0977,-1.0939,-1.102,-1.1149,-1.1837,-1.2687,-1.3408,-1.4139,-1.479,-1.5389,-1.5389,-1.5389,-1.5389,-1.536,-1.5389,-1.536,-1.5299,-1.5299,-1.5272,-1.5009,-1.4809,-1.4831,-0.5688,-0.5688,-0.5688,-0.5688,-0.5688,-0.5688,-0.5688,-0.5688,-0.5688,-0.5688,-0.5822,-0.67,-0.7095,-0.7187,-0.8061,-0.8763,-0.9331,-0.9728,-1.0212,-1.0694,-1.1132,-1.1311,-1.1311,-1.1311,-1.1311,-1.1311,-1.1311,-1.1311,-1.1311,-1.1311,-1.1311,-1.1311,-1.1311,-1.1311,-1.1311,-1.1311,-1.1311,-1.1311,-1.1311,-1.1241,-1.1165,-1.1236,-1.1311,-1.1311,-1.1311,-1.1311,-1.1311,-1.1311,-1.1311,-1.1311,-1.1311,-1.1311,-1.1311,-1.1311,-1.1311,-1.1311,-1.1311,-1.1348,-1.1445,-1.145,-1.14,-1.1274,-1.1047,-1.0741,-1.0467,-1.0208,-1.0057,-1.0056,-0.9641,-0.9374,-0.9583,-0.9386,-0.9173,-0.9092,-0.9003,-0.8901,-0.8787,-0.8731,-0.8637,-0.862,-0.8616,-0.8828,-0.9345,-0.9859,-1.0289,-1.0674,-1.1111,-1.1322,-1.1327,-1.1757,-1.2095,-1.2186,-1.2577,-1.24,-1.1666,-1.1445,-1.1789,-1.2308,-1.3033,-1.3795,-1.4294,-1.4957,-1.5389,-1.5374,-1.5345,-1.5258,-1.5104,-1.509,-1.5068,-1.5006,-1.4874,-1.4816,-1.4684,-1.4599,-1.4705,-0.5688,-0.5688,-0.5688,-0.5688,-0.5688,-0.5688,-0.5688,-0.5688,-0.5688,-0.5688,-0.5777,-0.67,-0.7272,-0.7577,-0.8456,-0.9375,-1.0207,-1.0294,-1.0646,-1.1267,-1.1311,-1.1311,-1.1311,-1.1311,-1.1311,-1.1311,-1.1311,-1.1311,-1.1311,-1.1311,-1.1311,-1.1311,-1.1311,-1.1311,-1.1311,-1.1311,-1.1311,-1.1311,-1.1311,-1.1187,-1.1042,-1.116,-1.1209,-1.1203,-1.1209,-1.1236,-1.1305,-1.1311,-1.1311,-1.1311,-1.1311,-1.1311,-1.1311,-1.1311,-1.1311,-1.1311,-1.1311,-1.1311,-1.1311,-1.1311,-1.1392,-1.1521,-1.1079,-1.0881,-1.0975,-1.0622,-1.0423,-1.0457,-0.9807,-0.9555,-0.98,-0.9481,-0.928,-0.9317,-0.9046,-0.8841,-0.9093,-0.885,-0.8704,-0.8915,-0.8788,-0.8828,-0.9471,-1.0207,-1.0766,-1.0804,-1.1322,-1.1671,-1.18,-1.2485,-1.3088,-1.3088,-1.3594,-1.34,-1.2334,-1.2308,-1.2522,-1.2857,-1.3584,-1.4015,-1.4344,-1.4871,-1.5073,-1.4928,-1.5071,-1.5116,-1.4882,-1.4794,-1.4757,-1.4545,-1.4452,-1.4401,-1.4372,-1.4313,-1.4416,-0.5688,-0.5688,-0.5688,-0.5688,-0.5688,-0.5688,-0.5688,-0.5688,-0.5688,-0.5688,-0.5822,-0.6612,-0.758,-0.8408,-0.9244,-1.0299,-1.1127,-1.1176,-1.1181,-1.1311,-1.1311,-1.1311,-1.1311,-1.1311,-1.1311,-1.1311,-1.1311,-1.1311,-1.1311,-1.1311,-1.1311,-1.1311,-1.1311,-1.1311,-1.1311,-1.1311,-1.1311,-1.1311,-1.1311,-1.1182,-1.1004,-1.1035,-1.0993,-1.0961,-1.0999,-1.1101,-1.1262,-1.1305,-1.1305,-1.1311,-1.1311,-1.1311,-1.1311,-1.1311,-1.1311,-1.1311,-1.1311,-1.1311,-1.1311,-1.1311,-1.1559,-1.2069,-1.1602,-1.1348,-1.1505,-1.1077,-1.074,-1.0594,-1.0377,-1.023,-1.0249,-0.9822,-0.962,-0.9786,-0.9169,-0.9112,-0.98,-0.9152,-0.9087,-0.9607,-0.9432,-0.9253,-0.8999,-0.9432,-1.0289,-1.0717,-1.1623,-1.2595,-1.2699,-1.3402,-1.3756,-1.3794,-1.3765,-1.3665,-1.3827,-1.351,-1.371,-1.39,-1.3841,-1.4296,-1.4392,-1.4441,-1.446,-1.4464,-1.4598,-1.464,-1.457,-1.4504,-1.4467,-1.432,-1.4144,-1.4071,-1.4042,-1.3733,-1.3903,-0.5688,-0.5688,-0.5688,-0.5688,-0.5688,-0.5688,-0.5688,-0.5688,-0.5688,-0.5688,-0.5733,-0.6086,-0.7051,-0.8544,-0.8851,-0.9859,-1.1224,-1.1311,-1.1311,-1.1311,-1.1311,-1.1311,-1.1311,-1.1311,-1.1311,-1.1311,-1.1311,-1.1311,-1.1311,-1.1311,-1.1311,-1.1311,-1.1311,-1.1311,-1.1311,-1.1311,-1.1311,-1.1311,-1.1311,-1.1118,-1.0799,-1.0756,-1.0622,-1.0342,-1.0606,-1.0869,-1.1112,-1.1117,-1.1187,-1.1305,-1.1311,-1.1311,-1.1311,-1.1311,-1.1311,-1.1311,-1.1311,-1.1311,-1.1311,-1.1311,-1.1392,-1.1602,-1.1478,-1.1348,-1.1472,-1.1591,-1.1591,-1.1251,-1.1849,-1.2034,-1.1424,-1.0538,-0.9856,-0.9926,-0.9738,-0.965,-0.9864,-0.9689,-0.9777,-1.0549,-1.1106,-1.1606,-1.1354,-1.2169,-1.2687,-1.2638,-1.2987,-1.3156,-1.3265,-1.3456,-1.3561,-1.3527,-1.344,-1.34,-1.348,-1.3628,-1.3743,-1.3817,-1.391,-1.4064,-1.4172,-1.423,-1.4202,-1.4279,-1.4331,-1.4282,-1.4262,-1.4018,-1.3996,-1.3909,-1.3778,-1.38,-1.3675,-1.3565,-1.3769,-0.5688,-0.5688,-0.5688,-0.5688,-0.5688,-0.5688,-0.5688,-0.5688,-0.5688,-0.5688,-0.5688,-0.5688,-0.6567,-0.7929,-0.8368,-0.9331,-1.0776,-1.1132,-1.1311,-1.1311,-1.1311,-1.1311,-1.1311,-1.1311,-1.1311,-1.1311,-1.1311,-1.1311,-1.1311,-1.1311,-1.1311,-1.1311,-1.1311,-1.1311,-1.1311,-1.1311,-1.1311,-1.1311,-1.1311,-1.1075,-1.0732,-1.0557,-1.0293,-0.9997,-1.0051,-1.0286,-1.0622,-1.0638,-1.0751,-1.0925,-1.0967,-1.1037,-1.1171,-1.1268,-1.1311,-1.1311,-1.1311,-1.1311,-1.1311,-1.1311,-1.1392,-1.1607,-1.1435,-1.1392,-1.1602,-1.1903,-1.1725,-1.1645,-1.2032,-1.2497,-1.2069,-1.1246,-1.0852,-1.0939,-1.0641,-1.0598,-1.0982,-1.0847,-1.0847,-1.123,-1.2046,-1.2595,-1.2589,-1.2936,-1.3075,-1.3222,-1.315,-1.3203,-1.3151,-1.3239,-1.3206,-1.32,-1.3133,-1.308,-1.306,-1.313,-1.3338,-1.3437,-1.3536,-1.375,-1.3839,-1.391,-1.399,-1.4086,-1.4083,-1.4026,-1.3865,-1.3645,-1.3543,-1.3499,-1.3536,-1.3594,-1.3543,-1.3514,-1.3775,-0.5688,-0.5688,-0.5688,-0.5733,-0.5733,-0.5777,-0.5733,-0.5733,-0.5735,-0.5777,-0.5777,-0.5733,-0.6349,-0.7228,-0.8189,-0.9065,-1.0077,-1.0911,-1.1311,-1.1311,-1.1311,-1.1311,-1.1311,-1.1311,-1.1311,-1.1311,-1.1311,-1.1311,-1.1311,-1.1311,-1.1311,-1.1311,-1.1311,-1.1311,-1.1311,-1.1311,-1.1305,-1.1278,-1.1311,-1.1169,-1.0908,-1.052,-1.0209,-0.9896,-0.9537,-0.9516,-0.9884,-0.9933,-1.0105,-1.0326,-1.0358,-1.053,-1.095,-1.123,-1.1332,-1.1322,-1.1338,-1.1354,-1.1354,-1.144,-1.186,-1.2155,-1.1774,-1.1693,-1.2063,-1.1854,-1.1521,-1.1392,-1.1607,-1.1607,-1.1731,-1.1983,-1.2406,-1.3052,-1.1886,-1.18,-1.2577,-1.2516,-1.1943,-1.1906,-1.2254,-1.188,-1.158,-1.196,-1.2223,-1.2188,-1.2362,-1.2628,-1.266,-1.2915,-1.3134,-1.31,-1.2958,-1.2835,-1.2721,-1.2596,-1.2837,-1.3064,-1.3136,-1.3272,-1.3348,-1.3393,-1.3556,-1.3679,-1.3762,-1.3718,-1.3718,-1.3528,-1.3521,-1.3492,-1.3492,-1.3492,-1.3492,-1.3564,-1.3848,-0.5688,-0.5733,-0.5908,-0.5994,-0.5994,-0.6124,-0.6169,-0.6171,-0.6038,-0.6038,-0.6124,-0.6038,-0.6567,-0.7573,-0.8408,-0.9283,-1.0207,-1.0954,-1.1311,-1.1311,-1.1311,-1.1311,-1.1311,-1.1311,-1.1311,-1.1311,-1.1311,-1.1311,-1.1311,-1.1311,-1.1311,-1.1311,-1.1311,-1.1311,-1.13,-1.1305,-1.1278,-1.1281,-1.1306,-1.1158,-1.0892,-1.0583,-1.0219,-0.9865,-0.9507,-0.9349,-0.9304,-0.9559,-0.9873,-1.0289,-1.0332,-1.0433,-1.0759,-1.1383,-1.1553,-1.1286,-1.2196,-1.2503,-1.2155,-1.2454,-1.2796,-1.2924,-1.2412,-1.2198,-1.2406,-1.2625,-1.2246,-1.1731,-1.2534,-1.3294,-1.2924,-1.2924,-1.3052,-1.2747,-1.2662,-1.2662,-1.313,-1.3173,-1.3167,-1.3167,-1.3548,-1.3711,-1.3499,-1.3372,-1.3203,-1.3087,-1.3121,-1.3026,-1.2968,-1.2829,-1.2719,-1.2603,-1.2564,-1.2702,-1.2668,-1.2685,-1.2845,-1.2944,-1.2954,-1.304,-1.3051,-1.3103,-1.3241,-1.3374,-1.3441,-1.3499,-1.3492,-1.3492,-1.3492,-1.3492,-1.3492,-1.3492,-1.3492,-1.363,-1.3848,-0.5952,-0.5952,-0.6127,-0.6213,-0.6213,-0.6343,-0.6428,-0.6387,-0.6257,-0.6257,-0.6343,-0.6254,-0.6564,-0.7441,-0.8492,-0.9323,-0.9985,-1.0997,-1.1564,-1.1527,-1.1348,-1.1311,-1.1311,-1.1311,-1.1311,-1.1311,-1.1311,-1.1311,-1.1311,-1.1311,-1.1311,-1.1305,-1.13,-1.1294,-1.1283,-1.1292,-1.128,-1.1235,-1.126,-1.1191,-1.0963,-1.0596,-1.0224,-0.9904,-0.9473,-0.9234,-0.9155,-0.9393,-0.9708,-1.0061,-1.028,-1.0482,-1.0674,-1.1334,-1.1593,-1.1411,-1.2248,-1.2928,-1.2553,-1.296,-1.3398,-1.3313,-1.3009,-1.279,-1.2833,-1.3222,-1.2881,-1.254,-1.3179,-1.3851,-1.3483,-1.3646,-1.3555,-1.3209,-1.3264,-1.3434,-1.3506,-1.3942,-1.4201,-1.4237,-1.4447,-1.4608,-1.4566,-1.4482,-1.4482,-1.4288,-1.3933,-1.3581,-1.3354,-1.3003,-1.2713,-1.2569,-1.267,-1.2758,-1.2737,-1.2797,-1.287,-1.2882,-1.2843,-1.2966,-1.3058,-1.3124,-1.3228,-1.3375,-1.3492,-1.3492,-1.3492,-1.3492,-1.3492,-1.3492,-1.3492,-1.3492,-1.3492,-1.3492,-1.3702,-0.6384,-0.6428,-0.6428,-0.6432,-0.6432,-0.6476,-0.6517,-0.6473,-0.6428,-0.6432,-0.6473,-0.6432,-0.6473,-0.6868,-0.8317,-0.9148,-0.954,-1.0944,-1.1823,-1.178,-1.1607,-1.1392,-1.1397,-1.1397,-1.1397,-1.1397,-1.1311,-1.1305,-1.1354,-1.1311,-1.13,-1.1284,-1.1275,-1.1305,-1.1272,-1.1229,-1.1191,-1.1226,-1.1215,-1.1203,-1.1126,-1.053,-1.0158,-1.0119,-0.9532,-0.9265,-0.9466,-0.9604,-0.9673,-0.9885,-1.031,-1.0551,-1.0695,-1.1163,-1.1393,-1.1081,-1.2223,-1.2671,-1.2687,-1.3237,-1.3656,-1.373,-1.3561,-1.3434,-1.3476,-1.3519,-1.344,-1.3222,-1.3476,-1.361,-1.3646,-1.3977,-1.4272,-1.4314,-1.3942,-1.3942,-1.4356,-1.4741,-1.4831,-1.4873,-1.4866,-1.4692,-1.465,-1.465,-1.465,-1.4545,-1.4175,-1.3854,-1.362,-1.3286,-1.2998,-1.29,-1.2863,-1.29,-1.2936,-1.3053,-1.3127,-1.3127,-1.3039,-1.3069,-1.3156,-1.32,-1.3273,-1.3419,-1.3492,-1.3492,-1.3492,-1.3492,-1.3492,-1.3492,-1.3492,-1.3492,-1.3492,-1.3492,-1.3702,-0.6428,-0.6428,-0.6612,-0.67,-0.6748,-0.6833,-0.6918,-0.6874,-0.6745,-0.6789,-0.683,-0.6748,-0.6745,-0.7007,-0.7973,-0.8807,-0.9628,-1.0549,-1.1429,-1.1909,-1.1914,-1.1828,-1.1785,-1.1656,-1.1656,-1.1736,-1.1478,-1.1397,-1.1575,-1.1424,-1.1294,-1.129,-1.1286,-1.1288,-1.1218,-1.1209,-1.1215,-1.119,-1.1206,-1.1155,-1.1051,-1.0551,-1.0373,-1.0468,-0.9968,-0.9815,-1.004,-1.0271,-1.0255,-1.0098,-1.0361,-1.054,-1.0585,-1.1171,-1.1319,-1.1107,-1.2332,-1.3226,-1.3121,-1.3837,-1.451,-1.481,-1.4356,-1.4146,-1.4146,-1.4146,-1.3893,-1.3646,-1.3808,-1.4146,-1.4146,-1.4314,-1.4398,-1.444,-1.4496,-1.4622,-1.479,-1.4824,-1.4783,-1.4783,-1.4783,-1.4734,-1.4734,-1.4734,-1.4734,-1.4677,-1.4339,-1.3974,-1.3814,-1.3471,-1.3083,-1.3017,-1.2973,-1.3083,-1.3156,-1.3273,-1.3346,-1.3382,-1.3331,-1.323,-1.3288,-1.3317,-1.3382,-1.3492,-1.3492,-1.3492,-1.3492,-1.3492,-1.3492,-1.3492,-1.3492,-1.3492,-1.3492,-1.3528,-1.3811,-0.6697,-0.6697,-0.6877,-0.6925,-0.6969,-0.7054,-0.7095,-0.7095,-0.6966,-0.6966,-0.7051,-0.6966,-0.6966,-0.7183,-0.7977,-0.8846,-0.9753,-1.0544,-1.1419,-1.2203,-1.2289,-1.2166,-1.2043,-1.1871,-1.1871,-1.1952,-1.1736,-1.1699,-1.1763,-1.1551,-1.1449,-1.1424,-1.131,-1.1221,-1.1203,-1.1188,-1.1167,-1.1153,-1.1168,-1.1155,-1.1087,-1.0677,-1.0563,-1.0593,-1.0286,-1.019,-1.0448,-1.0707,-1.0778,-1.0625,-1.0625,-1.0625,-1.0674,-1.1175,-1.1248,-1.0823,-1.2259,-1.3008,-1.3139,-1.3905,-1.4696,-1.5047,-1.4899,-1.4859,-1.4824,-1.4824,-1.4573,-1.4405,-1.4615,-1.4783,-1.4824,-1.4824,-1.4824,-1.4866,-1.509,-1.5131,-1.4866,-1.4908,-1.4999,-1.4999,-1.4999,-1.4992,-1.4999,-1.4992,-1.4992,-1.4919,-1.4586,-1.4313,-1.4073,-1.3633,-1.3251,-1.3157,-1.307,-1.3143,-1.3093,-1.3128,-1.3069,-1.3134,-1.3156,-1.3142,-1.3288,-1.3331,-1.3419,-1.3448,-1.347,-1.3492,-1.3492,-1.3492,-1.3492,-1.3492,-1.3492,-1.3557,-1.3637,-1.3674,-1.3956,-0.7109,-0.7095,-0.7095,-0.7095,-0.7095,-0.7095,-0.7095,-0.7095,-0.7095,-0.7095,-0.7095,-0.7095,-0.7098,-0.7187,-0.8065,-0.9017,-0.9923,-1.0799,-1.1752,-1.2406,-1.2619,-1.2454,-1.2166,-1.208,-1.208,-1.2123,-1.2037,-1.1966,-1.1892,-1.171,-1.1573,-1.1449,-1.1265,-1.1196,-1.1192,-1.1155,-1.1104,-1.1116,-1.1128,-1.1122,-1.1075,-1.0797,-1.0689,-1.0725,-1.0616,-1.0521,-1.0755,-1.096,-1.1056,-1.1105,-1.0925,-1.085,-1.0856,-1.1192,-1.1151,-1.1094,-1.1781,-1.2434,-1.2733,-1.334,-1.4128,-1.4646,-1.4979,-1.5325,-1.52,-1.5166,-1.5082,-1.5131,-1.5389,-1.5298,-1.5305,-1.534,-1.5298,-1.5305,-1.5389,-1.509,-1.4783,-1.5048,-1.5389,-1.5389,-1.5389,-1.5389,-1.5389,-1.5389,-1.5389,-1.5157,-1.4797,-1.4449,-1.4144,-1.3651,-1.3397,-1.3281,-1.3215,-1.3171,-1.3047,-1.295,-1.2784,-1.2704,-1.2718,-1.2784,-1.3061,-1.3163,-1.3323,-1.3367,-1.3309,-1.3367,-1.3492,-1.3492,-1.3477,-1.3492,-1.3492,-1.3702,-1.392,-1.392,-1.4093,-0.7251,-0.7095,-0.7095,-0.7095,-0.7095,-0.7095,-0.7095,-0.7095,-0.7095,-0.7095,-0.7139,-0.7095,-0.7143,-0.7183,-0.8193,-0.9017,-1.0009,-1.0971,-1.1794,-1.2613,-1.2705,-1.2662,-1.2497,-1.2369,-1.2412,-1.2406,-1.2166,-1.202,-1.1937,-1.1721,-1.1479,-1.1287,-1.1255,-1.1189,-1.1145,-1.1134,-1.1117,-1.1117,-1.1117,-1.1117,-1.1069,-1.0888,-1.0828,-1.0966,-1.0942,-1.096,-1.1009,-1.1075,-1.1111,-1.1074,-1.1074,-1.1111,-1.1037,-1.0999,-1.0929,-1.1008,-1.1301,-1.1778,-1.2126,-1.2706,-1.3304,-1.4261,-1.4096,-1.4062,-1.5284,-1.4845,-1.4901,-1.5215,-1.5389,-1.5264,-1.5347,-1.5389,-1.5389,-1.5389,-1.5389,-1.5347,-1.5264,-1.5305,-1.5389,-1.5389,-1.5389,-1.5389,-1.5389,-1.536,-1.5338,-1.5287,-1.4984,-1.4592,-1.413,-1.3623,-1.336,-1.3148,-1.3009,-1.2884,-1.2716,-1.257,-1.2431,-1.2328,-1.2328,-1.2343,-1.2621,-1.2789,-1.2833,-1.2965,-1.3097,-1.3192,-1.3265,-1.3433,-1.3411,-1.3448,-1.3542,-1.3876,-1.4129,-1.4129,-1.4768,-0.7282,-0.7098,-0.7095,-0.7095,-0.7095,-0.7095,-0.7095,-0.7095,-0.7095,-0.7095,-0.7228,-0.7536,-0.7757,-0.7841,-0.8755,-0.9666,-1.0621,-1.1531,-1.218,-1.2656,-1.2705,-1.2705,-1.2705,-1.2619,-1.2619,-1.2644,-1.2318,-1.2146,-1.2052,-1.174,-1.1476,-1.1346,-1.1221,-1.1149,-1.1098,-1.1117,-1.1117,-1.1117,-1.1117,-1.1117,-1.1081,-1.0991,-1.0942,-1.1081,-1.1117,-1.1117,-1.1105,-1.1111,-1.1117,-1.1186,-1.1446,-1.1484,-1.1149,-1.0999,-1.0962,-1.0962,-1.1005,-1.1608,-1.2174,-1.2672,-1.3181,-1.3927,-1.3672,-1.3804,-1.4131,-1.3889,-1.3983,-1.4322,-1.4454,-1.4538,-1.4866,-1.4908,-1.5041,-1.5347,-1.5389,-1.5389,-1.5389,-1.5389,-1.5389,-1.5389,-1.5389,-1.5389,-1.5382,-1.5243,-1.5155,-1.5053,-1.4611,-1.4179,-1.3836,-1.3389,-1.3067,-1.284,-1.2645,-1.2485,-1.2295,-1.2175,-1.2061,-1.198,-1.1926,-1.1958,-1.2068,-1.2186,-1.2241,-1.2489,-1.2782,-1.2777,-1.2906,-1.3104,-1.3308,-1.3329,-1.3494,-1.4009,-1.453,-1.4909,-1.5799,-0.7282,-0.7095,-0.7095,-0.7095,-0.7095,-0.7095,-0.7095,-0.7095,-0.7095,-0.7095,-0.7272,-0.8061,-0.8368,-0.8715,-0.9623,-1.0626,-1.1494,-1.2143,-1.2656,-1.2656,-1.2705,-1.2705,-1.2705,-1.2705,-1.262,-1.2632,-1.2409,-1.2271,-1.2079,-1.1754,-1.1486,-1.1393,-1.1206,-1.1104,-1.1123,-1.1117,-1.1117,-1.1117,-1.1117,-1.1117,-1.1117,-1.1093,-1.1099,-1.1105,-1.1117,-1.1117,-1.1117,-1.1117,-1.1186,-1.1298,-1.1824,-1.1818,-1.1663,-1.1477,-1.1477,-1.1515,-1.1552,-1.2016,-1.2735,-1.3073,-1.3301,-1.3742,-1.3789,-1.3812,-1.3534,-1.352,-1.3612,-1.377,-1.405,-1.4243,-1.4482,-1.4741,-1.4957,-1.5242,-1.5352,-1.5316,-1.5301,-1.5287,-1.5233,-1.5272,-1.5174,-1.5087,-1.5072,-1.4992,-1.4926,-1.4779,-1.4289,-1.3872,-1.355,-1.3177,-1.2862,-1.2533,-1.2358,-1.2175,-1.1984,-1.1941,-1.1804,-1.1767,-1.1694,-1.1725,-1.175,-1.1924,-1.2124,-1.2274,-1.246,-1.253,-1.2667,-1.2908,-1.3075,-1.312,-1.3499,-1.406,-1.4798,-1.5627,-1.6549,-0.7282,-0.7095,-0.7095,-0.7095,-0.7095,-0.7095,-0.7095,-0.7095,-0.7095,-0.7095,-0.7228,-0.8105,-0.8584,-0.8978,-1.0366,-1.1537,-1.2272,-1.2619,-1.2705,-1.2705,-1.2705,-1.2705,-1.2705,-1.2699,-1.2596,-1.2373,-1.2253,-1.2145,-1.1916,-1.1645,-1.1369,-1.122,-1.1148,-1.1117,-1.1117,-1.1117,-1.1117,-1.1117,-1.1117,-1.1117,-1.1117,-1.1117,-1.1117,-1.1117,-1.1117,-1.1117,-1.1117,-1.1155,-1.1409,-1.1966,-1.1595,-1.2033,-1.2615,-1.2908,-1.2981,-1.2872,-1.2835,-1.2989,-1.3375,-1.3324,-1.3652,-1.3977,-1.3861,-1.3959,-1.4165,-1.4052,-1.3761,-1.4185,-1.4559,-1.497,-1.5208,-1.4941,-1.5179,-1.5309,-1.5133,-1.4988,-1.4977,-1.4845,-1.4772,-1.4904,-1.4779,-1.4692,-1.4721,-1.4699,-1.4589,-1.4465,-1.4136,-1.3843,-1.3609,-1.314,-1.2672,-1.2343,-1.2028,-1.1838,-1.1672,-1.1694,-1.165,-1.1696,-1.1667,-1.1722,-1.1777,-1.1925,-1.2098,-1.229,-1.2415,-1.25,-1.2675,-1.2807,-1.3051,-1.3224,-1.3694,-1.4137,-1.4883,-1.5626,-1.6163,-0.7282,-0.7098,-0.7095,-0.7095,-0.7095,-0.7095,-0.7095,-0.7095,-0.7095,-0.7095,-0.7533,-0.8536,-0.9235,-0.971,-1.1187,-1.2314,-1.2571,-1.2705,-1.2705,-1.2705,-1.2705,-1.2705,-1.2699,-1.2699,-1.2542,-1.2337,-1.218,-1.194,-1.167,-1.1399,-1.1224,-1.1166,-1.1117,-1.1117,-1.1117,-1.1117,-1.1117,-1.1117,-1.1117,-1.1117,-1.1117,-1.1117,-1.1117,-1.1117,-1.1117,-1.1117,-1.1117,-1.1117,-1.1267,-1.1669,-1.2107,-1.2512,-1.2989,-1.3528,-1.3854,-1.3564,-1.3528,-1.3709,-1.3998,-1.3962,-1.4118,-1.4262,-1.3977,-1.3821,-1.3865,-1.3579,-1.357,-1.3626,-1.3716,-1.4021,-1.4237,-1.4407,-1.4548,-1.4831,-1.4787,-1.4714,-1.4626,-1.4399,-1.4384,-1.4472,-1.4494,-1.4518,-1.4487,-1.4414,-1.4267,-1.4092,-1.3909,-1.3755,-1.3609,-1.3177,-1.2658,-1.227,-1.2009,-1.189,-1.1744,-1.1738,-1.1747,-1.1747,-1.1778,-1.1809,-1.1934,-1.2151,-1.2251,-1.2359,-1.2435,-1.2639,-1.2613,-1.2769,-1.3049,-1.3363,-1.3729,-1.4189,-1.4902,-1.5583,-1.6056,-0.7251,-0.7095,-0.7095,-0.7095,-0.7095,-0.7095,-0.7095,-0.7095,-0.7095,-0.7095,-0.7356,-0.8921,-0.9836,-1.0356,-1.1617,-1.2705,-1.2705,-1.2705,-1.2705,-1.2705,-1.2705,-1.2705,-1.2699,-1.2614,-1.2463,-1.218,-1.191,-1.1706,-1.1513,-1.1242,-1.1148,-1.1117,-1.1117,-1.1117,-1.1117,-1.1117,-1.1117,-1.1117,-1.1117,-1.1117,-1.1117,-1.1117,-1.1117,-1.1117,-1.1117,-1.1117,-1.1117,-1.1117,-1.1267,-1.1669,-1.2211,-1.2806,-1.2769,-1.3564,-1.3926,-1.3608,-1.3637,-1.4099,-1.4609,-1.4832,-1.4812,-1.4816,-1.4661,-1.4252,-1.3866,-1.3705,-1.3237,-1.2811,-1.3074,-1.3352,-1.3908,-1.372,-1.397,-1.4323,-1.4504,-1.4394,-1.4282,-1.4121,-1.3931,-1.4026,-1.4218,-1.4232,-1.4136,-1.4062,-1.3901,-1.3872,-1.3697,-1.3631,-1.347,-1.3228,-1.2775,-1.2347,-1.2064,-1.1951,-1.1905,-1.1948,-1.1987,-1.2019,-1.2089,-1.2143,-1.2274,-1.2428,-1.2507,-1.2639,-1.28,-1.292,-1.285,-1.2789,-1.3082,-1.3418,-1.3752,-1.4243,-1.489,-1.5318,-1.5723,-0.7112,-0.7095,-0.7095,-0.7095,-0.7095,-0.7095,-0.7095,-0.7095,-0.7095,-0.7095,-0.7228,-0.8969,-0.9836,-1.0443,-1.188,-1.2619,-1.2705,-1.2705,-1.2705,-1.2705,-1.2705,-1.2705,-1.2662,-1.2451,-1.2264,-1.1976,-1.17,-1.1543,-1.1405,-1.1182,-1.1117,-1.1117,-1.1117,-1.1117,-1.1117,-1.1117,-1.1117,-1.1117,-1.1117,-1.1117,-1.1117,-1.1117,-1.1117,-1.1117,-1.1117,-1.1117,-1.1117,-1.1117,-1.1335,-1.1892,-1.1589,-1.2137,-1.2989,-1.2739,-1.3025,-1.3455,-1.4106,-1.4788,-1.5319,-1.539,-1.5461,-1.539,-1.5505,-1.5344,-1.4876,-1.4591,-1.4313,-1.3867,-1.4185,-1.4217,-1.4093,-1.4251,-1.4404,-1.4287,-1.4196,-1.4115,-1.4027,-1.3894,-1.3697,-1.366,-1.3836,-1.3755,-1.3667,-1.3609,-1.355,-1.3536,-1.355,-1.3499,-1.3468,-1.336,-1.3224,-1.2893,-1.2621,-1.2489,-1.2485,-1.2466,-1.239,-1.2406,-1.2476,-1.2553,-1.2606,-1.2745,-1.2923,-1.3063,-1.3239,-1.3305,-1.3198,-1.3206,-1.3283,-1.3546,-1.3958,-1.4355,-1.4777,-1.5152,-1.5532,-0.7095,-0.7095,-0.7095,-0.7095,-0.7095,-0.7095,-0.7095,-0.7095,-0.7095,-0.7095,-0.7312,-0.8448,-0.9628,-1.075,-1.2143,-1.2662,-1.2705,-1.2705,-1.2705,-1.2705,-1.2705,-1.2699,-1.2638,-1.2439,-1.218,-1.1856,-1.1661,-1.1431,-1.131,-1.1202,-1.1117,-1.1117,-1.1117,-1.1117,-1.1117,-1.1117,-1.1117,-1.1117,-1.1117,-1.1117,-1.1117,-1.1117,-1.1117,-1.1117,-1.1117,-1.1117,-1.1117,-1.1117,-1.1223,-1.1669,-1.1558,-1.1774,-1.2181,-1.2224,-1.2519,-1.2732,-1.3055,-1.3818,-1.4832,-1.5081,-1.5382,-1.5726,-1.577,-1.5549,-1.5317,-1.5165,-1.4843,-1.411,-1.4289,-1.4283,-1.4058,-1.3954,-1.3954,-1.3865,-1.3857,-1.3799,-1.3718,-1.3623,-1.3521,-1.3499,-1.3492,-1.3492,-1.3492,-1.3499,-1.3616,-1.3761,-1.3761,-1.3702,-1.3828,-1.3956,-1.3801,-1.3623,-1.3413,-1.3214,-1.319,-1.3193,-1.3028,-1.302,-1.3122,-1.3128,-1.298,-1.3071,-1.3397,-1.3706,-1.3952,-1.3922,-1.369,-1.3749,-1.3878,-1.4038,-1.421,-1.4632,-1.5054,-1.5313,-1.5674,-0.7095,-0.7095,-0.7095,-0.7095,-0.7095,-0.7095,-0.7095,-0.7095,-0.7095,-0.7095,-0.7445,-0.8364,-0.9845,-1.1192,-1.2186,-1.2705,-1.2705,-1.2705,-1.2705,-1.2705,-1.2693,-1.265,-1.2518,-1.2324,-1.2065,-1.183,-1.1516,-1.1317,-1.1196,-1.1117,-1.1117,-1.1117,-1.1117,-1.1117,-1.1117,-1.1117,-1.1117,-1.1117,-1.1117,-1.1117,-1.1117,-1.1117,-1.1117,-1.1117,-1.1117,-1.1117,-1.1117,-1.1117,-1.1111,-1.126,-1.1558,-1.1706,-1.1774,-1.2114,-1.2482,-1.2732,-1.2952,-1.3455,-1.4322,-1.4752,-1.5054,-1.5505,-1.577,-1.562,-1.5319,-1.524,-1.4955,-1.4175,-1.4263,-1.4009,-1.3645,-1.3536,-1.3579,-1.3594,-1.355,-1.3506,-1.3492,-1.3492,-1.3492,-1.3492,-1.3492,-1.3492,-1.3492,-1.3492,-1.3637,-1.3956,-1.3992,-1.3928,-1.4109,-1.4344,-1.4323,-1.4185,-1.4076,-1.387,-1.3897,-1.3865,-1.3688,-1.3656,-1.376,-1.3765,-1.3695,-1.3775,-1.4077,-1.4369,-1.4596,-1.4471,-1.4199,-1.4367,-1.4516,-1.4744,-1.493,-1.5051,-1.5306,-1.5586,-1.578,-0.7095,-0.7095,-0.7095,-0.7095,-0.7095,-0.7095,-0.7095,-0.7095,-0.7095,-0.7095,-0.7404,-0.8925,-1.0274,-1.1322,-1.2229,-1.2747,-1.2705,-1.2705,-1.2747,-1.2747,-1.2687,-1.2572,-1.2385,-1.2085,-1.1802,-1.1549,-1.1347,-1.119,-1.1123,-1.1117,-1.1117,-1.1117,-1.1117,-1.1117,-1.1117,-1.1117,-1.1117,-1.1117,-1.1117,-1.1117,-1.1117,-1.1117,-1.1117,-1.1117,-1.1117,-1.1117,-1.1117,-1.1192,-1.1267,-1.126,-1.1589,-1.1922,-1.2218,-1.2372,-1.2732,-1.3098,-1.32,-1.3709,-1.435,-1.4645,-1.5046,-1.5541,-1.577,-1.5655,-1.5355,-1.5576,-1.5177,-1.4418,-1.4489,-1.4209,-1.3811,-1.3492,-1.3593,-1.3492,-1.3492,-1.3492,-1.3492,-1.3492,-1.3492,-1.3492,-1.3492,-1.3492,-1.3492,-1.3492,-1.3811,-1.4137,-1.4425,-1.4397,-1.4389,-1.4601,-1.4668,-1.4651,-1.4616,-1.4557,-1.4568,-1.452,-1.448,-1.438,-1.4411,-1.4459,-1.4432,-1.4598,-1.4632,-1.4775,-1.492,-1.4827,-1.4932,-1.5413,-1.5734,-1.5629,-1.5664,-1.583,-1.5934,-1.6158,-1.6128,-0.7095,-0.7095,-0.7095,-0.7095,-0.7095,-0.7095,-0.7095,-0.7095,-0.7095,-0.7187,-0.7455,-0.9274,-1.0318,-1.102,-1.2448,-1.3045,-1.296,-1.2924,-1.2966,-1.2881,-1.276,-1.2542,-1.2306,-1.2035,-1.1754,-1.1516,-1.1256,-1.1117,-1.1117,-1.1117,-1.1117,-1.1117,-1.1117,-1.1117,-1.1117,-1.1117,-1.1117,-1.1117,-1.1117,-1.1117,-1.1117,-1.1117,-1.1117,-1.1117,-1.1117,-1.1117,-1.1192,-1.1632,-1.1781,-1.1966,-1.2254,-1.2659,-1.2945,-1.2981,-1.3244,-1.3571,-1.3644,-1.3998,-1.4502,-1.4681,-1.4974,-1.5584,-1.5805,-1.5726,-1.5541,-1.5726,-1.547,-1.507,-1.4812,-1.4561,-1.4029,-1.3848,-1.3848,-1.3593,-1.3492,-1.3492,-1.3492,-1.3492,-1.3492,-1.3492,-1.3492,-1.3492,-1.3492,-1.3492,-1.392,-1.4317,-1.4605,-1.4864,-1.482,-1.4927,-1.5078,-1.515,-1.5128,-1.5183,-1.5159,-1.5231,-1.5249,-1.5137,-1.5009,-1.4958,-1.4923,-1.4975,-1.5043,-1.517,-1.5468,-1.5698,-1.6098,-1.6749,-1.6826,-1.6426,-1.6456,-1.6664,-1.6735,-1.6769,-1.6698,-0.7095,-0.7095,-0.7095,-0.7095,-0.7095,-0.7095,-0.7095,-0.7095,-0.7095,-0.7187,-0.7499,-0.9279,-1.0183,-1.0755,-1.2314,-1.3222,-1.3137,-1.3137,-1.3185,-1.3105,-1.294,-1.2654,-1.2355,-1.2074,-1.178,-1.149,-1.1326,-1.1186,-1.1117,-1.1117,-1.1117,-1.1117,-1.1117,-1.1117,-1.1117,-1.1117,-1.1117,-1.1117,-1.1117,-1.1117,-1.1117,-1.1117,-1.1117,-1.1117,-1.1117,-1.1335,-1.1558,-1.1966,-1.2372,-1.2703,-1.3098,-1.3535,-1.3709,-1.3854,-1.397,-1.4078,-1.423,-1.4438,-1.4796,-1.5018,-1.5204,-1.5726,-1.5805,-1.5805,-1.5805,-1.5805,-1.5549,-1.524,-1.5125,-1.4919,-1.4245,-1.4029,-1.3848,-1.3601,-1.3492,-1.3492,-1.3492,-1.3492,-1.3492,-1.3492,-1.3492,-1.3492,-1.3674,-1.371,-1.3992,-1.4497,-1.5007,-1.5185,-1.5098,-1.5248,-1.5549,-1.5628,-1.5613,-1.5692,-1.578,-1.5625,-1.5497,-1.5497,-1.5386,-1.5309,-1.5283,-1.5352,-1.5566,-1.5858,-1.6222,-1.6697,-1.6989,-1.72,-1.7164,-1.7027,-1.7209,-1.7495,-1.7468,-1.7482,-1.7421,-0.7095,-0.7095,-0.7095,-0.7095,-0.7095,-0.7095,-0.7095,-0.7095,-0.7095,-0.7139,-0.7404,-0.9139,-0.9966,-1.0491,-1.2272,-1.3137,-1.3222,-1.3307,-1.3372,-1.3296,-1.306,-1.2829,-1.2504,-1.2193,-1.1864,-1.1496,-1.1372,-1.126,-1.1155,-1.1117,-1.1117,-1.1117,-1.1117,-1.1117,-1.1117,-1.1117,-1.1117,-1.1117,-1.1117,-1.1117,-1.1117,-1.1117,-1.1117,-1.1111,-1.1267,-1.1595,-1.1966,-1.2549,-1.2989,-1.3455,-1.3716,-1.415,-1.4545,-1.4573,-1.4875,-1.5434,-1.5513,-1.562,-1.5735,-1.5735,-1.5726,-1.5761,-1.5805,-1.5805,-1.5805,-1.577,-1.5691,-1.539,-1.5284,-1.4919,-1.4453,-1.4101,-1.392,-1.3637,-1.3528,-1.3492,-1.3492,-1.3492,-1.3492,-1.3492,-1.3492,-1.3528,-1.3783,-1.3964,-1.4165,-1.4633,-1.5292,-1.547,-1.539,-1.5505,-1.577,-1.5805,-1.5805,-1.5805,-1.5805,-1.5805,-1.5754,-1.5762,-1.5711,-1.5583,-1.567,-1.5809,-1.607,-1.6445,-1.6775,-1.7123,-1.727,-1.7423,-1.761,-1.7846,-1.8064,-1.8265,-1.8215,-1.8185,-1.8133,-0.7095,-0.7095,-0.7095,-0.7095,-0.7095,-0.7095,-0.7095,-0.7095,-0.7139,-0.7187,-0.7716,-0.9362,-1.0188,-1.0842,-1.2272,-1.3398,-1.3349,-1.347,-1.3565,-1.3326,-1.308,-1.2679,-1.2387,-1.2171,-1.1904,-1.1633,-1.1484,-1.1372,-1.1298,-1.1186,-1.1117,-1.1117,-1.1117,-1.1117,-1.1117,-1.1117,-1.1117,-1.1117,-1.1117,-1.1117,-1.1117,-1.1117,-1.1149,-1.1143,-1.1558,-1.2077,-1.2445,-1.3098,-1.3818,-1.425,-1.4517,-1.4991,-1.524,-1.5275,-1.5461,-1.5761,-1.5805,-1.5805,-1.5805,-1.577,-1.5805,-1.5805,-1.5805,-1.5805,-1.5805,-1.5805,-1.5691,-1.562,-1.5549,-1.515,-1.4641,-1.4461,-1.4209,-1.3666,-1.3492,-1.3492,-1.3492,-1.3492,-1.3492,-1.3492,-1.3492,-1.3564,-1.371,-1.4173,-1.4425,-1.4784,-1.5399,-1.5655,-1.562,-1.5655,-1.5805,-1.5805,-1.5805,-1.5805,-1.5805,-1.5805,-1.5805,-1.5788,-1.5788,-1.5745,-1.5912,-1.607,-1.6263,-1.6481,-1.701,-1.7476,-1.7613,-1.7852,-1.8428,-1.8795,-1.873,-1.8733,-1.8714,-1.8735,-1.8797,-0.7095,-0.7095,-0.7095,-0.7095,-0.7095,-0.7095,-0.7095,-0.7095,-0.7095,-0.7187,-0.7716,-0.9318,-1.0231,-1.0885,-1.2357,-1.3525,-1.3392,-1.3603,-1.3545,-1.3326,-1.3155,-1.2797,-1.2492,-1.219,-1.1985,-1.1775,-1.1595,-1.1484,-1.126,-1.1143,-1.1111,-1.1117,-1.1117,-1.1117,-1.1117,-1.1117,-1.1117,-1.1117,-1.1117,-1.1117,-1.1192,-1.1298,-1.1372,-1.1515,-1.1996,-1.2739,-1.3062,-1.3781,-1.4716,-1.5018,-1.539,-1.5647,-1.5576,-1.5611,-1.5611,-1.5505,-1.5691,-1.5735,-1.5805,-1.5805,-1.5805,-1.5805,-1.5805,-1.5805,-1.5805,-1.5805,-1.5805,-1.577,-1.5805,-1.5434,-1.4919,-1.4776,-1.4353,-1.3775,-1.3528,-1.3564,-1.3528,-1.3528,-1.3492,-1.3492,-1.3492,-1.3564,-1.3811,-1.4245,-1.4677,-1.507,-1.547,-1.5655,-1.5805,-1.5805,-1.5805,-1.5805,-1.5805,-1.5805,-1.5805,-1.5805,-1.5805,-1.5805,-1.5805,-1.5805,-1.5938,-1.6105,-1.6307,-1.6542,-1.7063,-1.7545,-1.7886,-1.8259,-1.8573,-1.8808,-1.889,-1.8936,-1.9098,-1.9098,-1.9098,-0.7095,-0.7095,-0.7095,-0.7095,-0.7095,-0.7095,-0.7095,-0.7095,-0.7095,-0.7139,-0.7356,-0.9183,-1.0139,-1.0702,-1.2308,-1.3179,-1.336,-1.3535,-1.3412,-1.3248,-1.2994,-1.2791,-1.2591,-1.2309,-1.2037,-1.1843,-1.1632,-1.1446,-1.1143,-1.1111,-1.1111,-1.1117,-1.1117,-1.1117,-1.1117,-1.1117,-1.1117,-1.1117,-1.1117,-1.1117,-1.1192,-1.1639,-1.1484,-1.1626,-1.2248,-1.2915,-1.339,-1.4034,-1.476,-1.524,-1.5691,-1.5275,-1.5161,-1.5382,-1.5125,-1.5054,-1.539,-1.5691,-1.5805,-1.5805,-1.5805,-1.5805,-1.5805,-1.5805,-1.5805,-1.5805,-1.5805,-1.5805,-1.5805,-1.5541,-1.5204,-1.4848,-1.4461,-1.4065,-1.3674,-1.3637,-1.3564,-1.3564,-1.3492,-1.3492,-1.3492,-1.3666,-1.4137,-1.4569,-1.4784,-1.5213,-1.5505,-1.5699,-1.5805,-1.5805,-1.5805,-1.5805,-1.5805,-1.5805,-1.5805,-1.5805,-1.5805,-1.5805,-1.5805,-1.5841,-1.5973,-1.6105,-1.6272,-1.6577,-1.7097,-1.7604,-1.8192,-1.8395,-1.8428,-1.8674,-1.8942,-1.9042,-1.9098,-1.9098,-1.9098,-0.7095,-0.7095,-0.7095,-0.7095,-0.7095,-0.7095,-0.7095,-0.7095,-0.7139,-0.7404,-0.8189,-0.9362,-1.0269,-1.1106,-1.2491,-1.3009,-1.3182,-1.3175,-1.3016,-1.2846,-1.2667,-1.2433,-1.2205,-1.2048,-1.1966,-1.1929,-1.1744,-1.1521,-1.1446,-1.1298,-1.1117,-1.1117,-1.1117,-1.1117,-1.1117,-1.1117,-1.1117,-1.1117,-1.1117,-1.1117,-1.1149,-1.1484,-1.1335,-1.1552,-1.2218,-1.2769,-1.2989,-1.3954,-1.4466,-1.4294,-1.5284,-1.5355,-1.4752,-1.4824,-1.4716,-1.4744,-1.5275,-1.5805,-1.5805,-1.5805,-1.5805,-1.5805,-1.5805,-1.5805,-1.5805,-1.5805,-1.5805,-1.5805,-1.5805,-1.5576,-1.5319,-1.4963,-1.4641,-1.4317,-1.3964,-1.371,-1.3637,-1.3564,-1.3528,-1.3492,-1.3492,-1.3702,-1.4209,-1.4533,-1.4784,-1.5248,-1.5576,-1.5735,-1.5805,-1.5805,-1.5805,-1.5805,-1.5805,-1.5805,-1.5805,-1.5805,-1.5805,-1.5805,-1.5805,-1.5805,-1.5867,-1.6035,-1.6237,-1.6647,-1.7235,-1.7944,-1.8664,-1.8697,-1.8506,-1.8764,-1.9042,-1.9065,-1.9098,-1.9098,-1.9098,-0.7095,-0.7095,-0.7095,-0.7095,-0.7095,-0.7095,-0.7095,-0.7095,-0.7095,-0.7625,-0.8584,-0.9492,-1.0491,-1.1499,-1.2443,-1.2947,-1.295,-1.2901,-1.2691,-1.2301,-1.2228,-1.2151,-1.1989,-1.1892,-1.1892,-1.1892,-1.1744,-1.1521,-1.1446,-1.1298,-1.1117,-1.1117,-1.1117,-1.1117,-1.1117,-1.1117,-1.1117,-1.1117,-1.1117,-1.1117,-1.1186,-1.1335,-1.1366,-1.1329,-1.2077,-1.2445,-1.2409,-1.3593,-1.3781,-1.3535,-1.4669,-1.4661,-1.425,-1.4394,-1.4903,-1.5046,-1.547,-1.577,-1.5805,-1.5805,-1.5805,-1.5805,-1.5805,-1.5805,-1.5805,-1.5805,-1.5805,-1.5805,-1.577,-1.5691,-1.5399,-1.5106,-1.4856,-1.4605,-1.4209,-1.3819,-1.371,-1.3601,-1.3528,-1.3492,-1.3593,-1.3739,-1.4029,-1.4389,-1.4748,-1.5177,-1.5541,-1.5735,-1.5805,-1.5805,-1.5805,-1.5805,-1.5805,-1.5805,-1.5805,-1.5805,-1.5805,-1.5805,-1.5805,-1.5805,-1.5841,-1.607,-1.6447,-1.689,-1.7442,-1.7988,-1.8395,-1.8607,-1.8607,-1.8875,-1.9042,-1.9098,-1.9098,-1.9098,-1.9098,-0.7095,-0.7095,-0.7095,-0.7095,-0.7095,-0.7095,-0.7085,-0.7122,-0.7197,-0.7738,-0.8703,-0.96,-1.0699,-1.1747,-1.2385,-1.2564,-1.2554,-1.25,-1.2265,-1.1805,-1.1928,-1.1948,-1.1956,-1.1966,-1.1892,-1.1781,-1.1595,-1.144,-1.1186,-1.1117,-1.1117,-1.1117,-1.1117,-1.1117,-1.1117,-1.1117,-1.1117,-1.1117,-1.1117,-1.1117,-1.126,-1.1595,-1.1922,-1.1477,-1.2137,-1.2872,-1.2549,-1.2842,-1.339,-1.3317,-1.3535,-1.3608,-1.3818,-1.4438,-1.5133,-1.539,-1.562,-1.577,-1.5805,-1.5805,-1.5805,-1.5805,-1.5805,-1.5805,-1.5805,-1.5805,-1.5805,-1.5805,-1.577,-1.577,-1.5549,-1.5141,-1.4812,-1.4569,-1.4245,-1.3956,-1.3811,-1.3666,-1.3528,-1.3492,-1.3528,-1.3702,-1.4021,-1.4382,-1.474,-1.5141,-1.5505,-1.577,-1.5805,-1.5805,-1.5805,-1.5805,-1.5805,-1.5805,-1.5805,-1.5805,-1.5805,-1.5805,-1.5805,-1.5805,-1.5805,-1.6211,-1.6682,-1.6994,-1.7304,-1.751,-1.7818,-1.8293,-1.8707,-1.8741,-1.8908,-1.9065,-1.9098,-1.9098,-1.9098,-0.7095,-0.7095,-0.7095,-0.7095,-0.7095,-0.7095,-0.7028,-0.7023,-0.7619,-0.8492,-0.9568,-1.0326,-1.1136,-1.201,-1.207,-1.2148,-1.2103,-1.201,-1.1751,-1.1589,-1.1645,-1.174,-1.1763,-1.1818,-1.1811,-1.1781,-1.1626,-1.1329,-1.1149,-1.1117,-1.1117,-1.1117,-1.1117,-1.1117,-1.1117,-1.1117,-1.1117,-1.1117,-1.1117,-1.1117,-1.1186,-1.1186,-1.126,-1.1223,-1.1737,-1.1811,-1.1706,-1.2144,-1.207,-1.1885,-1.3018,-1.339,-1.3528,-1.4776,-1.5169,-1.5081,-1.5505,-1.5735,-1.5805,-1.5805,-1.5805,-1.5805,-1.5805,-1.5805,-1.5805,-1.5805,-1.5805,-1.5805,-1.5805,-1.5805,-1.5664,-1.5213,-1.4776,-1.4525,-1.4274,-1.4057,-1.3884,-1.3702,-1.3492,-1.3492,-1.3492,-1.3702,-1.4021,-1.4382,-1.474,-1.5141,-1.5541,-1.5805,-1.5805,-1.5805,-1.5805,-1.5805,-1.5805,-1.5805,-1.5805,-1.5805,-1.5805,-1.5805,-1.5805,-1.5805,-1.5841,-1.614,-1.6542,-1.6786,-1.7019,-1.7569,-1.8124,-1.8596,-1.8875,-1.8875,-1.8875,-1.9065,-1.9098,-1.9098,-1.9098,-0.7095,-0.7095,-0.7095,-0.7058,-0.7007,-0.7004,-0.7132,-0.7471,-0.8238,-0.9206,-1.0092,-1.0621,-1.1262,-1.2009,-1.1934,-1.1772,-1.1706,-1.1573,-1.1461,-1.1354,-1.142,-1.1496,-1.1558,-1.1669,-1.1669,-1.1669,-1.144,-1.118,-1.1117,-1.1117,-1.1117,-1.1117,-1.1117,-1.1117,-1.1111,-1.1111,-1.1117,-1.1117,-1.1155,-1.1111,-1.1111,-1.1111,-1.1378,-1.1409,-1.1335,-1.1223,-1.1229,-1.1558,-1.1403,-1.1663,-1.2689,-1.3673,-1.4142,-1.5133,-1.547,-1.5426,-1.5576,-1.5805,-1.5805,-1.5805,-1.5805,-1.5805,-1.5805,-1.5805,-1.5805,-1.5805,-1.5805,-1.5805,-1.5805,-1.5805,-1.5691,-1.5319,-1.4955,-1.4633,-1.4274,-1.3985,-1.3775,-1.3601,-1.3492,-1.3492,-1.3492,-1.3564,-1.392,-1.4346,-1.4669,-1.4883,-1.5328,-1.577,-1.5805,-1.5805,-1.5805,-1.5805,-1.5805,-1.5805,-1.5805,-1.5805,-1.5805,-1.5805,-1.5805,-1.6008,-1.6105,-1.6167,-1.6368,-1.6959,-1.7604,-1.8273,-1.8787,-1.8998,-1.9208,-1.9274,-1.9175,-1.9098,-1.9098,-1.9098,-1.9098,-0.7041,-0.7071,-0.7065,-0.6987,-0.6912,-0.7026,-0.7354,-0.7951,-0.8941,-0.9727,-1.0314,-1.0549,-1.1135,-1.1581,-1.1772,-1.1615,-1.1483,-1.1431,-1.1286,-1.1233,-1.1316,-1.1409,-1.1521,-1.1595,-1.1595,-1.1446,-1.1223,-1.1149,-1.1117,-1.1117,-1.1117,-1.1117,-1.1149,-1.1186,-1.1186,-1.1149,-1.1149,-1.1298,-1.1298,-1.1223,-1.1186,-1.1149,-1.1484,-1.1595,-1.1552,-1.1186,-1.1186,-1.126,-1.1292,-1.202,-1.2945,-1.3774,-1.4502,-1.5275,-1.562,-1.5691,-1.5691,-1.5805,-1.5805,-1.5805,-1.5805,-1.5805,-1.5805,-1.5805,-1.5805,-1.5805,-1.5805,-1.5805,-1.5805,-1.577,-1.5647,-1.5426,-1.5026,-1.4705,-1.431,-1.392,-1.371,-1.3528,-1.3492,-1.3492,-1.3492,-1.3528,-1.3783,-1.4209,-1.4497,-1.4748,-1.507,-1.547,-1.577,-1.5805,-1.5805,-1.5805,-1.5805,-1.5805,-1.5805,-1.5805,-1.5805,-1.5805,-1.5841,-1.614,-1.6403,-1.6577,-1.6959,-1.7613,-1.8259,-1.8586,-1.8921,-1.9131,-1.9341,-1.9473,-1.9308,-1.9098,-1.9098,-1.9098,-1.9098,-0.69,-0.6927,-0.6923,-0.6839,-0.684,-0.7405,-0.7751,-0.8005,-0.933,-0.9995,-1.0231,-1.0766,-1.1256,-1.1549,-1.1309,-1.1238,-1.1292,-1.1238,-1.1208,-1.1161,-1.1298,-1.1372,-1.144,-1.1477,-1.1521,-1.1372,-1.1186,-1.1117,-1.1117,-1.1117,-1.1117,-1.1117,-1.1117,-1.1335,-1.1855,-1.1669,-1.1298,-1.1446,-1.1403,-1.1254,-1.1626,-1.1515,-1.1186,-1.1217,-1.118,-1.1521,-1.1855,-1.204,-1.2469,-1.3084,-1.3774,-1.4314,-1.4867,-1.5382,-1.5691,-1.5805,-1.5805,-1.5805,-1.5805,-1.5805,-1.5805,-1.5805,-1.5805,-1.5805,-1.5805,-1.5805,-1.5805,-1.5805,-1.5805,-1.5761,-1.5647,-1.5319,-1.4991,-1.4705,-1.4382,-1.392,-1.3601,-1.3528,-1.3492,-1.3492,-1.3492,-1.3492,-1.3564,-1.3956,-1.431,-1.4597,-1.4982,-1.539,-1.5691,-1.5735,-1.5805,-1.5805,-1.5805,-1.5805,-1.5805,-1.5805,-1.5805,-1.5805,-1.5938,-1.6272,-1.6647,-1.7028,-1.7476,-1.793,-1.8192,-1.8462,-1.8764,-1.9264,-1.9264,-1.9341,-1.9231,-1.9098,-1.9098,-1.9098,-1.9098]}]]